Wetterdaten: Samstag, 02.09.2017
Datum Zeit Temp. A. Pool Temp. Feuchte A. Luftdruck Regen Wind Richtung Richtung Sonnenschein ET UV Solar Taupunkt Windchill Windben Empfang
02.09.2017 00:00 13,3 C 21,7 C 95 % 1015,8 hPa 0,0 l/m 2,4 km/h (1 Bft) O-NO 58 0 min 0,000 mm 0,0 UV-I 0 W/m 12,5 C 13,3 C 4,8 km/h (1 Bft) 100,00 %
02.09.2017 00:02 13,2 C 21,7 C 95 % 1015,9 hPa 0,0 l/m 2,0 km/h (1 Bft) O-NO 58 0 min 0,000 mm 0,0 UV-I 0 W/m 12,4 C 13,2 C 3,2 km/h (1 Bft) 100,00 %
02.09.2017 00:04 13,2 C 21,7 C 95 % 1015,8 hPa 0,0 l/m 2,3 km/h (1 Bft) O-NO 58 0 min 0,000 mm 0,0 UV-I 0 W/m 12,4 C 13,2 C 3,2 km/h (1 Bft) 100,00 %
02.09.2017 00:06 13,2 C 21,7 C 95 % 1015,9 hPa 0,0 l/m 1,8 km/h (1 Bft) O-NO 58 0 min 0,000 mm 0,0 UV-I 0 W/m 12,4 C 13,2 C 3,2 km/h (1 Bft) 100,00 %
02.09.2017 00:08 13,1 C 21,7 C 95 % 1015,9 hPa 0,0 l/m 1,9 km/h (1 Bft) O-NO 58 0 min 0,000 mm 0,0 UV-I 0 W/m 12,3 C 13,1 C 4,8 km/h (1 Bft) 100,00 %
02.09.2017 00:10 13,1 C 21,7 C 94 % 1015,9 hPa 0,0 l/m 2,2 km/h (1 Bft) O-NO 58 0 min 0,000 mm 0,0 UV-I 0 W/m 12,2 C 13,1 C 4,8 km/h (1 Bft) 100,00 %
02.09.2017 00:12 13,1 C 21,7 C 94 % 1015,9 hPa 0,0 l/m 2,8 km/h (1 Bft) O-NO 58 0 min 0,000 mm 0,0 UV-I 0 W/m 12,2 C 13,1 C 4,8 km/h (1 Bft) 97,87 %
02.09.2017 00:14 13,1 C 21,7 C 94 % 1015,9 hPa 0,0 l/m 3,6 km/h (1 Bft) O-NO 58 0 min 0,000 mm 0,0 UV-I 0 W/m 12,2 C 13,1 C 4,8 km/h (1 Bft) 100,00 %
02.09.2017 00:16 13,1 C 21,7 C 94 % 1015,8 hPa 0,0 l/m 3,3 km/h (1 Bft) O-NO 58 0 min 0,000 mm 0,0 UV-I 0 W/m 12,2 C 13,1 C 4,8 km/h (1 Bft) 97,87 %
02.09.2017 00:18 13,0 C 21,7 C 94 % 1015,9 hPa 0,0 l/m 4,6 km/h (1 Bft) NO 54 0 min 0,000 mm 0,0 UV-I 0 W/m 12,1 C 13,0 C 8,0 km/h (2 Bft) 100,00 %
02.09.2017 00:20 13,0 C 21,7 C 94 % 1015,9 hPa 0,0 l/m 2,1 km/h (1 Bft) NO 54 0 min 0,000 mm 0,0 UV-I 0 W/m 12,1 C 13,0 C 3,2 km/h (1 Bft) 97,87 %
02.09.2017 00:22 13,0 C 21,7 C 94 % 1015,9 hPa 0,0 l/m 1,3 km/h (1 Bft) NO 54 0 min 0,000 mm 0,0 UV-I 0 W/m 12,1 C 13,0 C 3,2 km/h (1 Bft) 100,00 %
02.09.2017 00:24 13,0 C 21,7 C 94 % 1015,9 hPa 0,0 l/m 1,3 km/h (1 Bft) NO 54 0 min 0,000 mm 0,0 UV-I 0 W/m 12,1 C 13,0 C 1,6 km/h (1 Bft) 98,00 %
02.09.2017 00:26 13,0 C 21,7 C 94 % 1015,9 hPa 0,0 l/m 1,7 km/h (1 Bft) NO 54 0 min 0,000 mm 0,0 UV-I 0 W/m 12,1 C 13,0 C 3,2 km/h (1 Bft) 97,87 %
02.09.2017 00:28 13,0 C 21,7 C 94 % 1015,9 hPa 0,0 l/m 2,2 km/h (1 Bft) NO 54 0 min 0,000 mm 0,0 UV-I 0 W/m 12,1 C 13,0 C 4,8 km/h (1 Bft) 97,87 %
02.09.2017 00:30 13,0 C 21,7 C 94 % 1015,9 hPa 0,0 l/m 2,2 km/h (1 Bft) NO 54 0 min 0,000 mm 0,0 UV-I 0 W/m 12,1 C 13,0 C 3,2 km/h (1 Bft) 95,74 %
02.09.2017 00:32 13,0 C 21,7 C 94 % 1015,9 hPa 0,0 l/m 2,6 km/h (1 Bft) NO 54 0 min 0,000 mm 0,0 UV-I 0 W/m 12,1 C 13,0 C 3,2 km/h (1 Bft) 97,37 %
02.09.2017 00:34 13,0 C 21,7 C 94 % 1015,9 hPa 0,0 l/m 3,3 km/h (1 Bft) NO 54 0 min 0,000 mm 0,0 UV-I 0 W/m 12,1 C 13,0 C 4,8 km/h (1 Bft) 93,62 %
02.09.2017 00:36 13,0 C 21,7 C 94 % 1015,8 hPa 0,0 l/m 4,1 km/h (1 Bft) O-NO 73 0 min 0,000 mm 0,0 UV-I 0 W/m 12,1 C 13,0 C 6,4 km/h (2 Bft) 97,87 %
02.09.2017 00:38 13,0 C 21,7 C 94 % 1015,8 hPa 0,0 l/m 3,6 km/h (1 Bft) O-NO 73 0 min 0,000 mm 0,0 UV-I 0 W/m 12,1 C 13,0 C 4,8 km/h (1 Bft) 97,87 %
02.09.2017 00:40 13,0 C 21,7 C 94 % 1015,7 hPa 0,0 l/m 3,1 km/h (1 Bft) O-NO 73 0 min 0,000 mm 0,0 UV-I 0 W/m 12,1 C 13,0 C 4,8 km/h (1 Bft) 96,00 %
02.09.2017 00:42 13,0 C 21,7 C 93 % 1015,7 hPa 0,0 l/m 2,7 km/h (1 Bft) O-NO 73 0 min 0,000 mm 0,0 UV-I 0 W/m 11,9 C 13,0 C 4,8 km/h (1 Bft) 97,87 %
02.09.2017 00:44 12,9 C 21,7 C 93 % 1015,7 hPa 0,0 l/m 2,2 km/h (1 Bft) O-NO 73 0 min 0,000 mm 0,0 UV-I 0 W/m 11,8 C 12,9 C 3,2 km/h (1 Bft) 97,87 %
02.09.2017 00:46 12,9 C 21,7 C 93 % 1015,6 hPa 0,0 l/m 2,6 km/h (1 Bft) O-NO 73 0 min 0,000 mm 0,0 UV-I 0 W/m 11,8 C 12,9 C 3,2 km/h (1 Bft) 94,00 %
02.09.2017 00:48 12,9 C 21,7 C 93 % 1015,6 hPa 0,0 l/m 2,9 km/h (1 Bft) O-NO 73 0 min 0,000 mm 0,0 UV-I 0 W/m 11,8 C 12,9 C 4,8 km/h (1 Bft) 93,62 %
02.09.2017 00:50 12,9 C 21,7 C 93 % 1015,6 hPa 0,0 l/m 2,0 km/h (1 Bft) O-NO 73 0 min 0,000 mm 0,0 UV-I 0 W/m 11,8 C 12,9 C 3,2 km/h (1 Bft) 97,44 %
02.09.2017 00:52 12,9 C 21,7 C 93 % 1015,6 hPa 0,0 l/m 1,8 km/h (1 Bft) NO 36 0 min 0,000 mm 0,0 UV-I 0 W/m 11,8 C 12,9 C 6,4 km/h (2 Bft) 93,62 %
02.09.2017 00:54 12,9 C 21,7 C 93 % 1015,6 hPa 0,0 l/m 5,3 km/h (1 Bft) NO 42 0 min 0,000 mm 0,0 UV-I 0 W/m 11,8 C 12,9 C 6,4 km/h (2 Bft) 95,74 %
02.09.2017 00:56 12,9 C 21,7 C 93 % 1015,6 hPa 0,0 l/m 4,7 km/h (1 Bft) NO 44 0 min 0,000 mm 0,0 UV-I 0 W/m 11,8 C 12,9 C 6,4 km/h (2 Bft) 93,62 %
02.09.2017 00:58 12,9 C 21,7 C 93 % 1015,6 hPa 0,0 l/m 4,0 km/h (1 Bft) NO 44 0 min 0,000 mm 0,0 UV-I 0 W/m 11,8 C 12,9 C 6,4 km/h (2 Bft) 87,23 %
02.09.2017 01:00 12,9 C 21,7 C 93 % 1015,6 hPa 0,0 l/m 4,2 km/h (1 Bft) NO 44 0 min 0,000 mm 0,0 UV-I 0 W/m 11,8 C 12,9 C 6,4 km/h (2 Bft) 96,00 %
02.09.2017 01:02 12,8 C 21,7 C 93 % 1015,6 hPa 0,0 l/m 5,2 km/h (1 Bft) NO 45 0 min 0,000 mm 0,0 UV-I 0 W/m 11,7 C 12,8 C 8,0 km/h (2 Bft) 95,74 %
02.09.2017 01:04 12,8 C 21,7 C 93 % 1015,6 hPa 0,0 l/m 4,7 km/h (1 Bft) NO 47 0 min 0,000 mm 0,0 UV-I 0 W/m 11,7 C 12,8 C 6,4 km/h (2 Bft) 93,62 %
02.09.2017 01:06 12,8 C 21,7 C 93 % 1015,5 hPa 0,0 l/m 5,4 km/h (1 Bft) NO 46 0 min 0,000 mm 0,0 UV-I 0 W/m 11,7 C 12,8 C 8,0 km/h (2 Bft) 93,62 %
02.09.2017 01:08 12,8 C 21,7 C 93 % 1015,6 hPa 0,0 l/m 6,4 km/h (2 Bft) NO 45 0 min 0,000 mm 0,0 UV-I 0 W/m 11,7 C 12,8 C 9,7 km/h (2 Bft) 93,62 %
02.09.2017 01:10 12,8 C 21,7 C 93 % 1015,6 hPa 0,0 l/m 4,3 km/h (1 Bft) O-NO 59 0 min 0,000 mm 0,0 UV-I 0 W/m 11,7 C 12,8 C 8,0 km/h (2 Bft) 95,74 %
02.09.2017 01:12 12,8 C 21,7 C 93 % 1015,6 hPa 0,0 l/m 4,3 km/h (1 Bft) NO 41 0 min 0,000 mm 0,0 UV-I 0 W/m 11,7 C 12,8 C 8,0 km/h (2 Bft) 93,62 %
02.09.2017 01:14 12,8 C 21,7 C 93 % 1015,6 hPa 0,0 l/m 4,3 km/h (1 Bft) NO 48 0 min 0,000 mm 0,0 UV-I 0 W/m 11,7 C 12,8 C 6,4 km/h (2 Bft) 96,00 %
02.09.2017 01:16 12,8 C 21,7 C 93 % 1015,6 hPa 0,0 l/m 6,6 km/h (2 Bft) NO 55 0 min 0,000 mm 0,0 UV-I 0 W/m 11,7 C 12,7 C 9,7 km/h (2 Bft) 91,49 %
02.09.2017 01:18 12,8 C 21,7 C 93 % 1015,6 hPa 0,0 l/m 4,7 km/h (1 Bft) N-NO 31 0 min 0,000 mm 0,0 UV-I 0 W/m 11,7 C 12,8 C 8,0 km/h (2 Bft) 95,74 %
02.09.2017 01:20 12,8 C 21,7 C 93 % 1015,6 hPa 0,0 l/m 6,2 km/h (2 Bft) NO 56 0 min 0,000 mm 0,0 UV-I 0 W/m 11,7 C 12,8 C 9,7 km/h (2 Bft) 94,74 %
02.09.2017 01:22 12,8 C 21,7 C 93 % 1015,6 hPa 0,0 l/m 6,4 km/h (2 Bft) NO 43 0 min 0,000 mm 0,0 UV-I 0 W/m 11,7 C 12,8 C 8,0 km/h (2 Bft) 100,00 %
02.09.2017 01:24 12,8 C 21,7 C 93 % 1015,6 hPa 0,0 l/m 4,2 km/h (1 Bft) NO 43 0 min 0,000 mm 0,0 UV-I 0 W/m 11,7 C 12,8 C 6,4 km/h (2 Bft) 100,00 %
02.09.2017 01:26 12,7 C 21,7 C 93 % 1015,6 hPa 0,0 l/m 3,2 km/h (1 Bft) N-NO 20 0 min 0,000 mm 0,0 UV-I 0 W/m 11,6 C 12,7 C 4,8 km/h (1 Bft) 97,87 %
02.09.2017 01:28 12,7 C 21,7 C 93 % 1015,6 hPa 0,0 l/m 5,9 km/h (2 Bft) NO 38 0 min 0,000 mm 0,0 UV-I 0 W/m 11,6 C 12,7 C 9,7 km/h (2 Bft) 100,00 %
02.09.2017 01:30 12,8 C 21,7 C 93 % 1015,6 hPa 0,0 l/m 5,0 km/h (1 Bft) NO 40 0 min 0,000 mm 0,0 UV-I 0 W/m 11,7 C 12,8 C 6,4 km/h (2 Bft) 100,00 %
02.09.2017 01:32 12,7 C 21,7 C 93 % 1015,5 hPa 0,0 l/m 3,7 km/h (1 Bft) NO 38 0 min 0,000 mm 0,0 UV-I 0 W/m 11,6 C 12,7 C 4,8 km/h (1 Bft) 95,74 %
02.09.2017 01:34 12,8 C 21,7 C 93 % 1015,5 hPa 0,0 l/m 3,7 km/h (1 Bft) N-NO 32 0 min 0,000 mm 0,0 UV-I 0 W/m 11,7 C 12,8 C 8,0 km/h (2 Bft) 97,87 %
02.09.2017 01:36 12,7 C 21,7 C 93 % 1015,5 hPa 0,0 l/m 5,3 km/h (1 Bft) NO 39 0 min 0,000 mm 0,0 UV-I 0 W/m 11,6 C 12,7 C 8,0 km/h (2 Bft) 97,87 %
02.09.2017 01:38 12,7 C 21,7 C 92 % 1015,5 hPa 0,0 l/m 6,7 km/h (2 Bft) NO 36 0 min 0,000 mm 0,0 UV-I 0 W/m 11,4 C 12,5 C 9,7 km/h (2 Bft) 97,87 %
02.09.2017 01:40 12,7 C 21,7 C 92 % 1015,5 hPa 0,0 l/m 6,3 km/h (2 Bft) N-NO 19 0 min 0,000 mm 0,0 UV-I 0 W/m 11,4 C 12,7 C 9,7 km/h (2 Bft) 97,87 %
02.09.2017 01:42 12,7 C 21,7 C 92 % 1015,4 hPa 0,0 l/m 6,5 km/h (2 Bft) N-NO 32 0 min 0,000 mm 0,0 UV-I 0 W/m 11,4 C 12,7 C 12,9 km/h (3 Bft) 100,00 %
02.09.2017 01:44 12,7 C 21,7 C 92 % 1015,5 hPa 0,0 l/m 8,8 km/h (2 Bft) N-NO 19 0 min 0,000 mm 0,0 UV-I 0 W/m 11,4 C 11,2 C 12,9 km/h (3 Bft) 100,00 %
02.09.2017 01:46 12,6 C 21,7 C 92 % 1015,5 hPa 0,0 l/m 8,8 km/h (2 Bft) N-NO 27 0 min 0,000 mm 0,0 UV-I 0 W/m 11,3 C 11,1 C 12,9 km/h (3 Bft) 100,00 %
02.09.2017 01:48 12,6 C 21,7 C 92 % 1015,4 hPa 0,0 l/m 7,3 km/h (2 Bft) NO 50 0 min 0,000 mm 0,0 UV-I 0 W/m 11,3 C 12,0 C 12,9 km/h (3 Bft) 100,00 %
02.09.2017 01:50 12,6 C 21,7 C 92 % 1015,4 hPa 0,0 l/m 6,1 km/h (2 Bft) NO 35 0 min 0,000 mm 0,0 UV-I 0 W/m 11,3 C 12,6 C 9,7 km/h (2 Bft) 97,87 %
02.09.2017 01:52 12,6 C 21,7 C 92 % 1015,4 hPa 0,0 l/m 9,6 km/h (2 Bft) N-NO 24 0 min 0,000 mm 0,0 UV-I 0 W/m 11,3 C 10,7 C 14,5 km/h (3 Bft) 100,00 %
02.09.2017 01:54 12,5 C 21,7 C 91 % 1015,4 hPa 0,0 l/m 8,6 km/h (2 Bft) N-NO 13 0 min 0,000 mm 0,0 UV-I 0 W/m 11,1 C 11,1 C 14,5 km/h (3 Bft) 97,87 %
02.09.2017 01:56 12,4 C 21,7 C 91 % 1015,4 hPa 0,0 l/m 9,1 km/h (2 Bft) NO 44 0 min 0,000 mm 0,0 UV-I 0 W/m 11,0 C 10,7 C 16,1 km/h (3 Bft) 100,00 %
02.09.2017 01:58 12,4 C 21,7 C 91 % 1015,5 hPa 0,0 l/m 4,8 km/h (1 Bft) N-NO 15 0 min 0,000 mm 0,0 UV-I 0 W/m 11,0 C 12,4 C 11,3 km/h (2 Bft) 97,87 %
02.09.2017 02:00 12,4 C 21,7 C 91 % 1015,4 hPa 0,0 l/m 7,1 km/h (2 Bft) N-NO 16 0 min 0,000 mm 0,0 UV-I 0 W/m 11,0 C 11,9 C 11,3 km/h (2 Bft) 100,00 %
02.09.2017 02:02 12,4 C 21,7 C 91 % 1015,4 hPa 0,0 l/m 5,2 km/h (1 Bft) N-NO 19 0 min 0,000 mm 0,0 UV-I 0 W/m 11,0 C 12,4 C 9,7 km/h (2 Bft) 97,87 %
02.09.2017 02:04 12,4 C 21,7 C 91 % 1015,4 hPa 0,0 l/m 5,2 km/h (1 Bft) N-NO 32 0 min 0,000 mm 0,0 UV-I 0 W/m 11,0 C 12,4 C 8,0 km/h (2 Bft) 100,00 %
02.09.2017 02:06 12,3 C 21,7 C 91 % 1015,4 hPa 0,0 l/m 4,5 km/h (1 Bft) N 5 0 min 0,000 mm 0,0 UV-I 0 W/m 10,9 C 12,3 C 8,0 km/h (2 Bft) 100,00 %
02.09.2017 02:08 12,4 C 21,7 C 91 % 1015,4 hPa 0,0 l/m 5,2 km/h (1 Bft) N-NO 15 0 min 0,000 mm 0,0 UV-I 0 W/m 11,0 C 12,4 C 8,0 km/h (2 Bft) 100,00 %
02.09.2017 02:10 12,3 C 21,7 C 91 % 1015,4 hPa 0,0 l/m 5,6 km/h (1 Bft) N-NO 17 0 min 0,000 mm 0,0 UV-I 0 W/m 10,9 C 12,3 C 8,0 km/h (2 Bft) 100,00 %
02.09.2017 02:12 12,3 C 21,7 C 91 % 1015,5 hPa 0,0 l/m 5,9 km/h (2 Bft) N-NO 15 0 min 0,000 mm 0,0 UV-I 0 W/m 10,9 C 12,3 C 9,7 km/h (2 Bft) 100,00 %
02.09.2017 02:14 12,3 C 21,7 C 91 % 1015,5 hPa 0,0 l/m 2,3 km/h (1 Bft) N-NO 26 0 min 0,000 mm 0,0 UV-I 0 W/m 10,9 C 12,3 C 4,8 km/h (1 Bft) 98,04 %
02.09.2017 02:16 12,3 C 21,7 C 91 % 1015,5 hPa 0,0 l/m 2,3 km/h (1 Bft) N-NO 23 0 min 0,000 mm 0,0 UV-I 0 W/m 10,9 C 12,3 C 4,8 km/h (1 Bft) 97,87 %
02.09.2017 02:18 12,3 C 21,7 C 91 % 1015,5 hPa 0,0 l/m 1,1 km/h (1 Bft) N-NO 16 0 min 0,000 mm 0,0 UV-I 0 W/m 10,9 C 12,3 C 6,4 km/h (2 Bft) 100,00 %
02.09.2017 02:20 12,3 C 21,7 C 91 % 1015,4 hPa 0,0 l/m 3,2 km/h (1 Bft) N-NO 16 0 min 0,000 mm 0,0 UV-I 0 W/m 10,9 C 12,3 C 4,8 km/h (1 Bft) 97,87 %
02.09.2017 02:22 12,3 C 21,7 C 91 % 1015,5 hPa 0,0 l/m 0,9 km/h (0 Bft) N-NO 16 0 min 0,000 mm 0,0 UV-I 0 W/m 10,9 C 12,3 C 3,2 km/h (1 Bft) 100,00 %
02.09.2017 02:24 12,3 C 21,7 C 91 % 1015,5 hPa 0,0 l/m 3,4 km/h (1 Bft) N-NO 16 0 min 0,000 mm 0,0 UV-I 0 W/m 10,9 C 12,3 C 4,8 km/h (1 Bft) 100,00 %
02.09.2017 02:26 12,3 C 21,7 C 91 % 1015,5 hPa 0,0 l/m 2,9 km/h (1 Bft) N-NO 16 0 min 0,000 mm 0,0 UV-I 0 W/m 10,9 C 12,3 C 3,2 km/h (1 Bft) 97,87 %
02.09.2017 02:28 12,3 C 21,7 C 91 % 1015,4 hPa 0,0 l/m 2,9 km/h (1 Bft) N-NO 16 0 min 0,000 mm 0,0 UV-I 0 W/m 10,9 C 12,3 C 6,4 km/h (2 Bft) 98,00 %
02.09.2017 02:30 12,3 C 21,7 C 92 % 1015,5 hPa 0,0 l/m 4,5 km/h (1 Bft) NO 34 0 min 0,000 mm 0,0 UV-I 0 W/m 11,0 C 12,3 C 6,4 km/h (2 Bft) 100,00 %
02.09.2017 02:32 12,3 C 21,7 C 92 % 1015,5 hPa 0,0 l/m 4,4 km/h (1 Bft) NO 35 0 min 0,000 mm 0,0 UV-I 0 W/m 11,0 C 12,3 C 6,4 km/h (2 Bft) 100,00 %
02.09.2017 02:34 12,3 C 21,7 C 92 % 1015,4 hPa 0,0 l/m 4,1 km/h (1 Bft) NO 35 0 min 0,000 mm 0,0 UV-I 0 W/m 11,0 C 12,3 C 4,8 km/h (1 Bft) 97,87 %
02.09.2017 02:36 12,3 C 21,7 C 92 % 1015,5 hPa 0,0 l/m 4,5 km/h (1 Bft) N-NO 32 0 min 0,000 mm 0,0 UV-I 0 W/m 11,0 C 12,3 C 6,4 km/h (2 Bft) 100,00 %
02.09.2017 02:38 12,3 C 21,7 C 92 % 1015,4 hPa 0,0 l/m 4,8 km/h (1 Bft) N-NO 26 0 min 0,000 mm 0,0 UV-I 0 W/m 11,0 C 12,3 C 6,4 km/h (2 Bft) 100,00 %
02.09.2017 02:40 12,3 C 21,7 C 92 % 1015,4 hPa 0,0 l/m 1,1 km/h (1 Bft) N-NO 22 0 min 0,000 mm 0,0 UV-I 0 W/m 11,0 C 12,3 C 3,2 km/h (1 Bft) 97,87 %
02.09.2017 02:42 12,3 C 21,7 C 92 % 1015,4 hPa 0,0 l/m 0,6 km/h (0 Bft) N-NO 22 0 min 0,000 mm 0,0 UV-I 0 W/m 11,0 C 12,3 C 3,2 km/h (1 Bft) 100,00 %
02.09.2017 02:44 12,3 C 21,7 C 92 % 1015,5 hPa 0,0 l/m 1,7 km/h (1 Bft) N-NO 22 0 min 0,000 mm 0,0 UV-I 0 W/m 11,0 C 12,3 C 3,2 km/h (1 Bft) 100,00 %
02.09.2017 02:46 12,3 C 21,7 C 92 % 1015,5 hPa 0,0 l/m 0,7 km/h (0 Bft) N-NO 22 0 min 0,000 mm 0,0 UV-I 0 W/m 11,0 C 12,3 C 1,6 km/h (1 Bft) 100,00 %
02.09.2017 02:48 12,3 C 21,7 C 92 % 1015,4 hPa 0,0 l/m 1,3 km/h (1 Bft) N-NO 22 0 min 0,000 mm 0,0 UV-I 0 W/m 11,0 C 12,3 C 4,8 km/h (1 Bft) 100,00 %
02.09.2017 02:50 12,3 C 21,7 C 92 % 1015,5 hPa 0,0 l/m 1,5 km/h (1 Bft) N-NO 22 0 min 0,000 mm 0,0 UV-I 0 W/m 11,0 C 12,3 C 3,2 km/h (1 Bft) 95,74 %
02.09.2017 02:52 12,3 C 21,7 C 92 % 1015,5 hPa 0,0 l/m 2,7 km/h (1 Bft) N-NO 22 0 min 0,000 mm 0,0 UV-I 0 W/m 11,0 C 12,3 C 4,8 km/h (1 Bft) 95,83 %
02.09.2017 02:54 12,3 C 21,7 C 92 % 1015,5 hPa 0,0 l/m 1,0 km/h (0 Bft) N-NO 22 0 min 0,000 mm 0,0 UV-I 0 W/m 11,0 C 12,3 C 3,2 km/h (1 Bft) 95,74 %
02.09.2017 02:56 12,3 C 21,7 C 92 % 1015,5 hPa 0,0 l/m 1,6 km/h (1 Bft) N-NO 22 0 min 0,000 mm 0,0 UV-I 0 W/m 11,0 C 12,3 C 4,8 km/h (1 Bft) 97,87 %
02.09.2017 02:58 12,3 C 21,7 C 92 % 1015,6 hPa 0,0 l/m 2,3 km/h (1 Bft) N-NO 22 0 min 0,000 mm 0,0 UV-I 0 W/m 11,0 C 12,3 C 4,8 km/h (1 Bft) 93,62 %
02.09.2017 03:00 12,3 C 21,7 C 92 % 1015,6 hPa 0,0 l/m 1,2 km/h (1 Bft) N-NO 22 0 min 0,000 mm 0,0 UV-I 0 W/m 11,0 C 12,3 C 3,2 km/h (1 Bft) 94,74 %
02.09.2017 03:02 12,3 C 21,7 C 92 % 1015,7 hPa 0,0 l/m 1,5 km/h (1 Bft) N-NO 22 0 min 0,000 mm 0,0 UV-I 0 W/m 11,0 C 12,3 C 4,8 km/h (1 Bft) 97,92 %
02.09.2017 03:04 12,2 C 21,7 C 92 % 1015,7 hPa 0,0 l/m 3,1 km/h (1 Bft) N-NO 24 0 min 0,000 mm 0,0 UV-I 0 W/m 10,9 C 12,2 C 4,8 km/h (1 Bft) 97,87 %
02.09.2017 03:06 12,2 C 21,7 C 92 % 1015,7 hPa 0,0 l/m 2,3 km/h (1 Bft) N-NO 24 0 min 0,000 mm 0,0 UV-I 0 W/m 10,9 C 12,2 C 3,2 km/h (1 Bft) 97,87 %
02.09.2017 03:08 12,2 C 21,7 C 92 % 1015,7 hPa 0,0 l/m 0,3 km/h (0 Bft) N-NO 24 0 min 0,000 mm 0,0 UV-I 0 W/m 10,9 C 12,2 C 1,6 km/h (1 Bft) 97,87 %
02.09.2017 03:10 12,2 C 21,7 C 92 % 1015,6 hPa 0,0 l/m 0,3 km/h (0 Bft) N-NO 24 0 min 0,000 mm 0,0 UV-I 0 W/m 10,9 C 12,2 C 1,6 km/h (1 Bft) 91,49 %
02.09.2017 03:12 12,2 C 21,7 C 92 % 1015,7 hPa 0,0 l/m 0,2 km/h (0 Bft) N-NO 24 0 min 0,000 mm 0,0 UV-I 0 W/m 10,9 C 12,2 C 1,6 km/h (1 Bft) 98,00 %
02.09.2017 03:14 12,2 C 21,7 C 92 % 1015,6 hPa 0,0 l/m 0,2 km/h (0 Bft) N-NO 24 0 min 0,000 mm 0,0 UV-I 0 W/m 10,9 C 12,2 C 1,6 km/h (1 Bft) 95,74 %
02.09.2017 03:16 12,2 C 21,7 C 92 % 1015,6 hPa 0,0 l/m 0,0 km/h (0 Bft) N-NO 24 0 min 0,000 mm 0,0 UV-I 0 W/m 10,9 C 12,2 C 1,6 km/h (1 Bft) 95,74 %
02.09.2017 03:18 12,2 C 21,7 C 92 % 1015,7 hPa 0,0 l/m 0,5 km/h (0 Bft) N-NO 23 0 min 0,000 mm 0,0 UV-I 0 W/m 10,9 C 12,2 C 1,6 km/h (1 Bft) 98,00 %
02.09.2017 03:20 12,2 C 21,7 C 92 % 1015,6 hPa 0,0 l/m 0,1 km/h (0 Bft) N-NO 23 0 min 0,000 mm 0,0 UV-I 0 W/m 10,9 C 12,2 C 1,6 km/h (1 Bft) 97,87 %
02.09.2017 03:22 12,2 C 21,7 C 93 % 1015,6 hPa 0,0 l/m 3,7 km/h (1 Bft) NO 35 0 min 0,000 mm 0,0 UV-I 0 W/m 11,1 C 12,2 C 8,0 km/h (2 Bft) 97,87 %
02.09.2017 03:24 12,1 C 21,7 C 92 % 1015,6 hPa 0,0 l/m 4,6 km/h (1 Bft) NO 34 0 min 0,000 mm 0,0 UV-I 0 W/m 10,8 C 12,1 C 8,0 km/h (2 Bft) 95,74 %
02.09.2017 03:26 12,1 C 21,7 C 92 % 1015,6 hPa 0,0 l/m 3,9 km/h (1 Bft) N-NO 23 0 min 0,000 mm 0,0 UV-I 0 W/m 10,8 C 12,1 C 8,0 km/h (2 Bft) 100,00 %
02.09.2017 03:28 12,1 C 21,7 C 92 % 1015,6 hPa 0,0 l/m 3,8 km/h (1 Bft) NO 36 0 min 0,000 mm 0,0 UV-I 0 W/m 10,8 C 12,1 C 8,0 km/h (2 Bft) 98,00 %
02.09.2017 03:30 12,0 C 21,7 C 92 % 1015,6 hPa 0,0 l/m 6,3 km/h (2 Bft) NO 49 0 min 0,000 mm 0,0 UV-I 0 W/m 10,7 C 12,0 C 9,7 km/h (2 Bft) 97,87 %
02.09.2017 03:32 12,0 C 21,7 C 92 % 1015,7 hPa 0,0 l/m 4,3 km/h (1 Bft) N-NO 30 0 min 0,000 mm 0,0 UV-I 0 W/m 10,7 C 12,0 C 8,0 km/h (2 Bft) 100,00 %
02.09.2017 03:34 12,0 C 21,7 C 92 % 1015,7 hPa 0,0 l/m 4,7 km/h (1 Bft) N-NO 29 0 min 0,000 mm 0,0 UV-I 0 W/m 10,7 C 12,0 C 6,4 km/h (2 Bft) 100,00 %
02.09.2017 03:36 12,0 C 21,7 C 92 % 1015,7 hPa 0,0 l/m 5,2 km/h (1 Bft) N-NO 28 0 min 0,000 mm 0,0 UV-I 0 W/m 10,7 C 12,0 C 8,0 km/h (2 Bft) 100,00 %
02.09.2017 03:38 12,0 C 21,7 C 92 % 1015,6 hPa 0,0 l/m 5,4 km/h (1 Bft) NO 34 0 min 0,000 mm 0,0 UV-I 0 W/m 10,7 C 12,0 C 8,0 km/h (2 Bft) 100,00 %
02.09.2017 03:40 11,9 C 21,7 C 92 % 1015,6 hPa 0,0 l/m 5,0 km/h (1 Bft) N-NO 24 0 min 0,000 mm 0,0 UV-I 0 W/m 10,6 C 11,9 C 6,4 km/h (2 Bft) 97,87 %
02.09.2017 03:42 11,9 C 21,7 C 92 % 1015,5 hPa 0,0 l/m 5,6 km/h (1 Bft) NO 35 0 min 0,000 mm 0,0 UV-I 0 W/m 10,6 C 11,9 C 8,0 km/h (2 Bft) 100,00 %
02.09.2017 03:44 11,9 C 21,7 C 91 % 1015,5 hPa 0,0 l/m 6,0 km/h (2 Bft) N-NO 17 0 min 0,000 mm 0,0 UV-I 0 W/m 10,5 C 11,9 C 9,7 km/h (2 Bft) 97,87 %
02.09.2017 03:46 11,9 C 21,7 C 91 % 1015,4 hPa 0,0 l/m 7,5 km/h (2 Bft) N-NO 22 0 min 0,000 mm 0,0 UV-I 0 W/m 10,5 C 11,2 C 11,3 km/h (2 Bft) 100,00 %
02.09.2017 03:48 11,9 C 21,7 C 91 % 1015,4 hPa 0,0 l/m 5,8 km/h (2 Bft) N-NO 24 0 min 0,000 mm 0,0 UV-I 0 W/m 10,5 C 11,9 C 11,3 km/h (2 Bft) 95,74 %
02.09.2017 03:50 11,9 C 21,7 C 91 % 1015,5 hPa 0,0 l/m 3,7 km/h (1 Bft) N-NO 28 0 min 0,000 mm 0,0 UV-I 0 W/m 10,5 C 11,9 C 6,4 km/h (2 Bft) 97,87 %
02.09.2017 03:52 11,9 C 21,7 C 92 % 1015,5 hPa 0,0 l/m 5,4 km/h (1 Bft) N-NO 28 0 min 0,000 mm 0,0 UV-I 0 W/m 10,6 C 11,9 C 8,0 km/h (2 Bft) 91,43 %
02.09.2017 03:54 11,9 C 21,7 C 92 % 1015,5 hPa 0,0 l/m 4,8 km/h (1 Bft) NO 40 0 min 0,000 mm 0,0 UV-I 0 W/m 10,6 C 11,9 C 6,4 km/h (2 Bft) 96,00 %
02.09.2017 03:56 11,9 C 21,7 C 92 % 1015,4 hPa 0,0 l/m 3,2 km/h (1 Bft) N-NO 33 0 min 0,000 mm 0,0 UV-I 0 W/m 10,6 C 11,9 C 6,4 km/h (2 Bft) 95,74 %
02.09.2017 03:58 11,9 C 21,7 C 92 % 1015,4 hPa 0,0 l/m 4,9 km/h (1 Bft) NO 46 0 min 0,000 mm 0,0 UV-I 0 W/m 10,6 C 11,9 C 6,4 km/h (2 Bft) 95,74 %
02.09.2017 04:00 11,9 C 21,7 C 92 % 1015,4 hPa 0,0 l/m 3,4 km/h (1 Bft) NO 46 0 min 0,000 mm 0,0 UV-I 0 W/m 10,6 C 11,9 C 4,8 km/h (1 Bft) 97,87 %
02.09.2017 04:02 11,9 C 21,7 C 92 % 1015,4 hPa 0,0 l/m 3,3 km/h (1 Bft) NO 46 0 min 0,000 mm 0,0 UV-I 0 W/m 10,6 C 11,9 C 4,8 km/h (1 Bft) 100,00 %
02.09.2017 04:04 11,9 C 21,7 C 92 % 1015,4 hPa 0,0 l/m 4,9 km/h (1 Bft) NO 46 0 min 0,000 mm 0,0 UV-I 0 W/m 10,6 C 11,9 C 6,4 km/h (2 Bft) 95,74 %
02.09.2017 04:06 11,9 C 21,7 C 92 % 1015,4 hPa 0,0 l/m 4,1 km/h (1 Bft) NO 46 0 min 0,000 mm 0,0 UV-I 0 W/m 10,6 C 11,9 C 6,4 km/h (2 Bft) 97,87 %
02.09.2017 04:08 11,9 C 21,7 C 92 % 1015,4 hPa 0,0 l/m 3,7 km/h (1 Bft) NO 46 0 min 0,000 mm 0,0 UV-I 0 W/m 10,6 C 11,9 C 4,8 km/h (1 Bft) 94,00 %
02.09.2017 04:10 11,9 C 21,7 C 92 % 1015,4 hPa 0,0 l/m 3,3 km/h (1 Bft) NO 46 0 min 0,000 mm 0,0 UV-I 0 W/m 10,6 C 11,9 C 4,8 km/h (1 Bft) 98,00 %
02.09.2017 04:12 11,9 C 21,7 C 92 % 1015,3 hPa 0,0 l/m 3,4 km/h (1 Bft) N-NO 24 0 min 0,000 mm 0,0 UV-I 0 W/m 10,6 C 11,9 C 4,8 km/h (1 Bft) 97,87 %
02.09.2017 04:14 11,9 C 21,7 C 92 % 1015,3 hPa 0,0 l/m 4,3 km/h (1 Bft) N-NO 32 0 min 0,000 mm 0,0 UV-I 0 W/m 10,6 C 11,9 C 6,4 km/h (2 Bft) 97,87 %
02.09.2017 04:16 11,8 C 21,7 C 92 % 1015,3 hPa 0,0 l/m 4,0 km/h (1 Bft) NO 36 0 min 0,000 mm 0,0 UV-I 0 W/m 10,5 C 11,8 C 6,4 km/h (2 Bft) 95,74 %
02.09.2017 04:18 11,8 C 21,1 C 92 % 1015,3 hPa 0,0 l/m 4,8 km/h (1 Bft) NO 36 0 min 0,000 mm 0,0 UV-I 0 W/m 10,5 C 11,8 C 8,0 km/h (2 Bft) 97,87 %
02.09.2017 04:20 11,8 C 21,1 C 91 % 1015,3 hPa 0,0 l/m 3,9 km/h (1 Bft) NO 36 0 min 0,000 mm 0,0 UV-I 0 W/m 10,4 C 11,8 C 6,4 km/h (2 Bft) 97,37 %
02.09.2017 04:22 11,8 C 21,1 C 91 % 1015,3 hPa 0,0 l/m 2,6 km/h (1 Bft) NO 36 0 min 0,000 mm 0,0 UV-I 0 W/m 10,4 C 11,8 C 4,8 km/h (1 Bft) 97,87 %
02.09.2017 04:24 11,8 C 21,1 C 91 % 1015,4 hPa 0,0 l/m 2,9 km/h (1 Bft) NO 36 0 min 0,000 mm 0,0 UV-I 0 W/m 10,4 C 11,8 C 4,8 km/h (1 Bft) 96,00 %
02.09.2017 04:26 11,8 C 21,1 C 91 % 1015,4 hPa 0,0 l/m 1,2 km/h (1 Bft) NO 36 0 min 0,000 mm 0,0 UV-I 0 W/m 10,4 C 11,8 C 3,2 km/h (1 Bft) 97,87 %
02.09.2017 04:28 11,7 C 21,1 C 91 % 1015,4 hPa 0,0 l/m 2,0 km/h (1 Bft) NO 36 0 min 0,000 mm 0,0 UV-I 0 W/m 10,3 C 11,7 C 3,2 km/h (1 Bft) 95,74 %
02.09.2017 04:30 11,7 C 21,1 C 91 % 1015,5 hPa 0,0 l/m 1,5 km/h (1 Bft) NO 36 0 min 0,000 mm 0,0 UV-I 0 W/m 10,3 C 11,7 C 3,2 km/h (1 Bft) 97,87 %
02.09.2017 04:32 11,7 C 21,1 C 91 % 1015,4 hPa 0,0 l/m 2,1 km/h (1 Bft) NO 36 0 min 0,000 mm 0,0 UV-I 0 W/m 10,3 C 11,7 C 3,2 km/h (1 Bft) 97,87 %
02.09.2017 04:34 11,7 C 21,1 C 91 % 1015,4 hPa 0,0 l/m 1,4 km/h (1 Bft) NO 36 0 min 0,000 mm 0,0 UV-I 0 W/m 10,3 C 11,7 C 1,6 km/h (1 Bft) 97,87 %
02.09.2017 04:36 11,7 C 21,1 C 91 % 1015,4 hPa 0,0 l/m 0,8 km/h (0 Bft) NO 36 0 min 0,000 mm 0,0 UV-I 0 W/m 10,3 C 11,7 C 3,2 km/h (1 Bft) 97,87 %
02.09.2017 04:38 11,7 C 21,1 C 91 % 1015,4 hPa 0,0 l/m 1,8 km/h (1 Bft) NO 36 0 min 0,000 mm 0,0 UV-I 0 W/m 10,3 C 11,7 C 3,2 km/h (1 Bft) 98,00 %
02.09.2017 04:40 11,7 C 21,1 C 91 % 1015,3 hPa 0,0 l/m 2,1 km/h (1 Bft) NO 36 0 min 0,000 mm 0,0 UV-I 0 W/m 10,3 C 11,7 C 3,2 km/h (1 Bft) 97,87 %
02.09.2017 04:42 11,7 C 21,1 C 91 % 1015,3 hPa 0,0 l/m 2,9 km/h (1 Bft) NO 36 0 min 0,000 mm 0,0 UV-I 0 W/m 10,3 C 11,7 C 4,8 km/h (1 Bft) 97,87 %
02.09.2017 04:44 11,7 C 21,1 C 91 % 1015,3 hPa 0,0 l/m 3,5 km/h (1 Bft) NO 36 0 min 0,000 mm 0,0 UV-I 0 W/m 10,3 C 11,7 C 4,8 km/h (1 Bft) 100,00 %
02.09.2017 04:46 11,7 C 21,1 C 91 % 1015,3 hPa 0,0 l/m 2,2 km/h (1 Bft) NO 36 0 min 0,000 mm 0,0 UV-I 0 W/m 10,3 C 11,7 C 4,8 km/h (1 Bft) 100,00 %
02.09.2017 04:48 11,7 C 21,1 C 91 % 1015,3 hPa 0,0 l/m 0,2 km/h (0 Bft) NO 36 0 min 0,000 mm 0,0 UV-I 0 W/m 10,3 C 11,7 C 1,6 km/h (1 Bft) 100,00 %
02.09.2017 04:50 11,7 C 21,1 C 91 % 1015,4 hPa 0,0 l/m 1,2 km/h (1 Bft) NO 36 0 min 0,000 mm 0,0 UV-I 0 W/m 10,3 C 11,7 C 3,2 km/h (1 Bft) 97,87 %
02.09.2017 04:52 11,7 C 21,1 C 91 % 1015,5 hPa 0,0 l/m 0,3 km/h (0 Bft) NO 36 0 min 0,000 mm 0,0 UV-I 0 W/m 10,3 C 11,7 C 1,6 km/h (1 Bft) 94,00 %
02.09.2017 04:54 11,7 C 21,1 C 91 % 1015,5 hPa 0,0 l/m 0,1 km/h (0 Bft) NO 36 0 min 0,000 mm 0,0 UV-I 0 W/m 10,3 C 11,7 C 1,6 km/h (1 Bft) 100,00 %
02.09.2017 04:56 11,7 C 21,1 C 91 % 1015,4 hPa 0,0 l/m 0,0 km/h (0 Bft) NO 36 0 min 0,000 mm 0,0 UV-I 0 W/m 10,3 C 11,7 C 0,0 km/h (0 Bft) 93,62 %
02.09.2017 04:58 11,7 C 21,1 C 91 % 1015,4 hPa 0,0 l/m 0,4 km/h (0 Bft) NO 36 0 min 0,000 mm 0,0 UV-I 0 W/m 10,3 C 11,7 C 3,2 km/h (1 Bft) 97,87 %
02.09.2017 05:00 11,7 C 21,1 C 92 % 1015,4 hPa 0,0 l/m 0,1 km/h (0 Bft) NO 36 0 min 0,000 mm 0,0 UV-I 0 W/m 10,4 C 11,7 C 1,6 km/h (1 Bft) 97,87 %
02.09.2017 05:02 11,7 C 21,1 C 92 % 1015,5 hPa 0,0 l/m 1,3 km/h (1 Bft) NO 36 0 min 0,000 mm 0,0 UV-I 0 W/m 10,4 C 11,7 C 3,2 km/h (1 Bft) 97,87 %
02.09.2017 05:04 11,7 C 21,1 C 92 % 1015,5 hPa 0,0 l/m 2,0 km/h (1 Bft) NO 36 0 min 0,000 mm 0,0 UV-I 0 W/m 10,4 C 11,7 C 3,2 km/h (1 Bft) 97,87 %
02.09.2017 05:06 11,7 C 21,1 C 92 % 1015,5 hPa 0,0 l/m 1,7 km/h (1 Bft) NO 36 0 min 0,000 mm 0,0 UV-I 0 W/m 10,4 C 11,7 C 3,2 km/h (1 Bft) 97,87 %
02.09.2017 05:08 11,7 C 21,1 C 92 % 1015,5 hPa 0,0 l/m 2,1 km/h (1 Bft) NO 36 0 min 0,000 mm 0,0 UV-I 0 W/m 10,4 C 11,7 C 3,2 km/h (1 Bft) 97,37 %
02.09.2017 05:10 11,7 C 21,1 C 92 % 1015,5 hPa 0,0 l/m 1,4 km/h (1 Bft) NO 36 0 min 0,000 mm 0,0 UV-I 0 W/m 10,4 C 11,7 C 3,2 km/h (1 Bft) 97,87 %
02.09.2017 05:12 11,7 C 21,1 C 92 % 1015,4 hPa 0,0 l/m 0,6 km/h (0 Bft) NO 36 0 min 0,000 mm 0,0 UV-I 0 W/m 10,4 C 11,7 C 1,6 km/h (1 Bft) 91,49 %
02.09.2017 05:14 11,7 C 21,1 C 92 % 1015,5 hPa 0,0 l/m 0,3 km/h (0 Bft) NO 36 0 min 0,000 mm 0,0 UV-I 0 W/m 10,4 C 11,7 C 1,6 km/h (1 Bft) 95,74 %
02.09.2017 05:16 11,7 C 21,1 C 92 % 1015,5 hPa 0,0 l/m 2,2 km/h (1 Bft) NO 36 0 min 0,000 mm 0,0 UV-I 0 W/m 10,4 C 11,7 C 4,8 km/h (1 Bft) 97,87 %
02.09.2017 05:18 11,7 C 21,1 C 92 % 1015,4 hPa 0,0 l/m 2,1 km/h (1 Bft) NO 36 0 min 0,000 mm 0,0 UV-I 0 W/m 10,4 C 11,7 C 3,2 km/h (1 Bft) 97,87 %
02.09.2017 05:20 11,7 C 21,1 C 92 % 1015,3 hPa 0,0 l/m 2,2 km/h (1 Bft) NO 36 0 min 0,000 mm 0,0 UV-I 0 W/m 10,4 C 11,7 C 3,2 km/h (1 Bft) 97,92 %
02.09.2017 05:22 11,7 C 21,1 C 92 % 1015,4 hPa 0,0 l/m 2,4 km/h (1 Bft) NO 36 0 min 0,000 mm 0,0 UV-I 0 W/m 10,4 C 11,7 C 3,2 km/h (1 Bft) 97,87 %
02.09.2017 05:24 11,7 C 21,1 C 92 % 1015,3 hPa 0,0 l/m 2,3 km/h (1 Bft) NO 36 0 min 0,000 mm 0,0 UV-I 0 W/m 10,4 C 11,7 C 4,8 km/h (1 Bft) 97,87 %
02.09.2017 05:26 11,7 C 21,1 C 93 % 1015,3 hPa 0,0 l/m 3,2 km/h (1 Bft) NO 36 0 min 0,000 mm 0,0 UV-I 0 W/m 10,6 C 11,7 C 4,8 km/h (1 Bft) 97,87 %
02.09.2017 05:28 11,7 C 21,1 C 93 % 1015,2 hPa 0,0 l/m 3,5 km/h (1 Bft) NO 36 0 min 0,000 mm 0,0 UV-I 0 W/m 10,6 C 11,7 C 4,8 km/h (1 Bft) 97,87 %
02.09.2017 05:30 11,7 C 21,1 C 93 % 1015,2 hPa 0,0 l/m 4,7 km/h (1 Bft) N-NO 28 0 min 0,000 mm 0,0 UV-I 0 W/m 10,6 C 11,7 C 6,4 km/h (2 Bft) 100,00 %
02.09.2017 05:32 11,7 C 21,1 C 93 % 1015,1 hPa 0,0 l/m 5,0 km/h (1 Bft) N-NO 28 0 min 0,000 mm 0,0 UV-I 0 W/m 10,6 C 11,7 C 6,4 km/h (2 Bft) 100,00 %
02.09.2017 05:34 11,6 C 21,1 C 93 % 1015,0 hPa 0,0 l/m 5,6 km/h (1 Bft) N-NO 23 0 min 0,000 mm 0,0 UV-I 0 W/m 10,5 C 11,6 C 6,4 km/h (2 Bft) 97,87 %
02.09.2017 05:36 11,6 C 21,1 C 92 % 1015,0 hPa 0,0 l/m 5,8 km/h (2 Bft) N-NO 23 0 min 0,000 mm 0,0 UV-I 0 W/m 10,3 C 11,6 C 8,0 km/h (2 Bft) 95,74 %
02.09.2017 05:38 11,6 C 21,1 C 92 % 1015,0 hPa 0,0 l/m 4,9 km/h (1 Bft) N-NO 32 0 min 0,000 mm 0,0 UV-I 0 W/m 10,3 C 11,6 C 6,4 km/h (2 Bft) 100,00 %
02.09.2017 05:40 11,6 C 21,1 C 92 % 1015,0 hPa 0,0 l/m 3,2 km/h (1 Bft) N-NO 32 0 min 0,000 mm 0,0 UV-I 0 W/m 10,3 C 11,6 C 4,8 km/h (1 Bft) 100,00 %
02.09.2017 05:42 11,6 C 21,1 C 92 % 1015,0 hPa 0,0 l/m 4,0 km/h (1 Bft) NO 34 0 min 0,000 mm 0,0 UV-I 0 W/m 10,3 C 11,6 C 6,4 km/h (2 Bft) 97,87 %
02.09.2017 05:44 11,6 C 21,1 C 92 % 1015,0 hPa 0,0 l/m 4,4 km/h (1 Bft) NO 34 0 min 0,000 mm 0,0 UV-I 0 W/m 10,3 C 11,6 C 4,8 km/h (1 Bft) 97,87 %
02.09.2017 05:46 11,5 C 21,1 C 92 % 1015,0 hPa 0,0 l/m 3,7 km/h (1 Bft) NO 34 0 min 0,000 mm 0,0 UV-I 0 W/m 10,2 C 11,5 C 4,8 km/h (1 Bft) 100,00 %
02.09.2017 05:48 11,5 C 21,1 C 92 % 1015,1 hPa 0,0 l/m 3,3 km/h (1 Bft) NO 34 0 min 0,000 mm 0,0 UV-I 0 W/m 10,2 C 11,5 C 4,8 km/h (1 Bft) 100,00 %
02.09.2017 05:50 11,5 C 21,1 C 92 % 1015,1 hPa 0,0 l/m 3,3 km/h (1 Bft) NO 34 0 min 0,000 mm 0,0 UV-I 0 W/m 10,2 C 11,5 C 4,8 km/h (1 Bft) 95,74 %
02.09.2017 05:52 11,5 C 21,1 C 92 % 1015,1 hPa 0,0 l/m 2,8 km/h (1 Bft) NO 34 0 min 0,000 mm 0,0 UV-I 0 W/m 10,2 C 11,5 C 4,8 km/h (1 Bft) 100,00 %
02.09.2017 05:54 11,5 C 21,1 C 92 % 1015,1 hPa 0,0 l/m 1,5 km/h (1 Bft) NO 34 0 min 0,000 mm 0,0 UV-I 0 W/m 10,2 C 11,5 C 3,2 km/h (1 Bft) 100,00 %
02.09.2017 05:56 11,5 C 21,1 C 92 % 1015,1 hPa 0,0 l/m 2,5 km/h (1 Bft) NO 34 0 min 0,000 mm 0,0 UV-I 0 W/m 10,2 C 11,5 C 4,8 km/h (1 Bft) 100,00 %
02.09.2017 05:58 11,5 C 21,1 C 92 % 1015,1 hPa 0,0 l/m 1,2 km/h (1 Bft) NO 34 0 min 0,000 mm 0,0 UV-I 0 W/m 10,2 C 11,5 C 3,2 km/h (1 Bft) 100,00 %
02.09.2017 06:00 11,4 C 21,1 C 92 % 1015,1 hPa 0,0 l/m 0,1 km/h (0 Bft) NO 34 0 min 0,000 mm 0,0 UV-I 0 W/m 10,1 C 11,4 C 1,6 km/h (1 Bft) 100,00 %
02.09.2017 06:02 11,5 C 21,1 C 92 % 1015,2 hPa 0,0 l/m 0,0 km/h (0 Bft) NO 34 0 min 0,000 mm 0,0 UV-I 0 W/m 10,2 C 11,5 C 0,0 km/h (0 Bft) 100,00 %
02.09.2017 06:04 11,5 C 21,1 C 92 % 1015,1 hPa 0,0 l/m 0,0 km/h (0 Bft) NO 34 0 min 0,000 mm 0,0 UV-I 0 W/m 10,2 C 11,5 C 0,0 km/h (0 Bft) 100,00 %
02.09.2017 06:06 11,5 C 21,1 C 92 % 1015,2 hPa 0,0 l/m 0,2 km/h (0 Bft) NO 34 0 min 0,000 mm 0,0 UV-I 0 W/m 10,2 C 11,5 C 1,6 km/h (1 Bft) 100,00 %
02.09.2017 06:08 11,5 C 21,1 C 92 % 1015,2 hPa 0,0 l/m 2,1 km/h (1 Bft) NO 34 0 min 0,000 mm 0,0 UV-I 3 W/m 10,2 C 11,5 C 3,2 km/h (1 Bft) 100,00 %
02.09.2017 06:10 11,5 C 21,1 C 92 % 1015,2 hPa 0,0 l/m 1,5 km/h (1 Bft) NO 34 0 min 0,000 mm 0,0 UV-I 5 W/m 10,2 C 11,5 C 3,2 km/h (1 Bft) 97,87 %
02.09.2017 06:12 11,5 C 21,1 C 92 % 1015,2 hPa 0,0 l/m 3,3 km/h (1 Bft) NO 34 0 min 0,000 mm 0,0 UV-I 5 W/m 10,2 C 11,5 C 4,8 km/h (1 Bft) 97,87 %
02.09.2017 06:14 11,5 C 21,1 C 92 % 1015,2 hPa 0,0 l/m 2,7 km/h (1 Bft) NO 34 0 min 0,000 mm 0,0 UV-I 5 W/m 10,2 C 11,5 C 4,8 km/h (1 Bft) 100,00 %
02.09.2017 06:16 11,5 C 21,1 C 93 % 1015,2 hPa 0,0 l/m 2,5 km/h (1 Bft) NO 34 0 min 0,000 mm 0,0 UV-I 5 W/m 10,4 C 11,5 C 3,2 km/h (1 Bft) 100,00 %
02.09.2017 06:18 11,5 C 21,1 C 93 % 1015,2 hPa 0,0 l/m 2,0 km/h (1 Bft) NO 34 0 min 0,000 mm 0,0 UV-I 5 W/m 10,4 C 11,5 C 3,2 km/h (1 Bft) 100,00 %
02.09.2017 06:20 11,4 C 21,1 C 92 % 1015,3 hPa 0,0 l/m 2,6 km/h (1 Bft) NO 34 0 min 0,000 mm 0,0 UV-I 5 W/m 10,1 C 11,4 C 4,8 km/h (1 Bft) 100,00 %
02.09.2017 06:22 11,4 C 21,1 C 92 % 1015,2 hPa 0,0 l/m 1,3 km/h (1 Bft) NO 34 0 min 0,000 mm 0,0 UV-I 5 W/m 10,1 C 11,4 C 3,2 km/h (1 Bft) 100,00 %
02.09.2017 06:24 11,4 C 21,1 C 92 % 1015,2 hPa 0,0 l/m 1,7 km/h (1 Bft) NO 34 0 min 0,000 mm 0,0 UV-I 5 W/m 10,1 C 11,4 C 3,2 km/h (1 Bft) 100,00 %
02.09.2017 06:26 11,4 C 21,1 C 92 % 1015,2 hPa 0,0 l/m 1,2 km/h (1 Bft) NO 34 0 min 0,000 mm 0,0 UV-I 6 W/m 10,1 C 11,4 C 3,2 km/h (1 Bft) 100,00 %
02.09.2017 06:28 11,4 C 21,1 C 92 % 1015,2 hPa 0,0 l/m 2,1 km/h (1 Bft) NO 34 0 min 0,000 mm 0,0 UV-I 7 W/m 10,1 C 11,4 C 3,2 km/h (1 Bft) 100,00 %
02.09.2017 06:30 11,3 C 21,1 C 92 % 1015,1 hPa 0,0 l/m 1,7 km/h (1 Bft) NO 34 0 min 0,000 mm 0,0 UV-I 7 W/m 10,0 C 11,3 C 3,2 km/h (1 Bft) 100,00 %
02.09.2017 06:32 11,3 C 21,1 C 92 % 1015,1 hPa 0,0 l/m 1,3 km/h (1 Bft) NO 34 0 min 0,000 mm 0,0 UV-I 7 W/m 10,0 C 11,3 C 3,2 km/h (1 Bft) 100,00 %
02.09.2017 06:34 11,3 C 21,1 C 92 % 1015,0 hPa 0,0 l/m 0,5 km/h (0 Bft) NO 34 0 min 0,000 mm 0,0 UV-I 7 W/m 10,0 C 11,3 C 1,6 km/h (1 Bft) 100,00 %
02.09.2017 06:36 11,3 C 21,1 C 92 % 1015,0 hPa 0,0 l/m 1,8 km/h (1 Bft) NO 34 0 min 0,000 mm 0,0 UV-I 9 W/m 10,0 C 11,3 C 3,2 km/h (1 Bft) 100,00 %
02.09.2017 06:38 11,3 C 21,1 C 92 % 1015,0 hPa 0,0 l/m 1,4 km/h (1 Bft) NO 34 0 min 0,000 mm 0,0 UV-I 9 W/m 10,0 C 11,3 C 3,2 km/h (1 Bft) 100,00 %
02.09.2017 06:40 11,3 C 21,1 C 92 % 1015,0 hPa 0,0 l/m 0,3 km/h (0 Bft) NO 34 0 min 0,000 mm 0,0 UV-I 9 W/m 10,0 C 11,3 C 3,2 km/h (1 Bft) 100,00 %
02.09.2017 06:42 11,4 C 21,1 C 92 % 1014,9 hPa 0,0 l/m 0,6 km/h (0 Bft) NO 34 0 min 0,000 mm 0,0 UV-I 10 W/m 10,1 C 11,4 C 3,2 km/h (1 Bft) 97,92 %
02.09.2017 06:44 11,4 C 21,1 C 93 % 1014,9 hPa 0,0 l/m 3,4 km/h (1 Bft) NO 34 0 min 0,000 mm 0,0 UV-I 11 W/m 10,3 C 11,4 C 4,8 km/h (1 Bft) 100,00 %
02.09.2017 06:46 11,4 C 21,1 C 93 % 1014,9 hPa 0,0 l/m 3,6 km/h (1 Bft) NO 34 0 min 0,000 mm 0,0 UV-I 12 W/m 10,3 C 11,4 C 4,8 km/h (1 Bft) 100,00 %
02.09.2017 06:48 11,4 C 21,1 C 93 % 1014,9 hPa 0,0 l/m 1,6 km/h (1 Bft) NO 34 0 min 0,000 mm 0,0 UV-I 14 W/m 10,3 C 11,4 C 4,8 km/h (1 Bft) 97,87 %
02.09.2017 06:50 11,4 C 21,1 C 93 % 1014,9 hPa 0,0 l/m 0,8 km/h (0 Bft) NO 34 0 min 0,000 mm 0,0 UV-I 15 W/m 10,3 C 11,4 C 3,2 km/h (1 Bft) 97,87 %
02.09.2017 06:52 11,4 C 21,1 C 93 % 1015,0 hPa 0,0 l/m 0,6 km/h (0 Bft) NO 34 0 min 0,000 mm 0,0 UV-I 16 W/m 10,3 C 11,4 C 3,2 km/h (1 Bft) 100,00 %
02.09.2017 06:54 11,4 C 21,1 C 93 % 1015,1 hPa 0,0 l/m 0,3 km/h (0 Bft) NO 34 0 min 0,000 mm 0,0 UV-I 16 W/m 10,3 C 11,4 C 1,6 km/h (1 Bft) 95,74 %
02.09.2017 06:56 11,4 C 21,1 C 93 % 1015,2 hPa 0,0 l/m 0,3 km/h (0 Bft) NO 34 0 min 0,000 mm 0,0 UV-I 17 W/m 10,3 C 11,4 C 1,6 km/h (1 Bft) 97,92 %
02.09.2017 06:58 11,4 C 21,1 C 93 % 1015,1 hPa 0,0 l/m 1,5 km/h (1 Bft) NO 34 0 min 0,000 mm 0,0 UV-I 18 W/m 10,3 C 11,4 C 3,2 km/h (1 Bft) 97,87 %
02.09.2017 07:00 11,4 C 21,1 C 93 % 1015,0 hPa 0,0 l/m 0,2 km/h (0 Bft) NO 34 0 min 0,000 mm 0,0 UV-I 21 W/m 10,3 C 11,4 C 1,6 km/h (1 Bft) 93,62 %
02.09.2017 07:02 11,5 C 21,1 C 93 % 1015,1 hPa 0,0 l/m 0,0 km/h (0 Bft) NO 34 0 min 0,000 mm 0,0 UV-I 25 W/m 10,4 C 11,5 C 0,0 km/h (0 Bft) 95,74 %
02.09.2017 07:04 11,5 C 21,1 C 93 % 1015,1 hPa 0,0 l/m 0,0 km/h (0 Bft) NO 34 0 min 0,000 mm 0,0 UV-I 28 W/m 10,4 C 11,5 C 0,0 km/h (0 Bft) 97,87 %
02.09.2017 07:06 11,5 C 21,1 C 93 % 1015,0 hPa 0,0 l/m 0,0 km/h (0 Bft) NO 34 0 min 0,000 mm 0,0 UV-I 32 W/m 10,4 C 11,5 C 0,0 km/h (0 Bft) 93,62 %
02.09.2017 07:08 11,5 C 21,1 C 93 % 1015,0 hPa 0,0 l/m 0,0 km/h (0 Bft) NO 34 0 min 0,000 mm 0,0 UV-I 34 W/m 10,4 C 11,5 C 0,0 km/h (0 Bft) 93,62 %
02.09.2017 07:10 11,5 C 21,1 C 93 % 1015,0 hPa 0,0 l/m 0,0 km/h (0 Bft) NO 34 0 min 0,000 mm 0,0 UV-I 37 W/m 10,4 C 11,5 C 0,0 km/h (0 Bft) 95,74 %
02.09.2017 07:12 11,5 C 21,1 C 93 % 1015,0 hPa 0,0 l/m 0,0 km/h (0 Bft) NO 34 0 min 0,000 mm 0,0 UV-I 41 W/m 10,4 C 11,5 C 0,0 km/h (0 Bft) 95,74 %
02.09.2017 07:14 11,5 C 21,1 C 93 % 1015,1 hPa 0,0 l/m 0,0 km/h (0 Bft) NO 34 0 min 0,000 mm 0,0 UV-I 43 W/m 10,4 C 11,5 C 1,6 km/h (1 Bft) 91,49 %
02.09.2017 07:16 11,6 C 21,1 C 93 % 1015,1 hPa 0,0 l/m 1,5 km/h (1 Bft) NO 34 0 min 0,000 mm 0,0 UV-I 46 W/m 10,5 C 11,6 C 3,2 km/h (1 Bft) 94,74 %
02.09.2017 07:18 11,6 C 21,1 C 93 % 1015,1 hPa 0,0 l/m 0,3 km/h (0 Bft) NO 34 0 min 0,000 mm 0,0 UV-I 48 W/m 10,5 C 11,6 C 1,6 km/h (1 Bft) 94,00 %
02.09.2017 07:20 11,6 C 21,1 C 93 % 1015,0 hPa 0,0 l/m 0,0 km/h (0 Bft) NO 34 0 min 0,000 mm 0,0 UV-I 53 W/m 10,5 C 11,6 C 0,0 km/h (0 Bft) 93,75 %
02.09.2017 07:22 11,7 C 21,1 C 93 % 1015,1 hPa 0,0 l/m 0,0 km/h (0 Bft) NO 34 0 min 0,000 mm 0,0 UV-I 54 W/m 10,6 C 11,7 C 0,0 km/h (0 Bft) 96,00 %
02.09.2017 07:24 11,7 C 21,1 C 93 % 1015,1 hPa 0,0 l/m 0,0 km/h (0 Bft) NO 34 0 min 0,000 mm 0,0 UV-I 54 W/m 10,6 C 11,7 C 0,0 km/h (0 Bft) 95,74 %
02.09.2017 07:26 11,7 C 21,1 C 93 % 1015,1 hPa 0,0 l/m 0,0 km/h (0 Bft) NO 34 0 min 0,000 mm 0,0 UV-I 53 W/m 10,6 C 11,7 C 0,0 km/h (0 Bft) 93,62 %
02.09.2017 07:28 11,7 C 21,1 C 93 % 1015,2 hPa 0,0 l/m 0,0 km/h (0 Bft) NO 34 0 min 0,000 mm 0,0 UV-I 48 W/m 10,6 C 11,7 C 0,0 km/h (0 Bft) 97,87 %
02.09.2017 07:30 11,7 C 21,1 C 92 % 1015,1 hPa 0,0 l/m 0,0 km/h (0 Bft) NO 34 0 min 0,000 mm 0,0 UV-I 43 W/m 10,4 C 11,7 C 0,0 km/h (0 Bft) 93,62 %
02.09.2017 07:32 11,7 C 21,1 C 92 % 1015,1 hPa 0,0 l/m 0,0 km/h (0 Bft) NO 34 0 min 0,000 mm 0,0 UV-I 39 W/m 10,4 C 11,7 C 0,0 km/h (0 Bft) 95,74 %
02.09.2017 07:34 11,7 C 21,1 C 91 % 1015,2 hPa 0,0 l/m 0,0 km/h (0 Bft) NO 34 0 min 0,000 mm 0,0 UV-I 36 W/m 10,3 C 11,7 C 0,0 km/h (0 Bft) 97,44 %
02.09.2017 07:36 11,7 C 21,1 C 91 % 1015,1 hPa 0,0 l/m 0,0 km/h (0 Bft) NO 34 0 min 0,000 mm 0,0 UV-I 35 W/m 10,3 C 11,7 C 0,0 km/h (0 Bft) 93,62 %
02.09.2017 07:38 11,7 C 21,1 C 91 % 1015,1 hPa 0,0 l/m 0,0 km/h (0 Bft) NO 34 0 min 0,000 mm 0,0 UV-I 33 W/m 10,3 C 11,7 C 0,0 km/h (0 Bft) 97,87 %
02.09.2017 07:40 11,7 C 21,1 C 91 % 1015,1 hPa 0,0 l/m 0,0 km/h (0 Bft) NO 34 0 min 0,000 mm 0,0 UV-I 36 W/m 10,3 C 11,7 C 0,0 km/h (0 Bft) 97,87 %
02.09.2017 07:42 11,7 C 21,1 C 91 % 1015,1 hPa 0,0 l/m 0,0 km/h (0 Bft) NO 34 0 min 0,000 mm 0,0 UV-I 41 W/m 10,3 C 11,7 C 0,0 km/h (0 Bft) 93,62 %
02.09.2017 07:44 11,7 C 21,1 C 91 % 1015,1 hPa 0,0 l/m 0,0 km/h (0 Bft) NO 34 0 min 0,000 mm 0,0 UV-I 48 W/m 10,3 C 11,7 C 1,6 km/h (1 Bft) 93,62 %
02.09.2017 07:46 11,8 C 21,1 C 91 % 1015,1 hPa 0,0 l/m 0,0 km/h (0 Bft) NO 34 0 min 0,000 mm 0,0 UV-I 53 W/m 10,4 C 11,8 C 1,6 km/h (1 Bft) 97,87 %
02.09.2017 07:48 11,8 C 21,1 C 91 % 1015,0 hPa 0,0 l/m 0,4 km/h (0 Bft) NO 34 0 min 0,000 mm 0,0 UV-I 46 W/m 10,4 C 11,8 C 3,2 km/h (1 Bft) 94,00 %
02.09.2017 07:50 11,8 C 21,1 C 91 % 1015,1 hPa 0,0 l/m 0,7 km/h (0 Bft) NO 34 0 min 0,000 mm 0,0 UV-I 59 W/m 10,4 C 11,8 C 3,2 km/h (1 Bft) 95,74 %
02.09.2017 07:52 11,8 C 21,1 C 91 % 1015,1 hPa 0,0 l/m 2,5 km/h (1 Bft) NO 34 0 min 0,000 mm 0,0 UV-I 61 W/m 10,4 C 11,8 C 4,8 km/h (1 Bft) 97,87 %
02.09.2017 07:54 11,8 C 21,1 C 91 % 1015,1 hPa 0,0 l/m 3,1 km/h (1 Bft) NO 34 0 min 0,000 mm 0,0 UV-I 62 W/m 10,4 C 11,8 C 4,8 km/h (1 Bft) 95,74 %
02.09.2017 07:56 11,8 C 21,1 C 91 % 1015,1 hPa 0,0 l/m 0,8 km/h (0 Bft) NO 34 0 min 0,000 mm 0,0 UV-I 63 W/m 10,4 C 11,8 C 3,2 km/h (1 Bft) 97,87 %
02.09.2017 07:58 11,8 C 21,1 C 91 % 1015,0 hPa 0,0 l/m 1,2 km/h (1 Bft) NO 34 0 min 0,000 mm 0,0 UV-I 69 W/m 10,4 C 11,8 C 4,8 km/h (1 Bft) 100,00 %
02.09.2017 08:00 11,8 C 21,1 C 91 % 1015,0 hPa 0,0 l/m 0,7 km/h (0 Bft) NO 34 0 min 0,025 mm 0,0 UV-I 75 W/m 10,4 C 11,8 C 3,2 km/h (1 Bft) 94,00 %
02.09.2017 08:02 11,9 C 21,1 C 91 % 1015,0 hPa 0,0 l/m 0,4 km/h (0 Bft) NO 34 0 min 0,000 mm 0,0 UV-I 79 W/m 10,5 C 11,9 C 1,6 km/h (1 Bft) 94,87 %
02.09.2017 08:04 11,9 C 21,1 C 91 % 1015,0 hPa 0,0 l/m 1,4 km/h (1 Bft) N-NO 15 0 min 0,000 mm 0,0 UV-I 84 W/m 10,5 C 11,9 C 6,4 km/h (2 Bft) 100,00 %
02.09.2017 08:06 11,9 C 21,1 C 91 % 1014,9 hPa 0,0 l/m 1,4 km/h (1 Bft) N-NO 15 0 min 0,000 mm 0,0 UV-I 90 W/m 10,5 C 11,9 C 6,4 km/h (2 Bft) 97,87 %
02.09.2017 08:08 11,9 C 21,1 C 91 % 1015,0 hPa 0,0 l/m 1,3 km/h (1 Bft) N-NO 15 0 min 0,000 mm 0,0 UV-I 91 W/m 10,5 C 11,9 C 4,8 km/h (1 Bft) 98,00 %
02.09.2017 08:10 11,9 C 21,1 C 91 % 1015,0 hPa 0,0 l/m 1,4 km/h (1 Bft) NO 40 0 min 0,000 mm 0,0 UV-I 85 W/m 10,5 C 11,9 C 4,8 km/h (1 Bft) 97,87 %
02.09.2017 08:12 11,9 C 21,1 C 90 % 1015,1 hPa 0,0 l/m 4,1 km/h (1 Bft) NO 35 0 min 0,000 mm 0,0 UV-I 77 W/m 10,3 C 11,9 C 6,4 km/h (2 Bft) 97,87 %
02.09.2017 08:14 11,9 C 21,1 C 90 % 1015,1 hPa 0,0 l/m 4,5 km/h (1 Bft) N-NO 30 0 min 0,000 mm 0,0 UV-I 72 W/m 10,3 C 11,9 C 8,0 km/h (2 Bft) 100,00 %
02.09.2017 08:16 12,0 C 21,1 C 90 % 1015,1 hPa 0,0 l/m 3,4 km/h (1 Bft) N-NO 24 0 min 0,000 mm 0,0 UV-I 72 W/m 10,4 C 12,0 C 6,4 km/h (2 Bft) 100,00 %
02.09.2017 08:18 11,9 C 21,1 C 90 % 1015,1 hPa 0,0 l/m 4,4 km/h (1 Bft) NO 38 0 min 0,000 mm 0,0 UV-I 74 W/m 10,3 C 11,9 C 6,4 km/h (2 Bft) 98,21 %
02.09.2017 08:20 12,0 C 21,1 C 90 % 1015,0 hPa 0,0 l/m 3,9 km/h (1 Bft) N-NO 13 0 min 0,000 mm 0,0 UV-I 81 W/m 10,4 C 12,0 C 8,0 km/h (2 Bft) 97,87 %
02.09.2017 08:22 12,1 C 21,1 C 90 % 1014,9 hPa 0,0 l/m 4,2 km/h (1 Bft) N-NO 15 0 min 0,000 mm 0,0 UV-I 90 W/m 10,5 C 12,1 C 8,0 km/h (2 Bft) 100,00 %
02.09.2017 08:24 12,1 C 21,1 C 90 % 1014,9 hPa 0,0 l/m 3,6 km/h (1 Bft) N-NO 16 0 min 0,000 mm 0,0 UV-I 97 W/m 10,5 C 12,1 C 8,0 km/h (2 Bft) 97,87 %
02.09.2017 08:26 12,0 C 21,1 C 90 % 1015,0 hPa 0,0 l/m 2,7 km/h (1 Bft) N-NO 25 0 min 0,000 mm 0,0 UV-I 113 W/m 10,4 C 12,0 C 8,0 km/h (2 Bft) 97,87 %
02.09.2017 08:28 12,1 C 21,1 C 90 % 1015,0 hPa 0,0 l/m 3,2 km/h (1 Bft) N-NO 27 0 min 0,000 mm 0,0 UV-I 113 W/m 10,5 C 12,1 C 6,4 km/h (2 Bft) 100,00 %
02.09.2017 08:30 12,1 C 21,1 C 90 % 1015,0 hPa 0,0 l/m 6,6 km/h (2 Bft) N-NO 24 0 min 0,000 mm 0,0 UV-I 110 W/m 10,5 C 12,0 C 11,3 km/h (2 Bft) 100,00 %
02.09.2017 08:32 12,1 C 21,1 C 89 % 1014,9 hPa 0,0 l/m 8,3 km/h (2 Bft) N-NO 30 0 min 0,000 mm 0,0 UV-I 123 W/m 10,3 C 10,9 C 14,5 km/h (3 Bft) 100,00 %
02.09.2017 08:34 12,1 C 21,1 C 89 % 1014,9 hPa 0,0 l/m 6,5 km/h (2 Bft) N 11 0 min 0,000 mm 0,0 UV-I 140 W/m 10,3 C 12,1 C 12,9 km/h (3 Bft) 100,00 %
02.09.2017 08:36 12,1 C 21,1 C 89 % 1014,8 hPa 0,0 l/m 9,1 km/h (2 Bft) NO 36 0 min 0,000 mm 0,0 UV-I 161 W/m 10,3 C 10,4 C 16,1 km/h (3 Bft) 100,00 %
02.09.2017 08:38 12,2 C 21,1 C 89 % 1014,9 hPa 0,0 l/m 6,4 km/h (2 Bft) N-NO 30 0 min 0,000 mm 0,2 UV-I 175 W/m 10,4 C 12,2 C 12,9 km/h (3 Bft) 100,00 %
02.09.2017 08:40 12,2 C 21,1 C 89 % 1014,9 hPa 0,0 l/m 6,2 km/h (2 Bft) N 350 0 min 0,000 mm 0,3 UV-I 168 W/m 10,4 C 12,2 C 14,5 km/h (3 Bft) 95,74 %
02.09.2017 08:42 12,2 C 21,1 C 89 % 1014,9 hPa 0,0 l/m 9,2 km/h (2 Bft) N-NO 32 0 min 0,000 mm 0,5 UV-I 161 W/m 10,4 C 10,5 C 14,5 km/h (3 Bft) 100,00 %
02.09.2017 08:44 12,3 C 21,1 C 88 % 1014,9 hPa 0,0 l/m 7,8 km/h (2 Bft) NO 38 0 min 0,000 mm 0,1 UV-I 151 W/m 10,4 C 11,4 C 12,9 km/h (3 Bft) 97,87 %
02.09.2017 08:46 12,3 C 21,1 C 88 % 1014,9 hPa 0,0 l/m 6,8 km/h (2 Bft) N-NO 33 0 min 0,000 mm 0,0 UV-I 137 W/m 10,4 C 12,0 C 12,9 km/h (3 Bft) 100,00 %
02.09.2017 08:48 12,3 C 21,1 C 88 % 1015,0 hPa 0,0 l/m 6,6 km/h (2 Bft) N-NO 26 0 min 0,000 mm 0,0 UV-I 120 W/m 10,4 C 12,2 C 12,9 km/h (3 Bft) 100,00 %
02.09.2017 08:50 12,3 C 21,1 C 88 % 1014,9 hPa 0,0 l/m 5,9 km/h (2 Bft) N-NO 24 0 min 0,000 mm 0,0 UV-I 107 W/m 10,4 C 12,3 C 9,7 km/h (2 Bft) 100,00 %
02.09.2017 08:52 12,3 C 21,1 C 88 % 1015,0 hPa 0,0 l/m 10,6 km/h (2 Bft) N-NO 23 0 min 0,000 mm 0,0 UV-I 105 W/m 10,4 C 9,8 C 14,5 km/h (3 Bft) 100,00 %
02.09.2017 08:54 12,3 C 21,1 C 89 % 1014,9 hPa 0,0 l/m 6,3 km/h (2 Bft) N-NO 26 0 min 0,000 mm 0,0 UV-I 108 W/m 10,5 C 12,3 C 8,0 km/h (2 Bft) 97,87 %
02.09.2017 08:56 12,3 C 21,1 C 88 % 1014,9 hPa 0,0 l/m 8,8 km/h (2 Bft) NO 34 0 min 0,000 mm 0,0 UV-I 112 W/m 10,4 C 10,8 C 14,5 km/h (3 Bft) 97,87 %
02.09.2017 08:58 12,3 C 21,1 C 88 % 1014,9 hPa 0,0 l/m 8,2 km/h (2 Bft) NO 51 0 min 0,000 mm 0,0 UV-I 117 W/m 10,4 C 11,1 C 12,9 km/h (3 Bft) 97,87 %
02.09.2017 09:00 12,3 C 21,1 C 88 % 1015,0 hPa 0,0 l/m 8,9 km/h (2 Bft) NO 35 0 min 0,051 mm 0,0 UV-I 116 W/m 10,4 C 10,7 C 16,1 km/h (3 Bft) 98,00 %
02.09.2017 09:02 12,3 C 21,1 C 88 % 1015,0 hPa 0,0 l/m 6,4 km/h (2 Bft) N-NO 27 0 min 0,000 mm 0,0 UV-I 116 W/m 10,4 C 12,3 C 11,3 km/h (2 Bft) 97,37 %
02.09.2017 09:04 12,3 C 21,1 C 88 % 1015,0 hPa 0,0 l/m 6,6 km/h (2 Bft) N 11 0 min 0,000 mm 0,0 UV-I 118 W/m 10,4 C 12,2 C 14,5 km/h (3 Bft) 95,74 %
02.09.2017 09:06 12,3 C 21,1 C 88 % 1015,1 hPa 0,0 l/m 2,3 km/h (1 Bft) N-NW 331 0 min 0,000 mm 0,0 UV-I 115 W/m 10,4 C 12,3 C 8,0 km/h (2 Bft) 97,87 %
02.09.2017 09:08 12,3 C 21,1 C 88 % 1015,1 hPa 0,0 l/m 2,4 km/h (1 Bft) NO 45 0 min 0,000 mm 0,0 UV-I 115 W/m 10,4 C 12,3 C 6,4 km/h (2 Bft) 97,87 %
02.09.2017 09:10 12,3 C 21,1 C 88 % 1015,1 hPa 0,0 l/m 6,0 km/h (2 Bft) N-NO 17 0 min 0,000 mm 0,0 UV-I 113 W/m 10,4 C 12,3 C 11,3 km/h (2 Bft) 95,74 %
02.09.2017 09:12 12,3 C 21,1 C 88 % 1015,1 hPa 0,0 l/m 3,1 km/h (1 Bft) N-NO 22 0 min 0,000 mm 0,0 UV-I 110 W/m 10,4 C 12,3 C 8,0 km/h (2 Bft) 91,49 %
02.09.2017 09:14 12,4 C 21,1 C 88 % 1015,0 hPa 0,0 l/m 5,3 km/h (1 Bft) NO 40 0 min 0,000 mm 0,0 UV-I 109 W/m 10,5 C 12,4 C 11,3 km/h (2 Bft) 96,00 %
02.09.2017 09:16 12,4 C 21,1 C 88 % 1015,0 hPa 0,0 l/m 4,6 km/h (1 Bft) N 5 0 min 0,000 mm 0,0 UV-I 114 W/m 10,5 C 12,4 C 11,3 km/h (2 Bft) 95,74 %
02.09.2017 09:18 12,4 C 21,1 C 88 % 1015,0 hPa 0,0 l/m 1,9 km/h (1 Bft) N-NO 22 0 min 0,000 mm 0,0 UV-I 113 W/m 10,5 C 12,4 C 4,8 km/h (1 Bft) 95,74 %
02.09.2017 09:20 12,4 C 21,1 C 88 % 1015,0 hPa 0,0 l/m 2,4 km/h (1 Bft) N-NO 18 0 min 0,000 mm 0,0 UV-I 106 W/m 10,5 C 12,4 C 6,4 km/h (2 Bft) 97,92 %
02.09.2017 09:22 12,3 C 21,1 C 87 % 1015,2 hPa 0,0 l/m 4,9 km/h (1 Bft) N-NO 18 0 min 0,000 mm 0,0 UV-I 95 W/m 10,2 C 12,3 C 11,3 km/h (2 Bft) 95,74 %
02.09.2017 09:24 12,3 C 21,1 C 87 % 1015,2 hPa 0,0 l/m 5,2 km/h (1 Bft) N 5 0 min 0,000 mm 0,0 UV-I 86 W/m 10,2 C 12,3 C 11,3 km/h (2 Bft) 97,87 %
02.09.2017 09:26 12,3 C 21,1 C 87 % 1015,2 hPa 0,0 l/m 3,7 km/h (1 Bft) N-NO 28 0 min 0,000 mm 0,0 UV-I 83 W/m 10,2 C 12,3 C 8,0 km/h (2 Bft) 93,62 %
02.09.2017 09:28 12,3 C 21,1 C 87 % 1015,3 hPa 0,0 l/m 2,8 km/h (1 Bft) N-NO 19 0 min 0,000 mm 0,0 UV-I 79 W/m 10,2 C 12,3 C 9,7 km/h (2 Bft) 97,37 %
02.09.2017 09:30 12,3 C 21,1 C 87 % 1015,3 hPa 0,0 l/m 3,3 km/h (1 Bft) N-NO 15 0 min 0,000 mm 0,0 UV-I 77 W/m 10,2 C 12,3 C 8,0 km/h (2 Bft) 100,00 %
02.09.2017 09:32 12,3 C 21,1 C 87 % 1015,3 hPa 0,0 l/m 2,1 km/h (1 Bft) N 360 0 min 0,000 mm 0,0 UV-I 78 W/m 10,2 C 12,3 C 4,8 km/h (1 Bft) 100,00 %
02.09.2017 09:34 12,3 C 21,1 C 87 % 1015,2 hPa 0,0 l/m 4,9 km/h (1 Bft) N-NO 17 0 min 0,000 mm 0,0 UV-I 84 W/m 10,2 C 12,3 C 11,3 km/h (2 Bft) 100,00 %
02.09.2017 09:36 12,3 C 21,1 C 88 % 1015,2 hPa 0,0 l/m 2,9 km/h (1 Bft) NO 38 0 min 0,000 mm 0,0 UV-I 94 W/m 10,4 C 12,3 C 6,4 km/h (2 Bft) 100,00 %
02.09.2017 09:38 12,3 C 21,1 C 87 % 1015,2 hPa 0,0 l/m 4,5 km/h (1 Bft) N 11 0 min 0,000 mm 0,0 UV-I 99 W/m 10,2 C 12,3 C 8,0 km/h (2 Bft) 95,74 %
02.09.2017 09:40 12,3 C 21,1 C 87 % 1015,2 hPa 0,0 l/m 5,6 km/h (1 Bft) NO 34 0 min 0,000 mm 0,0 UV-I 86 W/m 10,2 C 12,3 C 12,9 km/h (3 Bft) 100,00 %
02.09.2017 09:42 12,3 C 21,1 C 87 % 1015,2 hPa 0,0 l/m 5,3 km/h (1 Bft) N-NO 22 0 min 0,000 mm 0,0 UV-I 74 W/m 10,2 C 12,3 C 9,7 km/h (2 Bft) 97,92 %
02.09.2017 09:44 12,3 C 21,1 C 87 % 1015,3 hPa 0,0 l/m 2,8 km/h (1 Bft) N-NO 21 0 min 0,000 mm 0,0 UV-I 73 W/m 10,2 C 12,3 C 8,0 km/h (2 Bft) 97,87 %
02.09.2017 09:46 12,3 C 21,1 C 87 % 1015,2 hPa 0,0 l/m 2,0 km/h (1 Bft) N-NO 12 0 min 0,000 mm 0,0 UV-I 81 W/m 10,2 C 12,3 C 4,8 km/h (1 Bft) 100,00 %
02.09.2017 09:48 12,3 C 21,1 C 88 % 1015,2 hPa 0,0 l/m 0,8 km/h (0 Bft) N-NO 15 0 min 0,000 mm 0,0 UV-I 93 W/m 10,4 C 12,3 C 4,8 km/h (1 Bft) 100,00 %
02.09.2017 09:50 12,3 C 21,1 C 89 % 1015,2 hPa 0,0 l/m 3,5 km/h (1 Bft) N 5 0 min 0,000 mm 0,4 UV-I 102 W/m 10,5 C 12,3 C 8,0 km/h (2 Bft) 100,00 %
02.09.2017 09:52 12,3 C 21,1 C 88 % 1015,1 hPa 0,0 l/m 8,0 km/h (2 Bft) O-NO 63 0 min 0,000 mm 0,6 UV-I 117 W/m 10,4 C 11,3 C 16,1 km/h (3 Bft) 97,92 %
02.09.2017 09:54 12,3 C 21,1 C 88 % 1015,1 hPa 0,0 l/m 7,1 km/h (2 Bft) N 355 0 min 0,000 mm 0,7 UV-I 139 W/m 10,4 C 11,8 C 14,5 km/h (3 Bft) 97,92 %
02.09.2017 09:56 12,3 C 21,1 C 88 % 1015,0 hPa 0,0 l/m 4,4 km/h (1 Bft) N 11 0 min 0,000 mm 0,8 UV-I 161 W/m 10,4 C 12,3 C 11,3 km/h (2 Bft) 100,00 %
02.09.2017 09:58 12,4 C 21,1 C 88 % 1015,1 hPa 0,0 l/m 7,6 km/h (2 Bft) N-NO 28 0 min 0,000 mm 0,8 UV-I 159 W/m 10,5 C 11,6 C 12,9 km/h (3 Bft) 97,87 %
02.09.2017 10:00 12,4 C 21,1 C 87 % 1015,2 hPa 0,0 l/m 9,6 km/h (2 Bft) NO 36 0 min 0,000 mm 0,7 UV-I 132 W/m 10,3 C 10,5 C 14,5 km/h (3 Bft) 100,00 %
02.09.2017 10:02 12,4 C 21,1 C 87 % 1015,3 hPa 0,0 l/m 7,1 km/h (2 Bft) N-NO 13 0 min 0,051 mm 0,5 UV-I 100 W/m 10,3 C 11,9 C 12,9 km/h (3 Bft) 98,00 %
02.09.2017 10:04 12,4 C 21,1 C 87 % 1015,3 hPa 0,0 l/m 3,5 km/h (1 Bft) N-NW 348 0 min 0,000 mm 0,2 UV-I 82 W/m 10,3 C 12,4 C 9,7 km/h (2 Bft) 100,00 %
02.09.2017 10:06 12,4 C 21,1 C 86 % 1015,3 hPa 0,0 l/m 5,2 km/h (1 Bft) N-NO 30 0 min 0,000 mm 0,0 UV-I 79 W/m 10,1 C 12,4 C 9,7 km/h (2 Bft) 100,00 %
02.09.2017 10:08 12,3 C 21,1 C 86 % 1015,3 hPa 0,0 l/m 4,2 km/h (1 Bft) N-NO 30 0 min 0,000 mm 0,2 UV-I 85 W/m 10,0 C 12,3 C 9,7 km/h (2 Bft) 97,87 %
02.09.2017 10:10 12,4 C 21,1 C 88 % 1015,3 hPa 0,0 l/m 1,9 km/h (1 Bft) N-NO 27 0 min 0,000 mm 0,5 UV-I 87 W/m 10,5 C 12,4 C 6,4 km/h (2 Bft) 97,87 %
02.09.2017 10:12 12,4 C 21,1 C 88 % 1015,2 hPa 0,0 l/m 1,9 km/h (1 Bft) N-NW 333 0 min 0,000 mm 0,3 UV-I 83 W/m 10,5 C 12,4 C 4,8 km/h (1 Bft) 97,87 %
02.09.2017 10:14 12,3 C 21,1 C 87 % 1015,2 hPa 0,0 l/m 2,0 km/h (1 Bft) N-NO 17 0 min 0,000 mm 0,0 UV-I 75 W/m 10,2 C 12,3 C 4,8 km/h (1 Bft) 100,00 %
02.09.2017 10:16 12,3 C 21,1 C 88 % 1015,3 hPa 0,0 l/m 2,1 km/h (1 Bft) N-NW 346 0 min 0,000 mm 0,0 UV-I 69 W/m 10,4 C 12,3 C 6,4 km/h (2 Bft) 100,00 %
02.09.2017 10:18 12,3 C 21,1 C 88 % 1015,3 hPa 0,0 l/m 1,7 km/h (1 Bft) NW 307 0 min 0,000 mm 0,0 UV-I 62 W/m 10,4 C 12,3 C 6,4 km/h (2 Bft) 100,00 %
02.09.2017 10:20 12,3 C 21,1 C 87 % 1015,3 hPa 0,0 l/m 3,0 km/h (1 Bft) W-NW 292 0 min 0,000 mm 0,0 UV-I 55 W/m 10,2 C 12,3 C 6,4 km/h (2 Bft) 97,92 %
02.09.2017 10:22 12,2 C 21,1 C 87 % 1015,3 hPa 0,0 l/m 2,5 km/h (1 Bft) NW 321 0 min 0,000 mm 0,0 UV-I 49 W/m 10,1 C 12,2 C 8,0 km/h (2 Bft) 97,87 %
02.09.2017 10:24 12,2 C 21,1 C 88 % 1015,3 hPa 0,0 l/m 1,5 km/h (1 Bft) W-NW 302 0 min 0,000 mm 0,0 UV-I 47 W/m 10,3 C 12,2 C 6,4 km/h (2 Bft) 100,00 %
02.09.2017 10:26 12,2 C 21,1 C 88 % 1015,3 hPa 0,0 l/m 1,3 km/h (1 Bft) N-NO 21 0 min 0,000 mm 0,0 UV-I 45 W/m 10,3 C 12,2 C 4,8 km/h (1 Bft) 100,00 %
02.09.2017 10:28 12,2 C 21,1 C 88 % 1015,4 hPa 0,0 l/m 1,0 km/h (0 Bft) N 351 0 min 0,000 mm 0,0 UV-I 42 W/m 10,3 C 12,2 C 3,2 km/h (1 Bft) 98,11 %
02.09.2017 10:30 12,2 C 21,1 C 88 % 1015,4 hPa 0,0 l/m 2,3 km/h (1 Bft) N 5 0 min 0,000 mm 0,0 UV-I 40 W/m 10,3 C 12,2 C 4,8 km/h (1 Bft) 97,87 %
02.09.2017 10:32 12,2 C 21,1 C 88 % 1015,4 hPa 0,0 l/m 1,6 km/h (1 Bft) N-NW 335 0 min 0,000 mm 0,0 UV-I 39 W/m 10,3 C 12,2 C 4,8 km/h (1 Bft) 95,74 %
02.09.2017 10:34 12,2 C 21,1 C 88 % 1015,4 hPa 0,0 l/m 1,0 km/h (0 Bft) N-NW 338 0 min 0,000 mm 0,0 UV-I 39 W/m 10,3 C 12,2 C 3,2 km/h (1 Bft) 95,74 %
02.09.2017 10:36 12,1 C 21,1 C 87 % 1015,4 hPa 0,0 l/m 1,5 km/h (1 Bft) N-NW 330 0 min 0,000 mm 0,0 UV-I 39 W/m 10,0 C 12,1 C 6,4 km/h (2 Bft) 93,62 %
02.09.2017 10:38 12,1 C 21,1 C 87 % 1015,4 hPa 0,0 l/m 1,3 km/h (1 Bft) NW 321 0 min 0,000 mm 0,0 UV-I 40 W/m 10,0 C 12,1 C 3,2 km/h (1 Bft) 97,87 %
02.09.2017 10:40 12,1 C 21,1 C 87 % 1015,4 hPa 0,0 l/m 1,0 km/h (0 Bft) N-NW 327 0 min 0,000 mm 0,0 UV-I 44 W/m 10,0 C 12,1 C 3,2 km/h (1 Bft) 97,92 %
02.09.2017 10:42 12,1 C 21,1 C 88 % 1015,4 hPa 0,0 l/m 0,3 km/h (0 Bft) N-NW 327 0 min 0,000 mm 0,0 UV-I 43 W/m 10,2 C 12,1 C 1,6 km/h (1 Bft) 95,74 %
02.09.2017 10:44 12,1 C 21,1 C 88 % 1015,3 hPa 0,0 l/m 1,2 km/h (1 Bft) N-NO 13 0 min 0,000 mm 0,0 UV-I 42 W/m 10,2 C 12,1 C 4,8 km/h (1 Bft) 97,87 %
02.09.2017 10:46 12,1 C 21,1 C 88 % 1015,3 hPa 0,0 l/m 1,9 km/h (1 Bft) NW 323 0 min 0,000 mm 0,0 UV-I 46 W/m 10,2 C 12,1 C 4,8 km/h (1 Bft) 97,87 %
02.09.2017 10:48 12,1 C 21,1 C 88 % 1015,3 hPa 0,0 l/m 0,5 km/h (0 Bft) N-NW 337 0 min 0,000 mm 0,0 UV-I 50 W/m 10,2 C 12,1 C 1,6 km/h (1 Bft) 95,74 %
02.09.2017 10:50 12,1 C 21,1 C 89 % 1015,2 hPa 0,0 l/m 1,9 km/h (1 Bft) N 9 0 min 0,000 mm 0,0 UV-I 52 W/m 10,3 C 12,1 C 6,4 km/h (2 Bft) 95,74 %
02.09.2017 10:52 12,1 C 20,6 C 89 % 1015,2 hPa 0,0 l/m 1,2 km/h (1 Bft) NW 321 0 min 0,000 mm 0,0 UV-I 56 W/m 10,3 C 12,1 C 3,2 km/h (1 Bft) 93,62 %
02.09.2017 10:54 12,1 C 20,6 C 89 % 1015,1 hPa 0,0 l/m 1,1 km/h (1 Bft) N-NW 337 0 min 0,000 mm 0,0 UV-I 61 W/m 10,3 C 12,1 C 3,2 km/h (1 Bft) 97,37 %
02.09.2017 10:56 12,1 C 20,6 C 89 % 1015,1 hPa 0,0 l/m 2,0 km/h (1 Bft) N-NO 17 0 min 0,000 mm 0,0 UV-I 62 W/m 10,3 C 12,1 C 4,8 km/h (1 Bft) 96,00 %
02.09.2017 10:58 12,1 C 20,6 C 89 % 1015,1 hPa 0,0 l/m 2,4 km/h (1 Bft) N 5 0 min 0,000 mm 0,0 UV-I 65 W/m 10,3 C 12,1 C 6,4 km/h (2 Bft) 95,74 %
02.09.2017 11:00 12,1 C 20,6 C 89 % 1015,1 hPa 0,0 l/m 1,5 km/h (1 Bft) N 9 0 min 0,025 mm 0,0 UV-I 72 W/m 10,3 C 12,1 C 3,2 km/h (1 Bft) 95,74 %
02.09.2017 11:02 12,0 C 20,6 C 89 % 1015,1 hPa 0,2 l/m 1,3 km/h (1 Bft) N 5 0 min 0,000 mm 0,1 UV-I 78 W/m 10,2 C 12,0 C 3,2 km/h (1 Bft) 96,00 %
02.09.2017 11:04 12,0 C 20,6 C 89 % 1015,1 hPa 0,0 l/m 1,0 km/h (0 Bft) N-NO 16 0 min 0,000 mm 0,5 UV-I 83 W/m 10,2 C 12,0 C 3,2 km/h (1 Bft) 95,74 %
02.09.2017 11:06 12,0 C 20,6 C 90 % 1015,2 hPa 0,0 l/m 1,1 km/h (1 Bft) N-NO 24 0 min 0,000 mm 0,5 UV-I 85 W/m 10,4 C 12,0 C 3,2 km/h (1 Bft) 95,74 %
02.09.2017 11:08 12,0 C 20,6 C 90 % 1015,2 hPa 0,0 l/m 1,7 km/h (1 Bft) N-NO 23 0 min 0,000 mm 0,5 UV-I 81 W/m 10,4 C 12,0 C 3,2 km/h (1 Bft) 95,74 %
02.09.2017 11:10 12,0 C 20,6 C 90 % 1015,3 hPa 0,0 l/m 0,6 km/h (0 Bft) N-NO 23 0 min 0,000 mm 0,5 UV-I 87 W/m 10,4 C 12,0 C 3,2 km/h (1 Bft) 95,74 %
02.09.2017 11:12 12,1 C 20,6 C 91 % 1015,2 hPa 0,0 l/m 0,6 km/h (0 Bft) N-NO 23 0 min 0,000 mm 0,6 UV-I 94 W/m 10,7 C 12,1 C 3,2 km/h (1 Bft) 91,49 %
02.09.2017 11:14 12,1 C 20,6 C 91 % 1015,2 hPa 0,0 l/m 1,1 km/h (1 Bft) N-NO 23 0 min 0,000 mm 0,6 UV-I 95 W/m 10,7 C 12,1 C 3,2 km/h (1 Bft) 89,36 %
02.09.2017 11:16 12,1 C 20,6 C 90 % 1015,2 hPa 0,0 l/m 1,3 km/h (1 Bft) N-NO 23 0 min 0,000 mm 0,5 UV-I 91 W/m 10,5 C 12,1 C 3,2 km/h (1 Bft) 95,74 %
02.09.2017 11:18 12,2 C 20,6 C 90 % 1015,2 hPa 0,0 l/m 1,2 km/h (1 Bft) N-NO 23 0 min 0,000 mm 0,5 UV-I 88 W/m 10,6 C 12,2 C 3,2 km/h (1 Bft) 95,74 %
02.09.2017 11:20 12,2 C 20,6 C 90 % 1015,2 hPa 0,0 l/m 2,0 km/h (1 Bft) N-NO 23 0 min 0,000 mm 0,5 UV-I 88 W/m 10,6 C 12,2 C 4,8 km/h (1 Bft) 95,83 %
02.09.2017 11:22 12,2 C 20,6 C 91 % 1015,1 hPa 0,0 l/m 0,3 km/h (0 Bft) N-NO 22 0 min 0,000 mm 0,5 UV-I 87 W/m 10,8 C 12,2 C 1,6 km/h (1 Bft) 93,62 %
02.09.2017 11:24 12,2 C 20,6 C 91 % 1015,1 hPa 0,0 l/m 0,4 km/h (0 Bft) N-NO 22 0 min 0,000 mm 0,5 UV-I 84 W/m 10,8 C 12,2 C 3,2 km/h (1 Bft) 95,74 %
02.09.2017 11:26 12,2 C 20,6 C 91 % 1015,1 hPa 0,0 l/m 2,0 km/h (1 Bft) N 10 0 min 0,000 mm 0,6 UV-I 84 W/m 10,8 C 12,2 C 6,4 km/h (2 Bft) 95,74 %
02.09.2017 11:28 12,2 C 20,6 C 91 % 1015,1 hPa 0,0 l/m 2,2 km/h (1 Bft) N 5 0 min 0,000 mm 0,6 UV-I 87 W/m 10,8 C 12,2 C 4,8 km/h (1 Bft) 94,87 %
02.09.2017 11:30 12,2 C 20,6 C 91 % 1015,0 hPa 0,0 l/m 0,3 km/h (0 Bft) N 5 0 min 0,000 mm 0,7 UV-I 95 W/m 10,8 C 12,2 C 1,6 km/h (1 Bft) 93,62 %
02.09.2017 11:32 12,2 C 20,6 C 91 % 1015,1 hPa 0,0 l/m 1,4 km/h (1 Bft) N 5 0 min 0,000 mm 0,7 UV-I 98 W/m 10,8 C 12,2 C 3,2 km/h (1 Bft) 93,62 %
02.09.2017 11:34 12,2 C 20,6 C 91 % 1015,1 hPa 0,0 l/m 2,8 km/h (1 Bft) N 5 0 min 0,000 mm 0,7 UV-I 99 W/m 10,8 C 12,2 C 4,8 km/h (1 Bft) 100,00 %
02.09.2017 11:36 12,2 C 20,6 C 91 % 1015,1 hPa 0,0 l/m 2,5 km/h (1 Bft) N 9 0 min 0,000 mm 0,8 UV-I 115 W/m 10,8 C 12,2 C 4,8 km/h (1 Bft) 97,87 %
02.09.2017 11:38 12,2 C 20,6 C 91 % 1015,1 hPa 0,0 l/m 2,2 km/h (1 Bft) NO 36 0 min 0,000 mm 1,0 UV-I 140 W/m 10,8 C 12,2 C 6,4 km/h (2 Bft) 95,74 %
02.09.2017 11:40 12,2 C 20,6 C 91 % 1015,1 hPa 0,0 l/m 3,3 km/h (1 Bft) N-NO 23 0 min 0,000 mm 1,0 UV-I 150 W/m 10,8 C 12,2 C 6,4 km/h (2 Bft) 97,87 %
02.09.2017 11:42 12,3 C 20,6 C 91 % 1015,1 hPa 0,0 l/m 6,5 km/h (2 Bft) N-NO 26 0 min 0,000 mm 1,0 UV-I 140 W/m 10,9 C 12,3 C 9,7 km/h (2 Bft) 98,00 %
02.09.2017 11:44 12,3 C 20,6 C 91 % 1015,1 hPa 0,0 l/m 3,5 km/h (1 Bft) NO 53 0 min 0,000 mm 1,0 UV-I 150 W/m 10,9 C 12,3 C 9,7 km/h (2 Bft) 96,00 %
02.09.2017 11:46 12,3 C 20,6 C 90 % 1015,0 hPa 0,0 l/m 4,1 km/h (1 Bft) N-NO 22 0 min 0,000 mm 1,1 UV-I 168 W/m 10,7 C 12,3 C 8,0 km/h (2 Bft) 97,87 %
02.09.2017 11:48 12,4 C 20,6 C 90 % 1015,0 hPa 0,0 l/m 4,8 km/h (1 Bft) NO 40 0 min 0,000 mm 1,2 UV-I 182 W/m 10,8 C 12,4 C 9,7 km/h (2 Bft) 100,00 %
02.09.2017 11:50 12,4 C 20,6 C 90 % 1015,0 hPa 0,0 l/m 5,5 km/h (1 Bft) N-NO 32 0 min 0,000 mm 1,3 UV-I 192 W/m 10,8 C 12,4 C 12,9 km/h (3 Bft) 97,87 %
02.09.2017 11:52 12,4 C 20,6 C 90 % 1015,1 hPa 0,0 l/m 4,1 km/h (1 Bft) NO 34 0 min 0,000 mm 1,3 UV-I 195 W/m 10,8 C 12,4 C 9,7 km/h (2 Bft) 100,00 %
02.09.2017 11:54 12,6 C 20,6 C 90 % 1015,1 hPa 0,0 l/m 5,7 km/h (1 Bft) N-NO 28 0 min 0,000 mm 1,2 UV-I 178 W/m 11,0 C 12,6 C 9,7 km/h (2 Bft) 100,00 %
02.09.2017 11:56 12,6 C 20,6 C 89 % 1015,1 hPa 0,0 l/m 5,4 km/h (1 Bft) N-NO 15 0 min 0,000 mm 1,1 UV-I 163 W/m 10,8 C 12,6 C 8,0 km/h (2 Bft) 97,87 %
02.09.2017 11:58 12,6 C 20,6 C 90 % 1015,1 hPa 0,0 l/m 4,3 km/h (1 Bft) N-NO 32 0 min 0,000 mm 1,1 UV-I 159 W/m 11,0 C 12,6 C 8,0 km/h (2 Bft) 100,00 %
02.09.2017 12:00 12,6 C 20,6 C 89 % 1015,1 hPa 0,0 l/m 2,6 km/h (1 Bft) N-NO 14 0 min 0,051 mm 1,0 UV-I 158 W/m 10,8 C 12,6 C 6,4 km/h (2 Bft) 100,00 %
02.09.2017 12:02 12,6 C 20,6 C 90 % 1015,1 hPa 0,0 l/m 1,2 km/h (1 Bft) N-NO 13 0 min 0,000 mm 1,0 UV-I 158 W/m 11,0 C 12,6 C 3,2 km/h (1 Bft) 100,00 %
02.09.2017 12:04 12,6 C 20,6 C 89 % 1015,0 hPa 0,0 l/m 3,5 km/h (1 Bft) N-NO 18 0 min 0,000 mm 1,0 UV-I 160 W/m 10,8 C 12,6 C 6,4 km/h (2 Bft) 100,00 %
02.09.2017 12:06 12,6 C 20,6 C 89 % 1015,1 hPa 0,0 l/m 1,7 km/h (1 Bft) W-NW 298 0 min 0,000 mm 1,1 UV-I 164 W/m 10,8 C 12,6 C 6,4 km/h (2 Bft) 100,00 %
02.09.2017 12:08 12,6 C 20,6 C 89 % 1015,0 hPa 0,0 l/m 2,5 km/h (1 Bft) N-NO 23 0 min 0,000 mm 1,0 UV-I 164 W/m 10,8 C 12,6 C 8,0 km/h (2 Bft) 95,74 %
02.09.2017 12:10 12,6 C 20,6 C 89 % 1015,1 hPa 0,0 l/m 2,6 km/h (1 Bft) N 355 0 min 0,000 mm 1,0 UV-I 160 W/m 10,8 C 12,6 C 6,4 km/h (2 Bft) 100,00 %
02.09.2017 12:12 12,6 C 20,6 C 89 % 1015,1 hPa 0,0 l/m 1,1 km/h (1 Bft) N-NW 345 0 min 0,000 mm 0,9 UV-I 149 W/m 10,8 C 12,6 C 3,2 km/h (1 Bft) 100,00 %
02.09.2017 12:14 12,6 C 20,6 C 89 % 1015,1 hPa 0,0 l/m 1,1 km/h (1 Bft) N-NW 336 0 min 0,000 mm 0,9 UV-I 139 W/m 10,8 C 12,6 C 3,2 km/h (1 Bft) 100,00 %
02.09.2017 12:16 12,6 C 20,6 C 89 % 1015,0 hPa 0,0 l/m 2,0 km/h (1 Bft) N 11 0 min 0,000 mm 0,8 UV-I 135 W/m 10,8 C 12,6 C 4,8 km/h (1 Bft) 100,00 %
02.09.2017 12:18 12,6 C 20,6 C 88 % 1015,1 hPa 0,0 l/m 3,6 km/h (1 Bft) NW 319 0 min 0,000 mm 0,8 UV-I 134 W/m 10,7 C 12,6 C 8,0 km/h (2 Bft) 97,87 %
02.09.2017 12:20 12,6 C 20,6 C 89 % 1015,1 hPa 0,0 l/m 2,4 km/h (1 Bft) N 360 0 min 0,000 mm 0,9 UV-I 136 W/m 10,8 C 12,6 C 6,4 km/h (2 Bft) 95,74 %
02.09.2017 12:22 12,6 C 20,6 C 89 % 1015,1 hPa 0,0 l/m 1,3 km/h (1 Bft) N 9 0 min 0,000 mm 0,9 UV-I 143 W/m 10,8 C 12,6 C 3,2 km/h (1 Bft) 100,00 %
02.09.2017 12:24 12,6 C 20,6 C 89 % 1015,1 hPa 0,0 l/m 1,4 km/h (1 Bft) N-NW 338 0 min 0,000 mm 1,0 UV-I 157 W/m 10,8 C 12,6 C 4,8 km/h (1 Bft) 100,00 %
02.09.2017 12:26 12,6 C 20,6 C 89 % 1015,0 hPa 0,0 l/m 1,0 km/h (0 Bft) N-NW 331 0 min 0,000 mm 1,1 UV-I 172 W/m 10,8 C 12,6 C 3,2 km/h (1 Bft) 100,00 %
02.09.2017 12:28 12,7 C 20,6 C 89 % 1015,0 hPa 0,0 l/m 1,8 km/h (1 Bft) N-NO 15 0 min 0,000 mm 1,1 UV-I 169 W/m 10,9 C 12,7 C 3,2 km/h (1 Bft) 100,00 %
02.09.2017 12:30 12,7 C 20,6 C 89 % 1015,0 hPa 0,0 l/m 2,2 km/h (1 Bft) N-NO 13 0 min 0,000 mm 1,0 UV-I 150 W/m 10,9 C 12,7 C 4,8 km/h (1 Bft) 100,00 %
02.09.2017 12:32 12,7 C 20,6 C 89 % 1015,1 hPa 0,0 l/m 2,2 km/h (1 Bft) N-NW 328 0 min 0,000 mm 0,9 UV-I 139 W/m 10,9 C 12,7 C 4,8 km/h (1 Bft) 93,62 %
02.09.2017 12:34 12,6 C 20,6 C 89 % 1015,0 hPa 0,0 l/m 1,2 km/h (1 Bft) NW 324 0 min 0,000 mm 0,9 UV-I 141 W/m 10,8 C 12,6 C 3,2 km/h (1 Bft) 100,00 %
02.09.2017 12:36 12,6 C 20,6 C 89 % 1015,1 hPa 0,0 l/m 1,8 km/h (1 Bft) NW 324 0 min 0,000 mm 1,0 UV-I 155 W/m 10,8 C 12,6 C 4,8 km/h (1 Bft) 100,00 %
02.09.2017 12:38 12,7 C 20,6 C 89 % 1015,1 hPa 0,0 l/m 2,6 km/h (1 Bft) N 355 0 min 0,000 mm 1,0 UV-I 162 W/m 10,9 C 12,7 C 4,8 km/h (1 Bft) 100,00 %
02.09.2017 12:40 12,6 C 20,6 C 89 % 1015,1 hPa 0,0 l/m 2,2 km/h (1 Bft) NW 311 0 min 0,000 mm 1,0 UV-I 153 W/m 10,8 C 12,6 C 4,8 km/h (1 Bft) 100,00 %
02.09.2017 12:42 12,6 C 20,6 C 88 % 1015,1 hPa 0,0 l/m 2,6 km/h (1 Bft) NW 320 0 min 0,000 mm 0,9 UV-I 143 W/m 10,7 C 12,6 C 4,8 km/h (1 Bft) 100,00 %
02.09.2017 12:44 12,6 C 20,6 C 89 % 1015,1 hPa 0,0 l/m 1,7 km/h (1 Bft) NW 323 0 min 0,000 mm 0,8 UV-I 137 W/m 10,8 C 12,6 C 3,2 km/h (1 Bft) 97,87 %
02.09.2017 12:46 12,7 C 20,6 C 89 % 1015,1 hPa 0,0 l/m 1,4 km/h (1 Bft) N-NW 336 0 min 0,000 mm 0,8 UV-I 132 W/m 10,9 C 12,7 C 3,2 km/h (1 Bft) 100,00 %
02.09.2017 12:48 12,7 C 20,6 C 88 % 1015,1 hPa 0,0 l/m 3,1 km/h (1 Bft) N-NO 27 0 min 0,000 mm 0,8 UV-I 117 W/m 10,8 C 12,7 C 6,4 km/h (2 Bft) 100,00 %
02.09.2017 12:50 12,7 C 20,6 C 88 % 1015,1 hPa 0,0 l/m 2,5 km/h (1 Bft) NW 311 0 min 0,000 mm 0,7 UV-I 106 W/m 10,8 C 12,7 C 4,8 km/h (1 Bft) 100,00 %
02.09.2017 12:52 12,6 C 20,6 C 88 % 1015,1 hPa 0,0 l/m 1,7 km/h (1 Bft) N 355 0 min 0,000 mm 0,7 UV-I 110 W/m 10,7 C 12,6 C 4,8 km/h (1 Bft) 97,87 %
02.09.2017 12:54 12,6 C 20,6 C 88 % 1015,1 hPa 0,0 l/m 1,7 km/h (1 Bft) N-NW 339 0 min 0,000 mm 0,7 UV-I 104 W/m 10,7 C 12,6 C 4,8 km/h (1 Bft) 100,00 %
02.09.2017 12:56 12,6 C 20,6 C 88 % 1015,1 hPa 0,0 l/m 0,4 km/h (0 Bft) N-NW 340 0 min 0,000 mm 0,7 UV-I 98 W/m 10,7 C 12,6 C 3,2 km/h (1 Bft) 100,00 %
02.09.2017 12:58 12,7 C 20,6 C 89 % 1015,1 hPa 0,0 l/m 0,0 km/h (0 Bft) N-NW 340 0 min 0,000 mm 0,7 UV-I 101 W/m 10,9 C 12,7 C 0,0 km/h (0 Bft) 100,00 %
02.09.2017 13:00 12,7 C 20,6 C 89 % 1015,1 hPa 0,0 l/m 0,6 km/h (0 Bft) N-NW 340 0 min 0,000 mm 0,7 UV-I 101 W/m 10,9 C 12,7 C 3,2 km/h (1 Bft) 100,00 %
02.09.2017 13:02 12,7 C 20,6 C 89 % 1015,0 hPa 0,0 l/m 1,2 km/h (1 Bft) N 11 0 min 0,076 mm 0,7 UV-I 97 W/m 10,9 C 12,7 C 3,2 km/h (1 Bft) 97,37 %
02.09.2017 13:04 12,7 C 20,6 C 88 % 1015,0 hPa 0,0 l/m 2,2 km/h (1 Bft) N-NW 348 0 min 0,000 mm 0,7 UV-I 99 W/m 10,8 C 12,7 C 4,8 km/h (1 Bft) 97,87 %
02.09.2017 13:06 12,7 C 20,6 C 89 % 1014,9 hPa 0,0 l/m 1,5 km/h (1 Bft) N-NW 329 0 min 0,000 mm 0,7 UV-I 107 W/m 10,9 C 12,7 C 3,2 km/h (1 Bft) 97,87 %
02.09.2017 13:08 12,7 C 20,6 C 89 % 1014,9 hPa 0,0 l/m 3,8 km/h (1 Bft) N-NW 338 0 min 0,000 mm 0,6 UV-I 94 W/m 10,9 C 12,7 C 6,4 km/h (2 Bft) 98,00 %
02.09.2017 13:10 12,6 C 20,6 C 89 % 1014,9 hPa 0,0 l/m 3,7 km/h (1 Bft) N-NW 348 0 min 0,000 mm 0,5 UV-I 84 W/m 10,8 C 12,6 C 8,0 km/h (2 Bft) 97,87 %
02.09.2017 13:12 12,6 C 20,6 C 89 % 1014,9 hPa 0,0 l/m 2,5 km/h (1 Bft) N 350 0 min 0,000 mm 0,6 UV-I 90 W/m 10,8 C 12,6 C 6,4 km/h (2 Bft) 95,83 %
02.09.2017 13:14 12,6 C 20,6 C 89 % 1014,9 hPa 0,0 l/m 2,9 km/h (1 Bft) NW 323 0 min 0,000 mm 0,6 UV-I 96 W/m 10,8 C 12,6 C 4,8 km/h (1 Bft) 95,74 %
02.09.2017 13:16 12,6 C 20,6 C 89 % 1015,0 hPa 0,0 l/m 3,0 km/h (1 Bft) NW 324 0 min 0,000 mm 0,7 UV-I 99 W/m 10,8 C 12,6 C 8,0 km/h (2 Bft) 98,00 %
02.09.2017 13:18 12,6 C 20,6 C 89 % 1015,0 hPa 0,0 l/m 1,6 km/h (1 Bft) N-NW 336 0 min 0,000 mm 0,7 UV-I 104 W/m 10,8 C 12,6 C 6,4 km/h (2 Bft) 95,74 %
02.09.2017 13:20 12,6 C 20,6 C 89 % 1015,1 hPa 0,0 l/m 3,3 km/h (1 Bft) N-NW 333 0 min 0,000 mm 0,7 UV-I 105 W/m 10,8 C 12,6 C 6,4 km/h (2 Bft) 95,74 %
02.09.2017 13:22 12,5 C 20,6 C 89 % 1015,0 hPa 0,0 l/m 2,5 km/h (1 Bft) N 351 0 min 0,000 mm 0,6 UV-I 100 W/m 10,7 C 12,5 C 4,8 km/h (1 Bft) 97,87 %
02.09.2017 13:24 12,6 C 20,6 C 89 % 1015,0 hPa 0,0 l/m 1,9 km/h (1 Bft) N 355 0 min 0,000 mm 0,6 UV-I 96 W/m 10,8 C 12,6 C 4,8 km/h (1 Bft) 97,56 %
02.09.2017 13:26 12,6 C 20,6 C 89 % 1015,0 hPa 0,0 l/m 1,4 km/h (1 Bft) N 11 0 min 0,000 mm 0,7 UV-I 107 W/m 10,8 C 12,6 C 3,2 km/h (1 Bft) 95,74 %
02.09.2017 13:28 12,6 C 20,6 C 89 % 1015,0 hPa 0,0 l/m 2,4 km/h (1 Bft) N 355 0 min 0,000 mm 0,8 UV-I 115 W/m 10,8 C 12,6 C 4,8 km/h (1 Bft) 98,00 %
02.09.2017 13:30 12,6 C 20,6 C 89 % 1014,9 hPa 0,0 l/m 2,7 km/h (1 Bft) NW 320 0 min 0,000 mm 0,7 UV-I 113 W/m 10,8 C 12,6 C 6,4 km/h (2 Bft) 93,62 %
02.09.2017 13:32 12,6 C 20,6 C 89 % 1014,9 hPa 0,0 l/m 3,5 km/h (1 Bft) NW 315 0 min 0,000 mm 0,7 UV-I 109 W/m 10,8 C 12,6 C 9,7 km/h (2 Bft) 95,74 %
02.09.2017 13:34 12,6 C 20,6 C 89 % 1014,9 hPa 0,0 l/m 3,7 km/h (1 Bft) NW 308 0 min 0,000 mm 0,7 UV-I 109 W/m 10,8 C 12,6 C 6,4 km/h (2 Bft) 98,00 %
02.09.2017 13:36 12,6 C 20,6 C 89 % 1014,9 hPa 0,0 l/m 1,4 km/h (1 Bft) NW 323 0 min 0,000 mm 0,7 UV-I 108 W/m 10,8 C 12,6 C 4,8 km/h (1 Bft) 97,87 %
02.09.2017 13:38 12,6 C 20,6 C 89 % 1014,9 hPa 0,0 l/m 4,5 km/h (1 Bft) NW 308 0 min 0,000 mm 0,6 UV-I 100 W/m 10,8 C 12,6 C 8,0 km/h (2 Bft) 97,30 %
02.09.2017 13:40 12,6 C 20,6 C 88 % 1014,9 hPa 0,0 l/m 3,3 km/h (1 Bft) NW 318 0 min 0,000 mm 0,7 UV-I 106 W/m 10,7 C 12,6 C 6,4 km/h (2 Bft) 97,87 %
02.09.2017 13:42 12,6 C 20,6 C 88 % 1014,9 hPa 0,0 l/m 2,1 km/h (1 Bft) N 355 0 min 0,000 mm 0,8 UV-I 118 W/m 10,7 C 12,6 C 4,8 km/h (1 Bft) 97,87 %
02.09.2017 13:44 12,6 C 20,6 C 88 % 1014,9 hPa 0,0 l/m 2,9 km/h (1 Bft) NW 308 0 min 0,000 mm 0,8 UV-I 118 W/m 10,7 C 12,6 C 6,4 km/h (2 Bft) 100,00 %
02.09.2017 13:46 12,7 C 20,6 C 88 % 1015,0 hPa 0,0 l/m 1,7 km/h (1 Bft) N-NW 330 0 min 0,000 mm 0,7 UV-I 112 W/m 10,8 C 12,7 C 4,8 km/h (1 Bft) 100,00 %
02.09.2017 13:48 12,7 C 20,6 C 88 % 1014,9 hPa 0,0 l/m 1,7 km/h (1 Bft) N-NO 17 0 min 0,000 mm 0,8 UV-I 116 W/m 10,8 C 12,7 C 6,4 km/h (2 Bft) 93,62 %
02.09.2017 13:50 12,7 C 20,6 C 88 % 1014,9 hPa 0,0 l/m 3,8 km/h (1 Bft) NW 316 0 min 0,000 mm 0,8 UV-I 119 W/m 10,8 C 12,7 C 6,4 km/h (2 Bft) 97,87 %
02.09.2017 13:52 12,7 C 20,6 C 88 % 1014,9 hPa 0,0 l/m 3,6 km/h (1 Bft) NW 311 0 min 0,000 mm 0,7 UV-I 116 W/m 10,8 C 12,7 C 11,3 km/h (2 Bft) 100,00 %
02.09.2017 13:54 12,7 C 20,6 C 88 % 1014,9 hPa 0,0 l/m 3,9 km/h (1 Bft) N-NW 344 0 min 0,000 mm 0,8 UV-I 120 W/m 10,8 C 12,7 C 8,0 km/h (2 Bft) 100,00 %
02.09.2017 13:56 12,7 C 20,6 C 88 % 1014,9 hPa 0,0 l/m 3,8 km/h (1 Bft) N-NW 340 0 min 0,000 mm 0,8 UV-I 127 W/m 10,8 C 12,7 C 8,0 km/h (2 Bft) 100,00 %
02.09.2017 13:58 12,7 C 20,6 C 88 % 1014,8 hPa 0,0 l/m 1,9 km/h (1 Bft) N-NW 327 0 min 0,000 mm 0,9 UV-I 141 W/m 10,8 C 12,7 C 4,8 km/h (1 Bft) 100,00 %
02.09.2017 14:00 12,7 C 20,6 C 88 % 1014,8 hPa 0,0 l/m 1,9 km/h (1 Bft) N-NW 347 0 min 0,051 mm 0,9 UV-I 149 W/m 10,8 C 12,7 C 4,8 km/h (1 Bft) 100,00 %
02.09.2017 14:02 12,8 C 20,6 C 88 % 1014,8 hPa 0,0 l/m 1,3 km/h (1 Bft) N 350 0 min 0,000 mm 0,9 UV-I 133 W/m 10,9 C 12,8 C 3,2 km/h (1 Bft) 97,87 %
02.09.2017 14:04 12,8 C 20,6 C 88 % 1014,9 hPa 0,0 l/m 2,3 km/h (1 Bft) N 10 0 min 0,000 mm 0,9 UV-I 135 W/m 10,9 C 12,8 C 4,8 km/h (1 Bft) 97,87 %
02.09.2017 14:06 12,8 C 20,6 C 88 % 1014,8 hPa 0,0 l/m 1,9 km/h (1 Bft) N-NW 344 0 min 0,000 mm 1,0 UV-I 148 W/m 10,9 C 12,8 C 4,8 km/h (1 Bft) 97,37 %
02.09.2017 14:08 12,8 C 20,6 C 88 % 1014,8 hPa 0,0 l/m 2,5 km/h (1 Bft) N-NW 329 0 min 0,000 mm 1,0 UV-I 144 W/m 10,9 C 12,8 C 4,8 km/h (1 Bft) 100,00 %
02.09.2017 14:10 12,9 C 20,6 C 88 % 1014,8 hPa 0,0 l/m 2,6 km/h (1 Bft) N 355 0 min 0,000 mm 0,9 UV-I 141 W/m 11,0 C 12,9 C 4,8 km/h (1 Bft) 97,87 %
02.09.2017 14:12 12,9 C 20,6 C 88 % 1014,8 hPa 0,0 l/m 3,7 km/h (1 Bft) N 9 0 min 0,000 mm 0,9 UV-I 138 W/m 11,0 C 12,9 C 9,7 km/h (2 Bft) 97,87 %
02.09.2017 14:14 12,9 C 20,6 C 88 % 1014,7 hPa 0,0 l/m 4,9 km/h (1 Bft) N-NW 345 0 min 0,000 mm 0,9 UV-I 133 W/m 11,0 C 12,9 C 12,9 km/h (3 Bft) 100,00 %
02.09.2017 14:16 12,9 C 20,6 C 87 % 1014,8 hPa 0,0 l/m 3,1 km/h (1 Bft) N-NW 327 0 min 0,000 mm 0,8 UV-I 127 W/m 10,8 C 12,9 C 6,4 km/h (2 Bft) 100,00 %
02.09.2017 14:18 12,8 C 20,6 C 88 % 1014,8 hPa 0,0 l/m 3,3 km/h (1 Bft) N-NW 336 0 min 0,000 mm 0,8 UV-I 120 W/m 10,9 C 12,8 C 8,0 km/h (2 Bft) 97,87 %
02.09.2017 14:20 12,8 C 20,6 C 87 % 1014,7 hPa 0,0 l/m 3,6 km/h (1 Bft) N 11 0 min 0,000 mm 0,8 UV-I 118 W/m 10,7 C 12,8 C 6,4 km/h (2 Bft) 100,00 %
02.09.2017 14:22 12,8 C 20,6 C 88 % 1014,8 hPa 0,0 l/m 3,2 km/h (1 Bft) N-NO 18 0 min 0,000 mm 0,8 UV-I 114 W/m 10,9 C 12,8 C 6,4 km/h (2 Bft) 97,87 %
02.09.2017 14:24 12,8 C 20,6 C 88 % 1014,8 hPa 0,0 l/m 4,7 km/h (1 Bft) N-NW 331 0 min 0,000 mm 0,7 UV-I 108 W/m 10,9 C 12,8 C 12,9 km/h (3 Bft) 91,84 %
02.09.2017 14:26 12,7 C 20,6 C 87 % 1014,8 hPa 0,0 l/m 4,5 km/h (1 Bft) N-NW 333 0 min 0,000 mm 0,8 UV-I 113 W/m 10,6 C 12,7 C 12,9 km/h (3 Bft) 97,30 %
02.09.2017 14:28 12,7 C 20,6 C 87 % 1014,7 hPa 0,0 l/m 4,3 km/h (1 Bft) NW 319 0 min 0,000 mm 0,9 UV-I 130 W/m 10,6 C 12,7 C 8,0 km/h (2 Bft) 93,75 %
02.09.2017 14:30 12,8 C 20,6 C 88 % 1014,7 hPa 0,0 l/m 3,7 km/h (1 Bft) NW 304 0 min 0,000 mm 0,9 UV-I 144 W/m 10,9 C 12,8 C 6,4 km/h (2 Bft) 97,87 %
02.09.2017 14:32 12,8 C 20,6 C 88 % 1014,8 hPa 0,0 l/m 2,3 km/h (1 Bft) N-NW 348 0 min 0,000 mm 0,9 UV-I 145 W/m 10,9 C 12,8 C 4,8 km/h (1 Bft) 96,00 %
02.09.2017 14:34 12,8 C 20,6 C 88 % 1014,7 hPa 0,0 l/m 2,5 km/h (1 Bft) N 355 0 min 0,000 mm 0,9 UV-I 149 W/m 10,9 C 12,8 C 4,8 km/h (1 Bft) 95,92 %
02.09.2017 14:36 12,9 C 20,6 C 89 % 1014,7 hPa 0,0 l/m 2,6 km/h (1 Bft) N-NW 340 0 min 0,000 mm 1,0 UV-I 160 W/m 11,1 C 12,9 C 4,8 km/h (1 Bft) 98,00 %
02.09.2017 14:38 12,9 C 20,6 C 89 % 1014,7 hPa 0,0 l/m 1,5 km/h (1 Bft) N 5 0 min 0,000 mm 0,9 UV-I 151 W/m 11,1 C 12,9 C 3,2 km/h (1 Bft) 97,87 %
02.09.2017 14:40 12,9 C 20,6 C 89 % 1014,7 hPa 0,0 l/m 2,2 km/h (1 Bft) NW 306 0 min 0,000 mm 0,8 UV-I 133 W/m 11,1 C 12,9 C 4,8 km/h (1 Bft) 97,14 %
02.09.2017 14:42 12,9 C 20,6 C 89 % 1014,7 hPa 0,0 l/m 2,0 km/h (1 Bft) N-NW 346 0 min 0,000 mm 0,7 UV-I 115 W/m 11,1 C 12,9 C 4,8 km/h (1 Bft) 97,87 %
02.09.2017 14:44 12,9 C 20,6 C 88 % 1014,8 hPa 0,0 l/m 3,2 km/h (1 Bft) N-NW 346 0 min 0,000 mm 0,6 UV-I 92 W/m 11,0 C 12,9 C 6,4 km/h (2 Bft) 97,96 %
02.09.2017 14:46 12,9 C 20,6 C 88 % 1014,8 hPa 0,0 l/m 2,7 km/h (1 Bft) N-NO 26 0 min 0,000 mm 0,5 UV-I 79 W/m 11,0 C 12,9 C 6,4 km/h (2 Bft) 98,00 %
02.09.2017 14:48 12,9 C 20,6 C 89 % 1014,8 hPa 0,0 l/m 0,9 km/h (0 Bft) N-NO 24 0 min 0,000 mm 0,1 UV-I 70 W/m 11,1 C 12,9 C 3,2 km/h (1 Bft) 97,14 %
02.09.2017 14:50 12,9 C 20,6 C 89 % 1014,8 hPa 0,0 l/m 1,7 km/h (1 Bft) NW 320 0 min 0,000 mm 0,0 UV-I 64 W/m 11,1 C 12,9 C 6,4 km/h (2 Bft) 96,77 %
02.09.2017 14:52 12,8 C 20,6 C 89 % 1014,8 hPa 0,0 l/m 2,0 km/h (1 Bft) N 5 0 min 0,000 mm 0,0 UV-I 62 W/m 11,0 C 12,8 C 3,2 km/h (1 Bft) 97,87 %
02.09.2017 14:54 12,8 C 20,6 C 89 % 1014,8 hPa 0,0 l/m 1,8 km/h (1 Bft) N-NW 342 0 min 0,000 mm 0,0 UV-I 62 W/m 11,0 C 12,8 C 4,8 km/h (1 Bft) 95,74 %
02.09.2017 14:56 12,7 C 20,6 C 89 % 1014,8 hPa 0,0 l/m 1,4 km/h (1 Bft) N-NW 346 0 min 0,000 mm 0,0 UV-I 63 W/m 10,9 C 12,7 C 3,2 km/h (1 Bft) 97,87 %
02.09.2017 14:58 12,7 C 20,6 C 90 % 1014,7 hPa 0,0 l/m 1,3 km/h (1 Bft) N-NW 340 0 min 0,000 mm 0,0 UV-I 61 W/m 11,1 C 12,7 C 3,2 km/h (1 Bft) 97,37 %
02.09.2017 15:00 12,7 C 20,6 C 90 % 1014,7 hPa 0,0 l/m 2,8 km/h (1 Bft) N-NO 26 0 min 0,000 mm 0,0 UV-I 54 W/m 11,1 C 12,7 C 6,4 km/h (2 Bft) 97,87 %
02.09.2017 15:02 12,7 C 20,6 C 90 % 1014,8 hPa 0,0 l/m 1,0 km/h (0 Bft) N-NO 16 0 min 0,051 mm 0,0 UV-I 45 W/m 11,1 C 12,7 C 3,2 km/h (1 Bft) 97,87 %
02.09.2017 15:04 12,6 C 20,6 C 90 % 1014,8 hPa 0,0 l/m 0,1 km/h (0 Bft) N-NO 16 0 min 0,000 mm 0,0 UV-I 40 W/m 11,0 C 12,6 C 1,6 km/h (1 Bft) 97,87 %
02.09.2017 15:06 12,6 C 20,6 C 91 % 1014,8 hPa 0,0 l/m 0,9 km/h (0 Bft) N-NO 15 0 min 0,000 mm 0,0 UV-I 38 W/m 11,2 C 12,6 C 3,2 km/h (1 Bft) 96,00 %
02.09.2017 15:08 12,5 C 20,6 C 91 % 1014,7 hPa 0,0 l/m 1,1 km/h (1 Bft) N-NO 13 0 min 0,000 mm 0,0 UV-I 37 W/m 11,1 C 12,5 C 3,2 km/h (1 Bft) 95,74 %
02.09.2017 15:10 12,4 C 20,6 C 91 % 1014,7 hPa 0,0 l/m 0,0 km/h (0 Bft) N-NO 13 0 min 0,000 mm 0,0 UV-I 38 W/m 11,0 C 12,4 C 0,0 km/h (0 Bft) 90,00 %
02.09.2017 15:12 12,4 C 20,6 C 91 % 1014,7 hPa 0,0 l/m 2,1 km/h (1 Bft) SW 229 0 min 0,000 mm 0,0 UV-I 40 W/m 11,0 C 12,4 C 4,8 km/h (1 Bft) 95,83 %
02.09.2017 15:14 12,4 C 20,6 C 91 % 1014,7 hPa 0,0 l/m 0,8 km/h (0 Bft) W-SW 238 0 min 0,000 mm 0,0 UV-I 41 W/m 11,0 C 12,4 C 3,2 km/h (1 Bft) 94,00 %
02.09.2017 15:16 12,3 C 20,6 C 92 % 1014,7 hPa 0,0 l/m 0,4 km/h (0 Bft) W-SW 238 0 min 0,000 mm 0,0 UV-I 42 W/m 11,0 C 12,3 C 3,2 km/h (1 Bft) 95,74 %
02.09.2017 15:18 12,3 C 20,6 C 92 % 1014,7 hPa 0,0 l/m 0,2 km/h (0 Bft) W-SW 238 0 min 0,000 mm 0,0 UV-I 42 W/m 11,0 C 12,3 C 1,6 km/h (1 Bft) 94,29 %
02.09.2017 15:20 12,3 C 20,6 C 92 % 1014,7 hPa 0,0 l/m 1,3 km/h (1 Bft) W-SW 244 0 min 0,000 mm 0,0 UV-I 44 W/m 11,0 C 12,3 C 3,2 km/h (1 Bft) 96,00 %
02.09.2017 15:22 12,3 C 20,6 C 92 % 1014,8 hPa 0,0 l/m 1,6 km/h (1 Bft) N 5 0 min 0,000 mm 0,0 UV-I 46 W/m 11,0 C 12,3 C 6,4 km/h (2 Bft) 96,00 %
02.09.2017 15:24 12,3 C 20,6 C 93 % 1014,7 hPa 0,0 l/m 0,0 km/h (0 Bft) N 5 0 min 0,000 mm 0,0 UV-I 49 W/m 11,2 C 12,3 C 1,6 km/h (1 Bft) 95,74 %
02.09.2017 15:26 12,3 C 20,6 C 93 % 1014,6 hPa 0,0 l/m 0,1 km/h (0 Bft) N 5 0 min 0,000 mm 0,0 UV-I 58 W/m 11,2 C 12,3 C 1,6 km/h (1 Bft) 95,74 %
02.09.2017 15:28 12,2 C 20,6 C 93 % 1014,6 hPa 0,0 l/m 0,2 km/h (0 Bft) N 5 0 min 0,000 mm 0,0 UV-I 66 W/m 11,1 C 12,2 C 1,6 km/h (1 Bft) 97,87 %
02.09.2017 15:30 12,3 C 20,6 C 94 % 1014,6 hPa 0,0 l/m 1,0 km/h (0 Bft) NW 319 0 min 0,000 mm 0,0 UV-I 68 W/m 11,4 C 12,3 C 3,2 km/h (1 Bft) 95,74 %
02.09.2017 15:32 12,3 C 20,6 C 94 % 1014,6 hPa 0,0 l/m 3,0 km/h (1 Bft) N-NW 348 0 min 0,000 mm 0,0 UV-I 62 W/m 11,4 C 12,3 C 4,8 km/h (1 Bft) 96,00 %
02.09.2017 15:34 12,2 C 20,6 C 93 % 1014,5 hPa 0,0 l/m 2,5 km/h (1 Bft) NO 34 0 min 0,000 mm 0,0 UV-I 59 W/m 11,1 C 12,2 C 4,8 km/h (1 Bft) 97,87 %
02.09.2017 15:36 12,2 C 20,6 C 93 % 1014,5 hPa 0,0 l/m 2,1 km/h (1 Bft) N 355 0 min 0,000 mm 0,0 UV-I 59 W/m 11,1 C 12,2 C 4,8 km/h (1 Bft) 97,87 %
02.09.2017 15:38 12,2 C 20,6 C 94 % 1014,5 hPa 0,2 l/m 1,2 km/h (1 Bft) N 355 0 min 0,000 mm 0,0 UV-I 63 W/m 11,3 C 12,2 C 3,2 km/h (1 Bft) 97,87 %
02.09.2017 15:40 12,1 C 20,6 C 94 % 1014,5 hPa 0,0 l/m 1,1 km/h (1 Bft) NW 318 0 min 0,000 mm 0,0 UV-I 63 W/m 11,2 C 12,1 C 4,8 km/h (1 Bft) 97,87 %
02.09.2017 15:42 12,0 C 20,6 C 94 % 1014,6 hPa 0,0 l/m 1,0 km/h (0 Bft) NW 306 0 min 0,000 mm 0,0 UV-I 61 W/m 11,1 C 12,0 C 4,8 km/h (1 Bft) 100,00 %
02.09.2017 15:44 12,1 C 20,6 C 94 % 1014,6 hPa 0,0 l/m 1,5 km/h (1 Bft) W-SW 255 0 min 0,000 mm 0,0 UV-I 61 W/m 11,2 C 12,1 C 3,2 km/h (1 Bft) 100,00 %
02.09.2017 15:46 12,1 C 20,6 C 94 % 1014,5 hPa 0,0 l/m 0,7 km/h (0 Bft) W 279 0 min 0,000 mm 0,0 UV-I 62 W/m 11,2 C 12,1 C 3,2 km/h (1 Bft) 97,87 %
02.09.2017 15:48 12,2 C 20,6 C 95 % 1014,6 hPa 0,0 l/m 0,2 km/h (0 Bft) W 279 0 min 0,000 mm 0,0 UV-I 59 W/m 11,4 C 12,2 C 1,6 km/h (1 Bft) 100,00 %
02.09.2017 15:50 12,2 C 20,6 C 95 % 1014,6 hPa 0,0 l/m 0,2 km/h (0 Bft) W 279 0 min 0,000 mm 0,0 UV-I 55 W/m 11,4 C 12,2 C 1,6 km/h (1 Bft) 100,00 %
02.09.2017 15:52 12,2 C 20,6 C 95 % 1014,6 hPa 0,0 l/m 0,1 km/h (0 Bft) W 279 0 min 0,000 mm 0,0 UV-I 54 W/m 11,4 C 12,2 C 1,6 km/h (1 Bft) 93,62 %
02.09.2017 15:54 12,2 C 20,6 C 95 % 1014,6 hPa 0,0 l/m 0,1 km/h (0 Bft) W 279 0 min 0,000 mm 0,0 UV-I 55 W/m 11,4 C 12,2 C 1,6 km/h (1 Bft) 97,87 %
02.09.2017 15:56 12,2 C 20,6 C 95 % 1014,6 hPa 0,0 l/m 0,1 km/h (0 Bft) W 279 0 min 0,000 mm 0,0 UV-I 59 W/m 11,4 C 12,2 C 1,6 km/h (1 Bft) 97,87 %
02.09.2017 15:58 12,2 C 20,6 C 95 % 1014,6 hPa 0,0 l/m 3,1 km/h (1 Bft) NW 309 0 min 0,000 mm 0,0 UV-I 58 W/m 11,4 C 12,2 C 6,4 km/h (2 Bft) 100,00 %
02.09.2017 16:00 12,1 C 20,6 C 95 % 1014,5 hPa 0,0 l/m 1,4 km/h (1 Bft) NW 309 0 min 0,025 mm 0,0 UV-I 57 W/m 11,3 C 12,1 C 4,8 km/h (1 Bft) 100,00 %
02.09.2017 16:02 12,1 C 20,6 C 95 % 1014,5 hPa 0,0 l/m 0,8 km/h (0 Bft) NW 309 0 min 0,000 mm 0,0 UV-I 55 W/m 11,3 C 12,1 C 3,2 km/h (1 Bft) 97,87 %
02.09.2017 16:04 12,1 C 20,6 C 95 % 1014,5 hPa 0,0 l/m 1,1 km/h (1 Bft) NW 309 0 min 0,000 mm 0,0 UV-I 54 W/m 11,3 C 12,1 C 3,2 km/h (1 Bft) 100,00 %
02.09.2017 16:06 12,1 C 20,6 C 95 % 1014,5 hPa 0,0 l/m 1,2 km/h (1 Bft) NW 309 0 min 0,000 mm 0,0 UV-I 49 W/m 11,3 C 12,1 C 3,2 km/h (1 Bft) 97,87 %
02.09.2017 16:08 12,1 C 20,6 C 95 % 1014,5 hPa 0,0 l/m 0,3 km/h (0 Bft) NW 309 0 min 0,000 mm 0,0 UV-I 42 W/m 11,3 C 12,1 C 1,6 km/h (1 Bft) 100,00 %
02.09.2017 16:10 12,1 C 20,6 C 95 % 1014,6 hPa 0,2 l/m 0,4 km/h (0 Bft) NW 309 0 min 0,000 mm 0,0 UV-I 36 W/m 11,3 C 12,1 C 1,6 km/h (1 Bft) 100,00 %
02.09.2017 16:12 12,1 C 20,6 C 95 % 1014,6 hPa 0,0 l/m 0,4 km/h (0 Bft) NW 309 0 min 0,000 mm 0,0 UV-I 38 W/m 11,3 C 12,1 C 1,6 km/h (1 Bft) 100,00 %
02.09.2017 16:14 12,1 C 20,6 C 95 % 1014,6 hPa 0,0 l/m 0,3 km/h (0 Bft) NW 309 0 min 0,000 mm 0,0 UV-I 38 W/m 11,3 C 12,1 C 1,6 km/h (1 Bft) 95,74 %
02.09.2017 16:16 12,1 C 20,6 C 95 % 1014,6 hPa 0,0 l/m 1,2 km/h (1 Bft) NW 309 0 min 0,000 mm 0,0 UV-I 37 W/m 11,3 C 12,1 C 3,2 km/h (1 Bft) 100,00 %
02.09.2017 16:18 12,0 C 20,6 C 95 % 1014,6 hPa 0,0 l/m 1,4 km/h (1 Bft) NW 309 0 min 0,000 mm 0,0 UV-I 39 W/m 11,2 C 12,0 C 3,2 km/h (1 Bft) 100,00 %
02.09.2017 16:20 12,0 C 20,6 C 95 % 1014,5 hPa 0,0 l/m 0,7 km/h (0 Bft) NW 309 0 min 0,000 mm 0,0 UV-I 41 W/m 11,2 C 12,0 C 1,6 km/h (1 Bft) 100,00 %
02.09.2017 16:22 12,0 C 20,6 C 95 % 1014,5 hPa 0,0 l/m 0,6 km/h (0 Bft) NW 310 0 min 0,000 mm 0,0 UV-I 50 W/m 11,2 C 12,0 C 3,2 km/h (1 Bft) 100,00 %
02.09.2017 16:24 12,0 C 20,6 C 95 % 1014,5 hPa 0,0 l/m 1,3 km/h (1 Bft) NW 317 0 min 0,000 mm 0,0 UV-I 52 W/m 11,2 C 12,0 C 4,8 km/h (1 Bft) 95,74 %
02.09.2017 16:26 12,0 C 20,6 C 95 % 1014,5 hPa 0,0 l/m 0,9 km/h (0 Bft) N-NW 330 0 min 0,000 mm 0,0 UV-I 53 W/m 11,2 C 12,0 C 3,2 km/h (1 Bft) 100,00 %
02.09.2017 16:28 11,9 C 20,6 C 95 % 1014,4 hPa 0,0 l/m 2,9 km/h (1 Bft) N-NW 327 0 min 0,000 mm 0,0 UV-I 55 W/m 11,1 C 11,9 C 6,4 km/h (2 Bft) 100,00 %
02.09.2017 16:30 11,9 C 20,6 C 95 % 1014,4 hPa 0,2 l/m 0,8 km/h (0 Bft) NW 325 0 min 0,000 mm 0,0 UV-I 61 W/m 11,1 C 11,9 C 3,2 km/h (1 Bft) 100,00 %
02.09.2017 16:32 11,9 C 20,6 C 96 % 1014,4 hPa 0,0 l/m 1,7 km/h (1 Bft) NW 324 0 min 0,000 mm 0,0 UV-I 63 W/m 11,3 C 11,9 C 4,8 km/h (1 Bft) 100,00 %
02.09.2017 16:34 11,9 C 20,6 C 96 % 1014,4 hPa 0,0 l/m 0,8 km/h (0 Bft) NW 325 0 min 0,000 mm 0,0 UV-I 57 W/m 11,3 C 11,9 C 3,2 km/h (1 Bft) 100,00 %
02.09.2017 16:36 12,0 C 20,6 C 96 % 1014,3 hPa 0,0 l/m 1,8 km/h (1 Bft) NW 313 0 min 0,000 mm 0,0 UV-I 59 W/m 11,4 C 12,0 C 4,8 km/h (1 Bft) 95,74 %
02.09.2017 16:38 11,9 C 20,6 C 96 % 1014,3 hPa 0,0 l/m 4,1 km/h (1 Bft) NW 308 0 min 0,000 mm 0,0 UV-I 64 W/m 11,3 C 11,9 C 9,7 km/h (2 Bft) 100,00 %
02.09.2017 16:40 11,9 C 20,6 C 96 % 1014,2 hPa 0,0 l/m 3,5 km/h (1 Bft) W-NW 282 0 min 0,000 mm 0,0 UV-I 62 W/m 11,3 C 11,9 C 11,3 km/h (2 Bft) 100,00 %
02.09.2017 16:42 11,9 C 20,6 C 96 % 1014,2 hPa 0,0 l/m 3,3 km/h (1 Bft) NO 43 0 min 0,000 mm 0,0 UV-I 62 W/m 11,3 C 11,9 C 6,4 km/h (2 Bft) 97,87 %
02.09.2017 16:44 11,9 C 20,6 C 96 % 1014,2 hPa 0,0 l/m 2,2 km/h (1 Bft) W-NW 287 0 min 0,000 mm 0,0 UV-I 70 W/m 11,3 C 11,9 C 6,4 km/h (2 Bft) 97,87 %
02.09.2017 16:46 11,9 C 20,6 C 96 % 1014,2 hPa 0,0 l/m 1,6 km/h (1 Bft) N 350 0 min 0,000 mm 0,0 UV-I 75 W/m 11,3 C 11,9 C 4,8 km/h (1 Bft) 100,00 %
02.09.2017 16:48 11,9 C 20,6 C 96 % 1014,3 hPa 0,0 l/m 0,9 km/h (0 Bft) N-NW 327 0 min 0,000 mm 0,0 UV-I 81 W/m 11,3 C 11,9 C 4,8 km/h (1 Bft) 100,00 %
02.09.2017 16:50 12,0 C 20,6 C 96 % 1014,3 hPa 0,0 l/m 0,9 km/h (0 Bft) N 355 0 min 0,000 mm 0,0 UV-I 74 W/m 11,4 C 12,0 C 3,2 km/h (1 Bft) 100,00 %
02.09.2017 16:52 12,0 C 20,6 C 96 % 1014,3 hPa 0,0 l/m 1,1 km/h (1 Bft) N 355 0 min 0,000 mm 0,0 UV-I 64 W/m 11,4 C 12,0 C 3,2 km/h (1 Bft) 97,87 %
02.09.2017 16:54 12,1 C 20,6 C 96 % 1014,3 hPa 0,2 l/m 0,8 km/h (0 Bft) N 355 0 min 0,000 mm 0,0 UV-I 57 W/m 11,5 C 12,1 C 3,2 km/h (1 Bft) 100,00 %
02.09.2017 16:56 12,1 C 20,6 C 96 % 1014,3 hPa 0,0 l/m 2,4 km/h (1 Bft) N-NW 341 0 min 0,000 mm 0,0 UV-I 54 W/m 11,5 C 12,1 C 6,4 km/h (2 Bft) 100,00 %
02.09.2017 16:58 12,1 C 20,6 C 96 % 1014,3 hPa 0,0 l/m 3,8 km/h (1 Bft) NW 319 0 min 0,000 mm 0,0 UV-I 50 W/m 11,5 C 12,1 C 6,4 km/h (2 Bft) 97,87 %
02.09.2017 17:00 12,1 C 20,6 C 96 % 1014,3 hPa 0,0 l/m 1,7 km/h (1 Bft) NW 325 0 min 0,000 mm 0,0 UV-I 52 W/m 11,5 C 12,1 C 4,8 km/h (1 Bft) 98,00 %
02.09.2017 17:02 12,1 C 20,6 C 96 % 1014,3 hPa 0,0 l/m 2,4 km/h (1 Bft) N 355 0 min 0,026 mm 0,0 UV-I 56 W/m 11,5 C 12,1 C 6,4 km/h (2 Bft) 100,00 %
02.09.2017 17:04 12,0 C 20,6 C 96 % 1014,4 hPa 0,0 l/m 2,1 km/h (1 Bft) N-NW 330 0 min 0,000 mm 0,0 UV-I 55 W/m 11,4 C 12,0 C 4,8 km/h (1 Bft) 97,87 %
02.09.2017 17:06 12,0 C 20,6 C 96 % 1014,4 hPa 0,0 l/m 1,8 km/h (1 Bft) N 355 0 min 0,000 mm 0,0 UV-I 50 W/m 11,4 C 12,0 C 6,4 km/h (2 Bft) 95,74 %
02.09.2017 17:08 12,0 C 20,6 C 96 % 1014,3 hPa 0,0 l/m 2,5 km/h (1 Bft) N-NO 25 0 min 0,000 mm 0,0 UV-I 46 W/m 11,4 C 12,0 C 6,4 km/h (2 Bft) 94,44 %
02.09.2017 17:10 12,1 C 20,6 C 96 % 1014,3 hPa 0,0 l/m 3,3 km/h (1 Bft) NW 325 0 min 0,000 mm 0,0 UV-I 44 W/m 11,5 C 12,1 C 8,0 km/h (2 Bft) 98,39 %
02.09.2017 17:12 12,0 C 20,6 C 96 % 1014,3 hPa 0,0 l/m 2,7 km/h (1 Bft) N-NW 341 0 min 0,000 mm 0,0 UV-I 42 W/m 11,4 C 12,0 C 6,4 km/h (2 Bft) 97,37 %
02.09.2017 17:14 12,0 C 20,6 C 96 % 1014,3 hPa 0,0 l/m 2,9 km/h (1 Bft) N 349 0 min 0,000 mm 0,0 UV-I 42 W/m 11,4 C 12,0 C 6,4 km/h (2 Bft) 96,00 %
02.09.2017 17:16 11,9 C 20,6 C 96 % 1014,2 hPa 0,0 l/m 2,9 km/h (1 Bft) N-NW 329 0 min 0,000 mm 0,0 UV-I 45 W/m 11,3 C 11,9 C 6,4 km/h (2 Bft) 96,00 %
02.09.2017 17:18 11,9 C 20,6 C 96 % 1014,2 hPa 0,0 l/m 2,5 km/h (1 Bft) N-NW 330 0 min 0,000 mm 0,0 UV-I 46 W/m 11,3 C 11,9 C 6,4 km/h (2 Bft) 98,00 %
02.09.2017 17:20 11,8 C 20,6 C 96 % 1014,1 hPa 0,0 l/m 5,0 km/h (1 Bft) N-NW 340 0 min 0,000 mm 0,0 UV-I 44 W/m 11,2 C 11,8 C 12,9 km/h (3 Bft) 95,74 %
02.09.2017 17:22 11,8 C 20,6 C 96 % 1014,1 hPa 0,0 l/m 0,8 km/h (0 Bft) N-NW 338 0 min 0,000 mm 0,0 UV-I 44 W/m 11,2 C 11,8 C 3,2 km/h (1 Bft) 97,87 %
02.09.2017 17:24 11,8 C 20,6 C 96 % 1014,1 hPa 0,0 l/m 3,0 km/h (1 Bft) N 350 0 min 0,000 mm 0,0 UV-I 45 W/m 11,2 C 11,8 C 8,0 km/h (2 Bft) 97,87 %
02.09.2017 17:26 11,8 C 20,6 C 96 % 1014,1 hPa 0,0 l/m 3,0 km/h (1 Bft) NW 304 0 min 0,000 mm 0,0 UV-I 43 W/m 11,2 C 11,8 C 6,4 km/h (2 Bft) 95,74 %
02.09.2017 17:28 11,7 C 20,6 C 96 % 1014,1 hPa 0,0 l/m 3,3 km/h (1 Bft) N 10 0 min 0,000 mm 0,0 UV-I 40 W/m 11,1 C 11,7 C 6,4 km/h (2 Bft) 97,87 %
02.09.2017 17:30 11,7 C 20,6 C 96 % 1014,1 hPa 0,0 l/m 1,3 km/h (1 Bft) N 5 0 min 0,000 mm 0,0 UV-I 38 W/m 11,1 C 11,7 C 3,2 km/h (1 Bft) 95,74 %
02.09.2017 17:32 11,7 C 20,6 C 96 % 1014,1 hPa 0,0 l/m 2,1 km/h (1 Bft) NW 320 0 min 0,000 mm 0,0 UV-I 37 W/m 11,1 C 11,7 C 4,8 km/h (1 Bft) 95,74 %
02.09.2017 17:34 11,7 C 20,6 C 96 % 1014,1 hPa 0,0 l/m 0,3 km/h (0 Bft) NW 321 0 min 0,000 mm 0,0 UV-I 37 W/m 11,1 C 11,7 C 1,6 km/h (1 Bft) 100,00 %
02.09.2017 17:36 11,7 C 20,6 C 96 % 1014,0 hPa 0,0 l/m 0,7 km/h (0 Bft) NW 321 0 min 0,000 mm 0,0 UV-I 39 W/m 11,1 C 11,7 C 1,6 km/h (1 Bft) 97,87 %
02.09.2017 17:38 11,7 C 20,6 C 96 % 1014,1 hPa 0,0 l/m 1,1 km/h (1 Bft) NW 321 0 min 0,000 mm 0,0 UV-I 39 W/m 11,1 C 11,7 C 3,2 km/h (1 Bft) 95,74 %
02.09.2017 17:40 11,7 C 20,6 C 96 % 1014,0 hPa 0,0 l/m 1,8 km/h (1 Bft) W-NW 298 0 min 0,000 mm 0,0 UV-I 40 W/m 11,1 C 11,7 C 3,2 km/h (1 Bft) 95,74 %
02.09.2017 17:42 11,8 C 20,6 C 96 % 1014,0 hPa 0,0 l/m 1,2 km/h (1 Bft) W 275 0 min 0,000 mm 0,0 UV-I 40 W/m 11,2 C 11,8 C 6,4 km/h (2 Bft) 97,87 %
02.09.2017 17:44 11,8 C 20,6 C 96 % 1014,0 hPa 0,0 l/m 3,3 km/h (1 Bft) NW 313 0 min 0,000 mm 0,0 UV-I 39 W/m 11,2 C 11,8 C 6,4 km/h (2 Bft) 100,00 %
02.09.2017 17:46 11,8 C 20,6 C 96 % 1013,9 hPa 0,2 l/m 0,3 km/h (0 Bft) NW 313 0 min 0,000 mm 0,0 UV-I 39 W/m 11,2 C 11,8 C 1,6 km/h (1 Bft) 93,62 %
02.09.2017 17:48 11,8 C 20,6 C 96 % 1013,9 hPa 0,0 l/m 0,7 km/h (0 Bft) NW 313 0 min 0,000 mm 0,0 UV-I 38 W/m 11,2 C 11,8 C 3,2 km/h (1 Bft) 100,00 %
02.09.2017 17:50 11,8 C 20,6 C 96 % 1013,9 hPa 0,0 l/m 0,0 km/h (0 Bft) NW 313 0 min 0,000 mm 0,0 UV-I 35 W/m 11,2 C 11,8 C 0,0 km/h (0 Bft) 100,00 %
02.09.2017 17:52 11,8 C 20,6 C 96 % 1013,9 hPa 0,0 l/m 0,0 km/h (0 Bft) NW 313 0 min 0,000 mm 0,0 UV-I 35 W/m 11,2 C 11,8 C 0,0 km/h (0 Bft) 100,00 %
02.09.2017 17:54 11,8 C 20,6 C 96 % 1013,9 hPa 0,2 l/m 1,2 km/h (1 Bft) NW 308 0 min 0,000 mm 0,0 UV-I 34 W/m 11,2 C 11,8 C 4,8 km/h (1 Bft) 97,87 %
02.09.2017 17:56 11,9 C 20,6 C 96 % 1014,0 hPa 0,0 l/m 0,0 km/h (0 Bft) NW 308 0 min 0,000 mm 0,0 UV-I 36 W/m 11,3 C 11,9 C 0,0 km/h (0 Bft) 100,00 %
02.09.2017 17:58 11,9 C 20,6 C 96 % 1014,0 hPa 0,0 l/m 1,5 km/h (1 Bft) NW 310 0 min 0,000 mm 0,0 UV-I 39 W/m 11,3 C 11,9 C 3,2 km/h (1 Bft) 97,87 %
02.09.2017 18:00 11,9 C 20,6 C 96 % 1013,9 hPa 0,0 l/m 1,2 km/h (1 Bft) NW 310 0 min 0,025 mm 0,0 UV-I 42 W/m 11,3 C 11,9 C 3,2 km/h (1 Bft) 97,87 %
02.09.2017 18:02 11,9 C 20,6 C 96 % 1013,9 hPa 0,2 l/m 2,0 km/h (1 Bft) W-NW 296 0 min 0,000 mm 0,0 UV-I 44 W/m 11,3 C 11,9 C 4,8 km/h (1 Bft) 98,00 %
02.09.2017 18:04 11,9 C 20,6 C 96 % 1013,9 hPa 0,2 l/m 1,1 km/h (1 Bft) W-NW 296 0 min 0,000 mm 0,0 UV-I 42 W/m 11,3 C 11,9 C 3,2 km/h (1 Bft) 95,74 %
02.09.2017 18:06 11,9 C 20,6 C 96 % 1013,9 hPa 0,0 l/m 1,1 km/h (1 Bft) W-NW 297 0 min 0,000 mm 0,0 UV-I 40 W/m 11,3 C 11,9 C 3,2 km/h (1 Bft) 95,74 %
02.09.2017 18:08 11,9 C 20,6 C 96 % 1013,9 hPa 0,0 l/m 1,3 km/h (1 Bft) W 273 0 min 0,000 mm 0,0 UV-I 38 W/m 11,3 C 11,9 C 4,8 km/h (1 Bft) 97,87 %
02.09.2017 18:10 12,0 C 20,6 C 96 % 1013,9 hPa 0,2 l/m 0,7 km/h (0 Bft) W 273 0 min 0,000 mm 0,0 UV-I 39 W/m 11,4 C 12,0 C 4,8 km/h (1 Bft) 97,87 %
02.09.2017 18:12 12,0 C 20,6 C 96 % 1013,9 hPa 0,0 l/m 4,6 km/h (1 Bft) W 271 0 min 0,000 mm 0,0 UV-I 40 W/m 11,4 C 12,0 C 9,7 km/h (2 Bft) 97,87 %
02.09.2017 18:14 11,9 C 20,6 C 96 % 1013,9 hPa 0,0 l/m 5,3 km/h (1 Bft) W 267 0 min 0,000 mm 0,0 UV-I 39 W/m 11,3 C 11,9 C 9,7 km/h (2 Bft) 97,56 %
02.09.2017 18:16 11,9 C 20,6 C 96 % 1014,0 hPa 0,0 l/m 2,5 km/h (1 Bft) W-NW 295 0 min 0,000 mm 0,0 UV-I 40 W/m 11,3 C 11,9 C 4,8 km/h (1 Bft) 95,74 %
02.09.2017 18:18 11,9 C 20,6 C 96 % 1014,0 hPa 0,2 l/m 1,7 km/h (1 Bft) W-SW 257 0 min 0,000 mm 0,0 UV-I 39 W/m 11,3 C 11,9 C 6,4 km/h (2 Bft) 96,00 %
02.09.2017 18:20 11,9 C 20,6 C 96 % 1014,0 hPa 0,0 l/m 1,4 km/h (1 Bft) W 269 0 min 0,000 mm 0,0 UV-I 40 W/m 11,3 C 11,9 C 4,8 km/h (1 Bft) 95,74 %
02.09.2017 18:22 11,9 C 20,6 C 96 % 1013,9 hPa 0,2 l/m 0,3 km/h (0 Bft) W 269 0 min 0,000 mm 0,0 UV-I 43 W/m 11,3 C 11,9 C 1,6 km/h (1 Bft) 95,74 %
02.09.2017 18:24 11,9 C 20,6 C 96 % 1013,9 hPa 0,2 l/m 1,4 km/h (1 Bft) W 269 0 min 0,000 mm 0,0 UV-I 44 W/m 11,3 C 11,9 C 3,2 km/h (1 Bft) 97,87 %
02.09.2017 18:26 11,9 C 20,6 C 96 % 1014,0 hPa 0,0 l/m 1,1 km/h (1 Bft) W 270 0 min 0,000 mm 0,0 UV-I 40 W/m 11,3 C 11,9 C 3,2 km/h (1 Bft) 97,87 %
02.09.2017 18:28 11,9 C 20,6 C 96 % 1013,9 hPa 0,2 l/m 0,9 km/h (0 Bft) W 270 0 min 0,000 mm 0,0 UV-I 36 W/m 11,3 C 11,9 C 3,2 km/h (1 Bft) 97,92 %
02.09.2017 18:30 11,9 C 20,6 C 96 % 1013,9 hPa 0,2 l/m 0,4 km/h (0 Bft) W 270 0 min 0,000 mm 0,0 UV-I 35 W/m 11,3 C 11,9 C 3,2 km/h (1 Bft) 97,87 %
02.09.2017 18:32 11,9 C 20,6 C 96 % 1013,8 hPa 0,0 l/m 2,3 km/h (1 Bft) N-NW 344 0 min 0,000 mm 0,0 UV-I 34 W/m 11,3 C 11,9 C 4,8 km/h (1 Bft) 97,87 %
02.09.2017 18:34 11,9 C 20,6 C 96 % 1013,8 hPa 0,2 l/m 2,2 km/h (1 Bft) NW 316 0 min 0,000 mm 0,0 UV-I 35 W/m 11,3 C 11,9 C 4,8 km/h (1 Bft) 97,14 %
02.09.2017 18:36 11,9 C 20,6 C 96 % 1013,8 hPa 0,0 l/m 1,2 km/h (1 Bft) N-NW 343 0 min 0,000 mm 0,0 UV-I 30 W/m 11,3 C 11,9 C 4,8 km/h (1 Bft) 98,00 %
02.09.2017 18:38 11,9 C 20,6 C 96 % 1013,8 hPa 0,2 l/m 0,9 km/h (0 Bft) N-NW 343 0 min 0,000 mm 0,0 UV-I 24 W/m 11,3 C 11,9 C 4,8 km/h (1 Bft) 97,96 %
02.09.2017 18:40 11,9 C 20,6 C 96 % 1013,9 hPa 0,0 l/m 0,4 km/h (0 Bft) N-NW 343 0 min 0,000 mm 0,0 UV-I 19 W/m 11,3 C 11,9 C 3,2 km/h (1 Bft) 96,00 %
02.09.2017 18:42 11,9 C 20,6 C 96 % 1014,0 hPa 0,0 l/m 0,2 km/h (0 Bft) N-NW 343 0 min 0,000 mm 0,0 UV-I 17 W/m 11,3 C 11,9 C 1,6 km/h (1 Bft) 96,00 %
02.09.2017 18:44 11,9 C 20,6 C 96 % 1014,0 hPa 0,0 l/m 0,0 km/h (0 Bft) N-NW 343 0 min 0,000 mm 0,0 UV-I 16 W/m 11,3 C 11,9 C 1,6 km/h (1 Bft) 97,83 %
02.09.2017 18:46 11,9 C 20,6 C 96 % 1013,9 hPa 0,2 l/m 0,0 km/h (0 Bft) N-NW 343 0 min 0,000 mm 0,0 UV-I 18 W/m 11,3 C 11,9 C 0,0 km/h (0 Bft) 97,87 %
02.09.2017 18:48 11,9 C 20,6 C 96 % 1013,7 hPa 0,0 l/m 0,3 km/h (0 Bft) N-NW 343 0 min 0,000 mm 0,0 UV-I 19 W/m 11,3 C 11,9 C 3,2 km/h (1 Bft) 97,30 %
02.09.2017 18:50 11,9 C 20,6 C 96 % 1013,7 hPa 0,0 l/m 0,8 km/h (0 Bft) N-NW 343 0 min 0,000 mm 0,0 UV-I 19 W/m 11,3 C 11,9 C 3,2 km/h (1 Bft) 95,74 %
02.09.2017 18:52 11,9 C 20,6 C 96 % 1013,7 hPa 0,0 l/m 0,0 km/h (0 Bft) N-NW 343 0 min 0,000 mm 0,0 UV-I 18 W/m 11,3 C 11,9 C 1,6 km/h (1 Bft) 97,92 %
02.09.2017 18:54 11,9 C 20,6 C 96 % 1013,7 hPa 0,2 l/m 0,0 km/h (0 Bft) N-NW 343 0 min 0,000 mm 0,0 UV-I 16 W/m 11,3 C 11,9 C 0,0 km/h (0 Bft) 98,00 %
02.09.2017 18:56 11,9 C 20,6 C 96 % 1013,8 hPa 0,0 l/m 0,1 km/h (0 Bft) N-NW 343 0 min 0,000 mm 0,0 UV-I 13 W/m 11,3 C 11,9 C 1,6 km/h (1 Bft) 97,87 %
02.09.2017 18:58 12,0 C 20,6 C 96 % 1013,8 hPa 0,0 l/m 0,2 km/h (0 Bft) N-NW 343 0 min 0,000 mm 0,0 UV-I 12 W/m 11,4 C 12,0 C 1,6 km/h (1 Bft) 97,87 %
02.09.2017 19:00 11,9 C 20,6 C 96 % 1013,7 hPa 0,0 l/m 0,1 km/h (0 Bft) N-NW 343 0 min 0,026 mm 0,0 UV-I 12 W/m 11,3 C 11,9 C 1,6 km/h (1 Bft) 100,00 %
02.09.2017 19:02 11,9 C 20,6 C 96 % 1013,7 hPa 0,2 l/m 0,5 km/h (0 Bft) N-NW 343 0 min 0,000 mm 0,0 UV-I 11 W/m 11,3 C 11,9 C 1,6 km/h (1 Bft) 97,87 %
02.09.2017 19:04 11,9 C 20,6 C 96 % 1013,7 hPa 0,0 l/m 1,2 km/h (1 Bft) N-NW 343 0 min 0,000 mm 0,0 UV-I 11 W/m 11,3 C 11,9 C 4,8 km/h (1 Bft) 97,87 %
02.09.2017 19:06 11,9 C 20,6 C 96 % 1013,7 hPa 0,0 l/m 1,8 km/h (1 Bft) NW 322 0 min 0,000 mm 0,0 UV-I 12 W/m 11,3 C 11,9 C 4,8 km/h (1 Bft) 97,92 %
02.09.2017 19:08 11,9 C 20,6 C 96 % 1013,6 hPa 0,2 l/m 1,2 km/h (1 Bft) NW 304 0 min 0,000 mm 0,0 UV-I 12 W/m 11,3 C 11,9 C 4,8 km/h (1 Bft) 97,87 %
02.09.2017 19:10 11,9 C 20,6 C 96 % 1013,6 hPa 0,0 l/m 2,2 km/h (1 Bft) NO 37 0 min 0,000 mm 0,0 UV-I 11 W/m 11,3 C 11,9 C 6,4 km/h (2 Bft) 97,87 %
02.09.2017 19:12 11,8 C 20,6 C 96 % 1013,7 hPa 0,0 l/m 0,8 km/h (0 Bft) N-NO 19 0 min 0,000 mm 0,0 UV-I 11 W/m 11,2 C 11,8 C 3,2 km/h (1 Bft) 93,88 %
02.09.2017 19:14 11,8 C 20,6 C 96 % 1013,8 hPa 0,0 l/m 1,6 km/h (1 Bft) N-NO 19 0 min 0,000 mm 0,0 UV-I 9 W/m 11,2 C 11,8 C 3,2 km/h (1 Bft) 97,37 %
02.09.2017 19:16 11,9 C 20,6 C 96 % 1013,9 hPa 0,0 l/m 0,3 km/h (0 Bft) N-NO 19 0 min 0,000 mm 0,0 UV-I 8 W/m 11,3 C 11,9 C 1,6 km/h (1 Bft) 95,74 %
02.09.2017 19:18 11,8 C 20,6 C 96 % 1013,9 hPa 0,2 l/m 2,3 km/h (1 Bft) NW 325 0 min 0,000 mm 0,0 UV-I 7 W/m 11,2 C 11,8 C 4,8 km/h (1 Bft) 97,87 %
02.09.2017 19:20 11,8 C 20,6 C 96 % 1013,9 hPa 0,0 l/m 1,6 km/h (1 Bft) NW 319 0 min 0,000 mm 0,0 UV-I 7 W/m 11,2 C 11,8 C 4,8 km/h (1 Bft) 93,62 %
02.09.2017 19:22 11,8 C 20,6 C 96 % 1013,9 hPa 0,0 l/m 1,7 km/h (1 Bft) N-NW 340 0 min 0,000 mm 0,0 UV-I 6 W/m 11,2 C 11,8 C 4,8 km/h (1 Bft) 95,74 %
02.09.2017 19:24 11,8 C 20,6 C 96 % 1013,8 hPa 0,0 l/m 1,9 km/h (1 Bft) N-NW 347 0 min 0,000 mm 0,0 UV-I 5 W/m 11,2 C 11,8 C 4,8 km/h (1 Bft) 97,87 %
02.09.2017 19:26 11,8 C 20,6 C 96 % 1013,9 hPa 0,0 l/m 1,1 km/h (1 Bft) NW 311 0 min 0,000 mm 0,0 UV-I 5 W/m 11,2 C 11,8 C 3,2 km/h (1 Bft) 95,74 %
02.09.2017 19:28 11,7 C 20,6 C 96 % 1013,9 hPa 0,2 l/m 2,5 km/h (1 Bft) N-NW 344 0 min 0,000 mm 0,0 UV-I 5 W/m 11,1 C 11,7 C 4,8 km/h (1 Bft) 94,00 %
02.09.2017 19:30 11,7 C 20,6 C 96 % 1013,9 hPa 0,0 l/m 1,1 km/h (1 Bft) N-NW 344 0 min 0,000 mm 0,0 UV-I 5 W/m 11,1 C 11,7 C 3,2 km/h (1 Bft) 97,87 %
02.09.2017 19:32 11,7 C 20,6 C 96 % 1013,9 hPa 0,0 l/m 1,4 km/h (1 Bft) N-NW 343 0 min 0,000 mm 0,0 UV-I 5 W/m 11,1 C 11,7 C 3,2 km/h (1 Bft) 97,87 %
02.09.2017 19:34 11,7 C 20,6 C 96 % 1013,9 hPa 0,0 l/m 2,6 km/h (1 Bft) N-NW 331 0 min 0,000 mm 0,0 UV-I 5 W/m 11,1 C 11,7 C 8,0 km/h (2 Bft) 97,87 %
02.09.2017 19:36 11,7 C 20,6 C 96 % 1014,0 hPa 0,0 l/m 0,6 km/h (0 Bft) N-NW 331 0 min 0,000 mm 0,0 UV-I 0 W/m 11,1 C 11,7 C 3,2 km/h (1 Bft) 95,74 %
02.09.2017 19:38 11,7 C 20,6 C 96 % 1014,0 hPa 0,0 l/m 0,1 km/h (0 Bft) N-NW 331 0 min 0,000 mm 0,0 UV-I 0 W/m 11,1 C 11,7 C 1,6 km/h (1 Bft) 94,00 %
02.09.2017 19:40 11,7 C 20,6 C 96 % 1014,0 hPa 0,2 l/m 0,0 km/h (0 Bft) N-NW 331 0 min 0,000 mm 0,0 UV-I 0 W/m 11,1 C 11,7 C 0,0 km/h (0 Bft) 97,22 %
02.09.2017 19:42 11,7 C 20,6 C 96 % 1014,1 hPa 0,0 l/m 0,0 km/h (0 Bft) N-NW 331 0 min 0,000 mm 0,0 UV-I 0 W/m 11,1 C 11,7 C 0,0 km/h (0 Bft) 100,00 %
02.09.2017 19:44 11,7 C 20,6 C 96 % 1014,0 hPa 0,0 l/m 0,1 km/h (0 Bft) N-NW 331 0 min 0,000 mm 0,0 UV-I 0 W/m 11,1 C 11,7 C 1,6 km/h (1 Bft) 100,00 %
02.09.2017 19:46 11,7 C 20,6 C 96 % 1014,1 hPa 0,0 l/m 0,3 km/h (0 Bft) N-NW 331 0 min 0,000 mm 0,0 UV-I 0 W/m 11,1 C 11,7 C 3,2 km/h (1 Bft) 100,00 %
02.09.2017 19:48 11,7 C 20,6 C 96 % 1014,1 hPa 0,2 l/m 0,2 km/h (0 Bft) N-NW 331 0 min 0,000 mm 0,0 UV-I 0 W/m 11,1 C 11,7 C 1,6 km/h (1 Bft) 97,87 %
02.09.2017 19:50 11,7 C 20,6 C 96 % 1014,1 hPa 0,0 l/m 0,0 km/h (0 Bft) N-NW 331 0 min 0,000 mm 0,0 UV-I 0 W/m 11,1 C 11,7 C 0,0 km/h (0 Bft) 100,00 %
02.09.2017 19:52 11,7 C 20,6 C 96 % 1014,1 hPa 0,0 l/m 0,0 km/h (0 Bft) N-NW 331 0 min 0,000 mm 0,0 UV-I 0 W/m 11,1 C 11,7 C 0,0 km/h (0 Bft) 100,00 %
02.09.2017 19:54 11,7 C 20,6 C 96 % 1014,1 hPa 0,2 l/m 0,0 km/h (0 Bft) N-NW 331 0 min 0,000 mm 0,0 UV-I 0 W/m 11,1 C 11,7 C 0,0 km/h (0 Bft) 100,00 %
02.09.2017 19:56 11,7 C 20,0 C 96 % 1014,1 hPa 0,0 l/m 0,0 km/h (0 Bft) N-NW 331 0 min 0,000 mm 0,0 UV-I 0 W/m 11,1 C 11,7 C 0,0 km/h (0 Bft) 97,87 %
02.09.2017 19:58 11,7 C 20,6 C 96 % 1014,2 hPa 0,0 l/m 0,0 km/h (0 Bft) N-NW 331 0 min 0,000 mm 0,0 UV-I 0 W/m 11,1 C 11,7 C 0,0 km/h (0 Bft) 100,00 %
02.09.2017 20:00 11,7 C 20,6 C 96 % 1014,2 hPa 0,0 l/m 0,0 km/h (0 Bft) N-NW 331 0 min 0,000 mm 0,0 UV-I 0 W/m 11,1 C 11,7 C 1,6 km/h (1 Bft) 98,00 %
02.09.2017 20:02 11,7 C 20,6 C 96 % 1014,2 hPa 0,2 l/m 0,2 km/h (0 Bft) N-NW 331 0 min 0,000 mm 0,0 UV-I 0 W/m 11,1 C 11,7 C 1,6 km/h (1 Bft) 97,14 %
02.09.2017 20:04 11,7 C 20,0 C 96 % 1014,2 hPa 0,0 l/m 1,7 km/h (1 Bft) N-NW 331 0 min 0,000 mm 0,0 UV-I 0 W/m 11,1 C 11,7 C 3,2 km/h (1 Bft) 98,00 %
02.09.2017 20:06 11,7 C 20,6 C 96 % 1014,2 hPa 0,0 l/m 1,6 km/h (1 Bft) N-NW 331 0 min 0,000 mm 0,0 UV-I 0 W/m 11,1 C 11,7 C 3,2 km/h (1 Bft) 100,00 %
02.09.2017 20:08 11,7 C 20,0 C 96 % 1014,2 hPa 0,0 l/m 0,2 km/h (0 Bft) N-NW 331 0 min 0,000 mm 0,0 UV-I 0 W/m 11,1 C 11,7 C 1,6 km/h (1 Bft) 100,00 %
02.09.2017 20:10 11,7 C 20,6 C 96 % 1014,2 hPa 0,0 l/m 0,4 km/h (0 Bft) N-NW 331 0 min 0,000 mm 0,0 UV-I 0 W/m 11,1 C 11,7 C 1,6 km/h (1 Bft) 98,00 %
02.09.2017 20:12 11,7 C 20,0 C 96 % 1014,2 hPa 0,0 l/m 0,7 km/h (0 Bft) N-NW 331 0 min 0,000 mm 0,0 UV-I 0 W/m 11,1 C 11,7 C 1,6 km/h (1 Bft) 100,00 %
02.09.2017 20:14 11,7 C 20,0 C 96 % 1014,2 hPa 0,0 l/m 0,7 km/h (0 Bft) N-NW 331 0 min 0,000 mm 0,0 UV-I 0 W/m 11,1 C 11,7 C 1,6 km/h (1 Bft) 98,00 %
02.09.2017 20:16 11,7 C 20,0 C 96 % 1014,3 hPa 0,2 l/m 0,4 km/h (0 Bft) N-NW 331 0 min 0,000 mm 0,0 UV-I 0 W/m 11,1 C 11,7 C 1,6 km/h (1 Bft) 97,87 %
02.09.2017 20:18 11,7 C 20,0 C 96 % 1014,3 hPa 0,0 l/m 0,1 km/h (0 Bft) N-NW 331 0 min 0,000 mm 0,0 UV-I 0 W/m 11,1 C 11,7 C 1,6 km/h (1 Bft) 97,87 %
02.09.2017 20:20 11,7 C 20,0 C 96 % 1014,4 hPa 0,2 l/m 0,5 km/h (0 Bft) N-NW 331 0 min 0,000 mm 0,0 UV-I 0 W/m 11,1 C 11,7 C 1,6 km/h (1 Bft) 98,00 %
02.09.2017 20:22 11,7 C 20,0 C 96 % 1014,4 hPa 0,0 l/m 0,1 km/h (0 Bft) N-NW 331 0 min 0,000 mm 0,0 UV-I 0 W/m 11,1 C 11,7 C 1,6 km/h (1 Bft) 100,00 %
02.09.2017 20:24 11,7 C 20,0 C 96 % 1014,4 hPa 0,0 l/m 1,3 km/h (1 Bft) N-NW 331 0 min 0,000 mm 0,0 UV-I 0 W/m 11,1 C 11,7 C 3,2 km/h (1 Bft) 100,00 %
02.09.2017 20:26 11,7 C 20,0 C 96 % 1014,4 hPa 0,2 l/m 1,3 km/h (1 Bft) N-NW 331 0 min 0,000 mm 0,0 UV-I 0 W/m 11,1 C 11,7 C 3,2 km/h (1 Bft) 95,74 %
02.09.2017 20:28 11,7 C 20,0 C 96 % 1014,4 hPa 0,0 l/m 0,7 km/h (0 Bft) N-NW 331 0 min 0,000 mm 0,0 UV-I 0 W/m 11,1 C 11,7 C 1,6 km/h (1 Bft) 100,00 %
02.09.2017 20:30 11,7 C 20,0 C 96 % 1014,5 hPa 0,2 l/m 1,5 km/h (1 Bft) NW 325 0 min 0,000 mm 0,0 UV-I 0 W/m 11,1 C 11,7 C 4,8 km/h (1 Bft) 100,00 %
02.09.2017 20:32 11,7 C 20,0 C 96 % 1014,5 hPa 0,0 l/m 2,3 km/h (1 Bft) W-NW 284 0 min 0,000 mm 0,0 UV-I 0 W/m 11,1 C 11,7 C 4,8 km/h (1 Bft) 100,00 %
02.09.2017 20:34 11,6 C 20,0 C 96 % 1014,5 hPa 0,0 l/m 2,4 km/h (1 Bft) W 277 0 min 0,000 mm 0,0 UV-I 0 W/m 11,0 C 11,6 C 4,8 km/h (1 Bft) 100,00 %
02.09.2017 20:36 11,6 C 20,0 C 96 % 1014,5 hPa 0,2 l/m 3,5 km/h (1 Bft) W 275 0 min 0,000 mm 0,0 UV-I 0 W/m 11,0 C 11,6 C 4,8 km/h (1 Bft) 100,00 %
02.09.2017 20:38 11,6 C 20,0 C 96 % 1014,4 hPa 0,0 l/m 4,3 km/h (1 Bft) W 277 0 min 0,000 mm 0,0 UV-I 0 W/m 11,0 C 11,6 C 6,4 km/h (2 Bft) 100,00 %
02.09.2017 20:40 11,6 C 20,0 C 96 % 1014,4 hPa 0,0 l/m 2,9 km/h (1 Bft) W 278 0 min 0,000 mm 0,0 UV-I 0 W/m 11,0 C 11,6 C 4,8 km/h (1 Bft) 95,74 %
02.09.2017 20:42 11,6 C 20,0 C 96 % 1014,4 hPa 0,2 l/m 3,1 km/h (1 Bft) W 259 0 min 0,000 mm 0,0 UV-I 0 W/m 11,0 C 11,6 C 4,8 km/h (1 Bft) 95,74 %
02.09.2017 20:44 11,6 C 20,0 C 96 % 1014,4 hPa 0,0 l/m 1,9 km/h (1 Bft) W 275 0 min 0,000 mm 0,0 UV-I 0 W/m 11,0 C 11,6 C 4,8 km/h (1 Bft) 97,87 %
02.09.2017 20:46 11,6 C 20,0 C 96 % 1014,5 hPa 0,0 l/m 2,5 km/h (1 Bft) W 275 0 min 0,000 mm 0,0 UV-I 0 W/m 11,0 C 11,6 C 4,8 km/h (1 Bft) 97,87 %
02.09.2017 20:48 11,6 C 20,0 C 96 % 1014,5 hPa 0,0 l/m 4,4 km/h (1 Bft) W 265 0 min 0,000 mm 0,0 UV-I 0 W/m 11,0 C 11,6 C 6,4 km/h (2 Bft) 100,00 %
02.09.2017 20:50 11,6 C 20,0 C 96 % 1014,5 hPa 0,2 l/m 2,1 km/h (1 Bft) W 265 0 min 0,000 mm 0,0 UV-I 0 W/m 11,0 C 11,6 C 4,8 km/h (1 Bft) 100,00 %
02.09.2017 20:52 11,6 C 20,0 C 96 % 1014,5 hPa 0,0 l/m 2,2 km/h (1 Bft) W-NW 288 0 min 0,000 mm 0,0 UV-I 0 W/m 11,0 C 11,6 C 4,8 km/h (1 Bft) 97,87 %
02.09.2017 20:54 11,6 C 20,0 C 96 % 1014,5 hPa 0,0 l/m 0,6 km/h (0 Bft) W-NW 288 0 min 0,000 mm 0,0 UV-I 0 W/m 11,0 C 11,6 C 3,2 km/h (1 Bft) 100,00 %
02.09.2017 20:56 11,6 C 20,0 C 96 % 1014,5 hPa 0,2 l/m 0,3 km/h (0 Bft) W-NW 288 0 min 0,000 mm 0,0 UV-I 0 W/m 11,0 C 11,6 C 3,2 km/h (1 Bft) 100,00 %
02.09.2017 20:58 11,6 C 20,0 C 96 % 1014,5 hPa 0,0 l/m 0,9 km/h (0 Bft) W-NW 288 0 min 0,000 mm 0,0 UV-I 0 W/m 11,0 C 11,6 C 3,2 km/h (1 Bft) 98,11 %
02.09.2017 21:00 11,6 C 20,0 C 96 % 1014,5 hPa 0,0 l/m 1,6 km/h (1 Bft) W-NW 282 0 min 0,000 mm 0,0 UV-I 0 W/m 11,0 C 11,6 C 3,2 km/h (1 Bft) 100,00 %
02.09.2017 21:02 11,6 C 20,0 C 96 % 1014,5 hPa 0,0 l/m 3,2 km/h (1 Bft) W-SW 247 0 min 0,000 mm 0,0 UV-I 0 W/m 11,0 C 11,6 C 6,4 km/h (2 Bft) 97,87 %
02.09.2017 21:04 11,6 C 20,0 C 96 % 1014,5 hPa 0,2 l/m 3,4 km/h (1 Bft) W-SW 247 0 min 0,000 mm 0,0 UV-I 0 W/m 11,0 C 11,6 C 6,4 km/h (2 Bft) 100,00 %
02.09.2017 21:06 11,6 C 20,0 C 96 % 1014,5 hPa 0,0 l/m 2,6 km/h (1 Bft) W-SW 247 0 min 0,000 mm 0,0 UV-I 0 W/m 11,0 C 11,6 C 4,8 km/h (1 Bft) 97,92 %
02.09.2017 21:08 11,6 C 20,0 C 96 % 1014,5 hPa 0,2 l/m 1,2 km/h (1 Bft) W-NW 283 0 min 0,000 mm 0,0 UV-I 0 W/m 11,0 C 11,6 C 4,8 km/h (1 Bft) 97,87 %
02.09.2017 21:10 11,6 C 20,0 C 96 % 1014,5 hPa 0,0 l/m 0,6 km/h (0 Bft) W-NW 283 0 min 0,000 mm 0,0 UV-I 0 W/m 11,0 C 11,6 C 3,2 km/h (1 Bft) 95,65 %
02.09.2017 21:12 11,6 C 20,0 C 96 % 1014,5 hPa 0,0 l/m 0,8 km/h (0 Bft) N 11 0 min 0,000 mm 0,0 UV-I 0 W/m 11,0 C 11,6 C 4,8 km/h (1 Bft) 96,77 %
02.09.2017 21:14 11,6 C 20,0 C 96 % 1014,6 hPa 0,0 l/m 0,6 km/h (0 Bft) N 11 0 min 0,000 mm 0,0 UV-I 0 W/m 11,0 C 11,6 C 3,2 km/h (1 Bft) 95,74 %
02.09.2017 21:16 11,6 C 20,0 C 96 % 1014,6 hPa 0,2 l/m 1,6 km/h (1 Bft) W 275 0 min 0,000 mm 0,0 UV-I 0 W/m 11,0 C 11,6 C 4,8 km/h (1 Bft) 95,74 %
02.09.2017 21:18 11,6 C 20,0 C 96 % 1014,7 hPa 0,0 l/m 1,6 km/h (1 Bft) N-NW 347 0 min 0,000 mm 0,0 UV-I 0 W/m 11,0 C 11,6 C 4,8 km/h (1 Bft) 95,74 %
02.09.2017 21:20 11,6 C 20,0 C 96 % 1014,6 hPa 0,0 l/m 2,2 km/h (1 Bft) W-NW 285 0 min 0,000 mm 0,0 UV-I 0 W/m 11,0 C 11,6 C 6,4 km/h (2 Bft) 97,87 %
02.09.2017 21:22 11,6 C 20,0 C 96 % 1014,7 hPa 0,2 l/m 1,5 km/h (1 Bft) N-NO 21 0 min 0,000 mm 0,0 UV-I 0 W/m 11,0 C 11,6 C 4,8 km/h (1 Bft) 89,36 %
02.09.2017 21:24 11,6 C 20,0 C 96 % 1014,7 hPa 0,0 l/m 2,0 km/h (1 Bft) O 93 0 min 0,000 mm 0,0 UV-I 0 W/m 11,0 C 11,6 C 4,8 km/h (1 Bft) 95,74 %
02.09.2017 21:26 11,6 C 20,0 C 96 % 1014,8 hPa 0,0 l/m 0,6 km/h (0 Bft) O 93 0 min 0,000 mm 0,0 UV-I 0 W/m 11,0 C 11,6 C 3,2 km/h (1 Bft) 95,92 %
02.09.2017 21:28 11,6 C 20,0 C 96 % 1014,6 hPa 0,2 l/m 0,2 km/h (0 Bft) O 93 0 min 0,000 mm 0,0 UV-I 0 W/m 11,0 C 11,6 C 1,6 km/h (1 Bft) 97,87 %
02.09.2017 21:30 11,6 C 20,0 C 96 % 1014,7 hPa 0,0 l/m 0,8 km/h (0 Bft) O 93 0 min 0,000 mm 0,0 UV-I 0 W/m 11,0 C 11,6 C 3,2 km/h (1 Bft) 95,74 %
02.09.2017 21:32 11,6 C 20,0 C 96 % 1014,8 hPa 0,0 l/m 1,0 km/h (0 Bft) O 93 0 min 0,000 mm 0,0 UV-I 0 W/m 11,0 C 11,6 C 3,2 km/h (1 Bft) 93,62 %
02.09.2017 21:34 11,6 C 20,0 C 96 % 1014,9 hPa 0,2 l/m 1,3 km/h (1 Bft) O 93 0 min 0,000 mm 0,0 UV-I 0 W/m 11,0 C 11,6 C 4,8 km/h (1 Bft) 95,74 %
02.09.2017 21:36 11,6 C 20,0 C 96 % 1014,9 hPa 0,0 l/m 2,1 km/h (1 Bft) W-SW 238 0 min 0,000 mm 0,0 UV-I 0 W/m 11,0 C 11,6 C 4,8 km/h (1 Bft) 95,74 %
02.09.2017 21:38 11,6 C 20,0 C 96 % 1014,9 hPa 0,0 l/m 3,4 km/h (1 Bft) W 259 0 min 0,000 mm 0,0 UV-I 0 W/m 11,0 C 11,6 C 6,4 km/h (2 Bft) 93,62 %
02.09.2017 21:40 11,6 C 20,0 C 96 % 1014,8 hPa 0,0 l/m 2,3 km/h (1 Bft) W 264 0 min 0,000 mm 0,0 UV-I 0 W/m 11,0 C 11,6 C 4,8 km/h (1 Bft) 95,74 %
02.09.2017 21:42 11,5 C 20,0 C 96 % 1014,8 hPa 0,2 l/m 2,7 km/h (1 Bft) W-NW 286 0 min 0,000 mm 0,0 UV-I 0 W/m 10,9 C 11,5 C 6,4 km/h (2 Bft) 97,87 %
02.09.2017 21:44 11,5 C 20,0 C 96 % 1014,8 hPa 0,0 l/m 0,9 km/h (0 Bft) W 272 0 min 0,000 mm 0,0 UV-I 0 W/m 10,9 C 11,5 C 3,2 km/h (1 Bft) 95,83 %
02.09.2017 21:46 11,5 C 20,0 C 96 % 1014,8 hPa 0,2 l/m 0,8 km/h (0 Bft) W 272 0 min 0,000 mm 0,0 UV-I 0 W/m 10,9 C 11,5 C 3,2 km/h (1 Bft) 94,00 %
02.09.2017 21:48 11,5 C 20,0 C 96 % 1014,9 hPa 0,0 l/m 0,8 km/h (0 Bft) W 272 0 min 0,000 mm 0,0 UV-I 0 W/m 10,9 C 11,5 C 3,2 km/h (1 Bft) 97,87 %
02.09.2017 21:50 11,5 C 20,0 C 96 % 1014,9 hPa 0,0 l/m 1,6 km/h (1 Bft) W 273 0 min 0,000 mm 0,0 UV-I 0 W/m 10,9 C 11,5 C 3,2 km/h (1 Bft) 97,87 %
02.09.2017 21:52 11,5 C 20,0 C 96 % 1014,9 hPa 0,0 l/m 0,1 km/h (0 Bft) W 273 0 min 0,000 mm 0,0 UV-I 0 W/m 10,9 C 11,5 C 1,6 km/h (1 Bft) 95,74 %
02.09.2017 21:54 11,5 C 20,0 C 96 % 1014,8 hPa 0,0 l/m 1,5 km/h (1 Bft) W 273 0 min 0,000 mm 0,0 UV-I 0 W/m 10,9 C 11,5 C 4,8 km/h (1 Bft) 97,14 %
02.09.2017 21:56 11,4 C 20,0 C 96 % 1014,8 hPa 0,2 l/m 1,4 km/h (1 Bft) W 273 0 min 0,000 mm 0,0 UV-I 0 W/m 10,8 C 11,4 C 3,2 km/h (1 Bft) 96,00 %
02.09.2017 21:58 11,5 C 20,0 C 96 % 1014,8 hPa 0,0 l/m 1,1 km/h (1 Bft) W 273 0 min 0,000 mm 0,0 UV-I 0 W/m 10,9 C 11,5 C 3,2 km/h (1 Bft) 97,87 %
02.09.2017 22:00 11,4 C 20,0 C 96 % 1014,9 hPa 0,0 l/m 2,4 km/h (1 Bft) W 273 0 min 0,000 mm 0,0 UV-I 0 W/m 10,8 C 11,4 C 4,8 km/h (1 Bft) 95,74 %
02.09.2017 22:02 11,4 C 20,0 C 96 % 1014,8 hPa 0,0 l/m 2,1 km/h (1 Bft) W 273 0 min 0,000 mm 0,0 UV-I 0 W/m 10,8 C 11,4 C 6,4 km/h (2 Bft) 97,87 %
02.09.2017 22:04 11,4 C 20,0 C 96 % 1014,8 hPa 0,2 l/m 2,4 km/h (1 Bft) W 279 0 min 0,000 mm 0,0 UV-I 0 W/m 10,8 C 11,4 C 6,4 km/h (2 Bft) 97,87 %
02.09.2017 22:06 11,4 C 20,0 C 96 % 1014,8 hPa 0,0 l/m 0,1 km/h (0 Bft) W 279 0 min 0,000 mm 0,0 UV-I 0 W/m 10,8 C 11,4 C 1,6 km/h (1 Bft) 97,87 %
02.09.2017 22:08 11,4 C 20,0 C 96 % 1014,8 hPa 0,0 l/m 0,0 km/h (0 Bft) W 279 0 min 0,000 mm 0,0 UV-I 0 W/m 10,8 C 11,4 C 0,0 km/h (0 Bft) 97,87 %
02.09.2017 22:10 11,4 C 20,0 C 96 % 1014,8 hPa 0,0 l/m 0,8 km/h (0 Bft) W 278 0 min 0,000 mm 0,0 UV-I 0 W/m 10,8 C 11,4 C 3,2 km/h (1 Bft) 97,87 %
02.09.2017 22:12 11,4 C 20,0 C 96 % 1014,8 hPa 0,0 l/m 0,0 km/h (0 Bft) W 278 0 min 0,000 mm 0,0 UV-I 0 W/m 10,8 C 11,4 C 0,0 km/h (0 Bft) 96,00 %
02.09.2017 22:14 11,4 C 20,0 C 96 % 1014,8 hPa 0,2 l/m 0,0 km/h (0 Bft) W 278 0 min 0,000 mm 0,0 UV-I 0 W/m 10,8 C 11,4 C 0,0 km/h (0 Bft) 95,92 %
02.09.2017 22:16 11,4 C 20,0 C 96 % 1014,8 hPa 0,0 l/m 0,4 km/h (0 Bft) W 278 0 min 0,000 mm 0,0 UV-I 0 W/m 10,8 C 11,4 C 1,6 km/h (1 Bft) 95,74 %
02.09.2017 22:18 11,4 C 20,0 C 96 % 1014,8 hPa 0,0 l/m 0,2 km/h (0 Bft) W 278 0 min 0,000 mm 0,0 UV-I 0 W/m 10,8 C 11,4 C 1,6 km/h (1 Bft) 95,74 %
02.09.2017 22:20 11,4 C 20,0 C 97 % 1014,9 hPa 0,2 l/m 0,2 km/h (0 Bft) W 278 0 min 0,000 mm 0,0 UV-I 0 W/m 10,9 C 11,4 C 1,6 km/h (1 Bft) 97,87 %
02.09.2017 22:22 11,4 C 20,0 C 97 % 1015,0 hPa 0,0 l/m 0,0 km/h (0 Bft) W 278 0 min 0,000 mm 0,0 UV-I 0 W/m 10,9 C 11,4 C 0,0 km/h (0 Bft) 97,44 %
02.09.2017 22:24 11,4 C 20,0 C 97 % 1014,9 hPa 0,0 l/m 0,0 km/h (0 Bft) W 278 0 min 0,000 mm 0,0 UV-I 0 W/m 10,9 C 11,4 C 1,6 km/h (1 Bft) 96,00 %
02.09.2017 22:26 11,4 C 20,0 C 97 % 1014,8 hPa 0,0 l/m 0,0 km/h (0 Bft) W 278 0 min 0,000 mm 0,0 UV-I 0 W/m 10,9 C 11,4 C 0,0 km/h (0 Bft) 97,87 %
02.09.2017 22:28 11,4 C 20,0 C 97 % 1014,8 hPa 0,2 l/m 0,0 km/h (0 Bft) W 278 0 min 0,000 mm 0,0 UV-I 0 W/m 10,9 C 11,4 C 0,0 km/h (0 Bft) 100,00 %
02.09.2017 22:30 11,4 C 20,0 C 97 % 1014,9 hPa 0,0 l/m 0,1 km/h (0 Bft) W 278 0 min 0,000 mm 0,0 UV-I 0 W/m 10,9 C 11,4 C 1,6 km/h (1 Bft) 97,87 %
02.09.2017 22:32 11,4 C 20,0 C 97 % 1014,9 hPa 0,0 l/m 1,2 km/h (1 Bft) W 278 0 min 0,000 mm 0,0 UV-I 0 W/m 10,9 C 11,4 C 3,2 km/h (1 Bft) 100,00 %
02.09.2017 22:34 11,4 C 20,0 C 97 % 1014,9 hPa 0,0 l/m 0,4 km/h (0 Bft) W 278 0 min 0,000 mm 0,0 UV-I 0 W/m 10,9 C 11,4 C 3,2 km/h (1 Bft) 100,00 %
02.09.2017 22:36 11,4 C 20,0 C 97 % 1014,8 hPa 0,2 l/m 0,0 km/h (0 Bft) W 278 0 min 0,000 mm 0,0 UV-I 0 W/m 10,9 C 11,4 C 0,0 km/h (0 Bft) 97,87 %
02.09.2017 22:38 11,4 C 20,0 C 97 % 1014,8 hPa 0,0 l/m 0,1 km/h (0 Bft) W 278 0 min 0,000 mm 0,0 UV-I 0 W/m 10,9 C 11,4 C 1,6 km/h (1 Bft) 100,00 %
02.09.2017 22:40 11,4 C 20,0 C 97 % 1014,7 hPa 0,0 l/m 0,3 km/h (0 Bft) W 279 0 min 0,000 mm 0,0 UV-I 0 W/m 10,9 C 11,4 C 3,2 km/h (1 Bft) 100,00 %
02.09.2017 22:42 11,4 C 20,0 C 97 % 1014,7 hPa 0,0 l/m 0,3 km/h (0 Bft) W 278 0 min 0,000 mm 0,0 UV-I 0 W/m 10,9 C 11,4 C 1,6 km/h (1 Bft) 97,37 %
02.09.2017 22:44 11,4 C 20,0 C 97 % 1014,7 hPa 0,2 l/m 1,0 km/h (0 Bft) SW 223 0 min 0,000 mm 0,0 UV-I 0 W/m 10,9 C 11,4 C 4,8 km/h (1 Bft) 97,87 %
02.09.2017 22:46 11,4 C 20,0 C 97 % 1014,7 hPa 0,0 l/m 0,1 km/h (0 Bft) SW 223 0 min 0,000 mm 0,0 UV-I 0 W/m 10,9 C 11,4 C 1,6 km/h (1 Bft) 100,00 %
02.09.2017 22:48 11,4 C 20,0 C 97 % 1014,7 hPa 0,0 l/m 0,8 km/h (0 Bft) SW 223 0 min 0,000 mm 0,0 UV-I 0 W/m 10,9 C 11,4 C 3,2 km/h (1 Bft) 100,00 %
02.09.2017 22:50 11,4 C 20,0 C 97 % 1014,8 hPa 0,0 l/m 0,1 km/h (0 Bft) SW 223 0 min 0,000 mm 0,0 UV-I 0 W/m 10,9 C 11,4 C 1,6 km/h (1 Bft) 100,00 %
02.09.2017 22:52 11,4 C 20,0 C 97 % 1014,8 hPa 0,2 l/m 0,0 km/h (0 Bft) SW 223 0 min 0,000 mm 0,0 UV-I 0 W/m 10,9 C 11,4 C 1,6 km/h (1 Bft) 100,00 %
02.09.2017 22:54 11,4 C 20,0 C 97 % 1014,8 hPa 0,0 l/m 0,3 km/h (0 Bft) SW 223 0 min 0,000 mm 0,0 UV-I 0 W/m 10,9 C 11,4 C 1,6 km/h (1 Bft) 97,87 %
02.09.2017 22:56 11,4 C 20,0 C 97 % 1014,9 hPa 0,0 l/m 0,7 km/h (0 Bft) SW 223 0 min 0,000 mm 0,0 UV-I 0 W/m 10,9 C 11,4 C 3,2 km/h (1 Bft) 100,00 %
02.09.2017 22:58 11,4 C 20,0 C 97 % 1014,9 hPa 0,0 l/m 1,3 km/h (1 Bft) W 273 0 min 0,000 mm 0,0 UV-I 0 W/m 10,9 C 11,4 C 4,8 km/h (1 Bft) 100,00 %
02.09.2017 23:00 11,4 C 20,0 C 97 % 1014,9 hPa 0,0 l/m 2,2 km/h (1 Bft) W 273 0 min 0,000 mm 0,0 UV-I 0 W/m 10,9 C 11,4 C 4,8 km/h (1 Bft) 97,92 %
02.09.2017 23:02 11,3 C 20,0 C 97 % 1015,0 hPa 0,0 l/m 2,0 km/h (1 Bft) W 263 0 min 0,000 mm 0,0 UV-I 0 W/m 10,8 C 11,3 C 4,8 km/h (1 Bft) 100,00 %
02.09.2017 23:04 11,3 C 20,0 C 97 % 1015,0 hPa 0,2 l/m 1,8 km/h (1 Bft) W 267 0 min 0,000 mm 0,0 UV-I 0 W/m 10,8 C 11,3 C 3,2 km/h (1 Bft) 100,00 %
02.09.2017 23:06 11,3 C 20,0 C 97 % 1015,0 hPa 0,0 l/m 1,4 km/h (1 Bft) W 260 0 min 0,000 mm 0,0 UV-I 0 W/m 10,8 C 11,3 C 4,8 km/h (1 Bft) 98,00 %
02.09.2017 23:08 11,3 C 20,0 C 97 % 1014,9 hPa 0,0 l/m 2,3 km/h (1 Bft) W-SW 249 0 min 0,000 mm 0,0 UV-I 0 W/m 10,8 C 11,3 C 6,4 km/h (2 Bft) 98,00 %
02.09.2017 23:10 11,3 C 20,0 C 97 % 1015,0 hPa 0,0 l/m 2,3 km/h (1 Bft) W 279 0 min 0,000 mm 0,0 UV-I 0 W/m 10,8 C 11,3 C 4,8 km/h (1 Bft) 97,87 %
02.09.2017 23:12 11,3 C 20,0 C 96 % 1015,0 hPa 0,2 l/m 0,3 km/h (0 Bft) W 278 0 min 0,000 mm 0,0 UV-I 0 W/m 10,7 C 11,3 C 3,2 km/h (1 Bft) 97,87 %
02.09.2017 23:14 11,3 C 20,0 C 96 % 1015,0 hPa 0,0 l/m 0,0 km/h (0 Bft) W 279 0 min 0,000 mm 0,0 UV-I 0 W/m 10,7 C 11,3 C 0,0 km/h (0 Bft) 95,74 %
02.09.2017 23:16 11,3 C 20,0 C 96 % 1014,9 hPa 0,0 l/m 1,3 km/h (1 Bft) W 279 0 min 0,000 mm 0,0 UV-I 0 W/m 10,7 C 11,3 C 3,2 km/h (1 Bft) 97,87 %
02.09.2017 23:18 11,3 C 20,0 C 96 % 1014,9 hPa 0,2 l/m 1,9 km/h (1 Bft) W 278 0 min 0,000 mm 0,0 UV-I 0 W/m 10,7 C 11,3 C 3,2 km/h (1 Bft) 95,74 %
02.09.2017 23:20 11,3 C 20,0 C 96 % 1014,9 hPa 0,0 l/m 1,6 km/h (1 Bft) W 278 0 min 0,000 mm 0,0 UV-I 0 W/m 10,7 C 11,3 C 3,2 km/h (1 Bft) 93,88 %
02.09.2017 23:22 11,3 C 20,0 C 96 % 1014,8 hPa 0,0 l/m 1,2 km/h (1 Bft) W 278 0 min 0,000 mm 0,0 UV-I 0 W/m 10,7 C 11,3 C 3,2 km/h (1 Bft) 97,87 %
02.09.2017 23:24 11,3 C 20,0 C 96 % 1014,9 hPa 0,2 l/m 0,3 km/h (0 Bft) W 278 0 min 0,000 mm 0,0 UV-I 0 W/m 10,7 C 11,3 C 3,2 km/h (1 Bft) 95,74 %
02.09.2017 23:26 11,3 C 20,0 C 96 % 1014,9 hPa 0,0 l/m 0,0 km/h (0 Bft) W 278 0 min 0,000 mm 0,0 UV-I 0 W/m 10,7 C 11,3 C 1,6 km/h (1 Bft) 95,74 %
02.09.2017 23:28 11,3 C 20,0 C 96 % 1014,9 hPa 0,0 l/m 0,7 km/h (0 Bft) W 278 0 min 0,000 mm 0,0 UV-I 0 W/m 10,7 C 11,3 C 3,2 km/h (1 Bft) 97,87 %
02.09.2017 23:30 11,3 C 20,0 C 96 % 1014,8 hPa 0,0 l/m 1,1 km/h (1 Bft) W 278 0 min 0,000 mm 0,0 UV-I 0 W/m 10,7 C 11,3 C 3,2 km/h (1 Bft) 97,87 %
02.09.2017 23:32 11,3 C 20,0 C 96 % 1014,9 hPa 0,0 l/m 0,9 km/h (0 Bft) W 278 0 min 0,000 mm 0,0 UV-I 0 W/m 10,7 C 11,3 C 3,2 km/h (1 Bft) 95,74 %
02.09.2017 23:34 11,3 C 20,0 C 96 % 1014,9 hPa 0,2 l/m 0,0 km/h (0 Bft) W 278 0 min 0,000 mm 0,0 UV-I 0 W/m 10,7 C 11,3 C 0,0 km/h (0 Bft) 97,87 %
02.09.2017 23:36 11,2 C 20,0 C 96 % 1014,8 hPa 0,0 l/m 1,5 km/h (1 Bft) W 279 0 min 0,000 mm 0,0 UV-I 0 W/m 10,6 C 11,2 C 4,8 km/h (1 Bft) 97,87 %
02.09.2017 23:38 11,2 C 20,0 C 96 % 1014,9 hPa 0,0 l/m 0,9 km/h (0 Bft) W 278 0 min 0,000 mm 0,0 UV-I 0 W/m 10,6 C 11,2 C 3,2 km/h (1 Bft) 95,74 %
02.09.2017 23:40 11,2 C 20,0 C 96 % 1014,9 hPa 0,0 l/m 0,4 km/h (0 Bft) W 278 0 min 0,000 mm 0,0 UV-I 0 W/m 10,6 C 11,2 C 1,6 km/h (1 Bft) 100,00 %
02.09.2017 23:42 11,2 C 20,0 C 96 % 1014,9 hPa 0,2 l/m 0,4 km/h (0 Bft) W 278 0 min 0,000 mm 0,0 UV-I 0 W/m 10,6 C 11,2 C 1,6 km/h (1 Bft) 95,83 %
02.09.2017 23:44 11,2 C 20,0 C 96 % 1014,9 hPa 0,0 l/m 0,0 km/h (0 Bft) W 279 0 min 0,000 mm 0,0 UV-I 0 W/m 10,6 C 11,2 C 1,6 km/h (1 Bft) 100,00 %
02.09.2017 23:46 11,2 C 20,0 C 96 % 1014,9 hPa 0,0 l/m 0,8 km/h (0 Bft) W 279 0 min 0,000 mm 0,0 UV-I 0 W/m 10,6 C 11,2 C 4,8 km/h (1 Bft) 100,00 %
02.09.2017 23:48 11,2 C 20,0 C 96 % 1014,9 hPa 0,0 l/m 0,5 km/h (0 Bft) W 278 0 min 0,000 mm 0,0 UV-I 0 W/m 10,6 C 11,2 C 3,2 km/h (1 Bft) 100,00 %
02.09.2017 23:50 11,2 C 20,0 C 96 % 1014,8 hPa 0,0 l/m 1,5 km/h (1 Bft) W 278 0 min 0,000 mm 0,0 UV-I 0 W/m 10,6 C 11,2 C 4,8 km/h (1 Bft) 97,87 %
02.09.2017 23:52 11,2 C 20,0 C 96 % 1014,9 hPa 0,0 l/m 0,1 km/h (0 Bft) W 278 0 min 0,000 mm 0,0 UV-I 0 W/m 10,6 C 11,2 C 1,6 km/h (1 Bft) 97,87 %
02.09.2017 23:54 11,2 C 20,0 C 96 % 1014,9 hPa 0,2 l/m 1,0 km/h (0 Bft) W 278 0 min 0,000 mm 0,0 UV-I 0 W/m 10,6 C 11,2 C 3,2 km/h (1 Bft) 100,00 %
02.09.2017 23:56 11,2 C 20,0 C 96 % 1015,0 hPa 0,0 l/m 1,6 km/h (1 Bft) W 278 0 min 0,000 mm 0,0 UV-I 0 W/m 10,6 C 11,2 C 3,2 km/h (1 Bft) 97,87 %
02.09.2017 23:58 11,2 C 20,0 C 96 % 1015,0 hPa 0,0 l/m 3,7 km/h (1 Bft) W 275 0 min 0,000 mm 0,0 UV-I 0 W/m 10,6 C 11,2 C 4,8 km/h (1 Bft) 100,00 %
_ Min-Zeit 23:34 19:56 10:06 19:08 - 03:16 - - - - - - 10:36 08:52 04:56 00:58
Minimum _ 11,2 C 20,0 C 86 % 1013,6 hPa - 0,0 km/h (0 Bft) - - - - - - 10,0 C 9,8 C 0,0 km/h (0 Bft) 87,23 %
_ Max-Zeit 00:00 00:00 22:20 00:02 11:02 08:52 - - 00:00 13:02 11:50 11:52 00:00 00:00 01:56 00:00
Maximum _ 13,3 C 21,7 C 97 % 1015,9 hPa 0,2 l/m 10,6 km/h
N-NO (2 Bft)
- - 0 min 0,076 mm 1,3 UV-I 195 W/m 12,5 C 13,3 C 16,1 km/h
NO (3 Bft)
100,00 %
Durchschnitt _ 12,1 C 20,8 C 92 % 1014,9 hPa #11,6 l/m 2,3 km/h (1 Bft) NO - #0 min. #0,483 mm 0,8 UV-I 74 W/m 10,9 C 12,0 C 4,9 km/h (1 Bft) 97,72 %